<?xml version="1.0" encoding="UTF-8" standalone="no" ?>
<gpx xmlns="http://www.topografix.com/GPX/1/1" xmlns:xsi="http://www.w3.org/2001/XMLSchema-instance" xsi:schemaLocation="http://www.topografix.com/GPX/1/1 http://www.topografix.com/GPX/1/1/gpx.xsd" version="1.1" creator="VisuGPX - https://www.visugpx.com">
  <metadata>
    <name>Pier 17 east river</name>
    <desc><![CDATA[Pier 17 east river]]></desc>
  </metadata>
  <trk>
    <name><![CDATA[Pier 17 east river_1]]></name>
    <trkseg>
      <trkpt lat="40.71093" lon="-74.00591">
        <ele>89</ele>
        <time>2012-04-09T14:05:36Z</time>
      </trkpt>
      <trkpt lat="40.71066" lon="-74.00584">
        <ele>58</ele>
        <time>2012-04-09T14:06:04Z</time>
      </trkpt>
      <trkpt lat="40.71062" lon="-74.00584">
        <ele>58</ele>
        <time>2012-04-09T14:06:05Z</time>
      </trkpt>
      <trkpt lat="40.7106" lon="-74.00585">
        <ele>58</ele>
        <time>2012-04-09T14:06:06Z</time>
      </trkpt>
      <trkpt lat="40.71058" lon="-74.00586">
        <ele>58</ele>
        <time>2012-04-09T14:06:08Z</time>
      </trkpt>
      <trkpt lat="40.71056" lon="-74.00586">
        <ele>59</ele>
        <time>2012-04-09T14:06:10Z</time>
      </trkpt>
      <trkpt lat="40.71054" lon="-74.00586">
        <ele>60</ele>
        <time>2012-04-09T14:06:11Z</time>
      </trkpt>
      <trkpt lat="40.71053" lon="-74.00585">
        <ele>61</ele>
        <time>2012-04-09T14:06:12Z</time>
      </trkpt>
      <trkpt lat="40.71051" lon="-74.00586">
        <ele>62</ele>
        <time>2012-04-09T14:06:13Z</time>
      </trkpt>
      <trkpt lat="40.71048" lon="-74.00587">
        <ele>63</ele>
        <time>2012-04-09T14:06:14Z</time>
      </trkpt>
      <trkpt lat="40.71046" lon="-74.00588">
        <ele>64</ele>
        <time>2012-04-09T14:06:15Z</time>
      </trkpt>
      <trkpt lat="40.71044" lon="-74.00589">
        <ele>65</ele>
        <time>2012-04-09T14:06:16Z</time>
      </trkpt>
      <trkpt lat="40.71043" lon="-74.00588">
        <ele>66</ele>
        <time>2012-04-09T14:06:17Z</time>
      </trkpt>
      <trkpt lat="40.71041" lon="-74.00589">
        <ele>67</ele>
        <time>2012-04-09T14:06:18Z</time>
      </trkpt>
      <trkpt lat="40.7104" lon="-74.0059">
        <ele>70</ele>
        <time>2012-04-09T14:06:21Z</time>
      </trkpt>
      <trkpt lat="40.71039" lon="-74.00591">
        <ele>72</ele>
        <time>2012-04-09T14:06:23Z</time>
      </trkpt>
      <trkpt lat="40.71038" lon="-74.00591">
        <ele>73</ele>
        <time>2012-04-09T14:06:24Z</time>
      </trkpt>
      <trkpt lat="40.71035" lon="-74.00592">
        <ele>74</ele>
        <time>2012-04-09T14:06:25Z</time>
      </trkpt>
      <trkpt lat="40.71033" lon="-74.00593">
        <ele>75</ele>
        <time>2012-04-09T14:06:26Z</time>
      </trkpt>
      <trkpt lat="40.71032" lon="-74.00593">
        <ele>76</ele>
        <time>2012-04-09T14:06:27Z</time>
      </trkpt>
      <trkpt lat="40.71029" lon="-74.00592">
        <ele>78</ele>
        <time>2012-04-09T14:06:29Z</time>
      </trkpt>
      <trkpt lat="40.71027" lon="-74.00592">
        <ele>80</ele>
        <time>2012-04-09T14:06:31Z</time>
      </trkpt>
      <trkpt lat="40.71025" lon="-74.00592">
        <ele>81</ele>
        <time>2012-04-09T14:06:32Z</time>
      </trkpt>
      <trkpt lat="40.71023" lon="-74.00591">
        <ele>81</ele>
        <time>2012-04-09T14:06:34Z</time>
      </trkpt>
      <trkpt lat="40.71022" lon="-74.00591">
        <ele>81</ele>
        <time>2012-04-09T14:06:35Z</time>
      </trkpt>
      <trkpt lat="40.71021" lon="-74.00587">
        <ele>81</ele>
        <time>2012-04-09T14:06:37Z</time>
      </trkpt>
      <trkpt lat="40.71024" lon="-74.00584">
        <ele>81</ele>
        <time>2012-04-09T14:06:38Z</time>
      </trkpt>
      <trkpt lat="40.71026" lon="-74.00582">
        <ele>81</ele>
        <time>2012-04-09T14:06:39Z</time>
      </trkpt>
      <trkpt lat="40.71029" lon="-74.0058">
        <ele>80</ele>
        <time>2012-04-09T14:06:40Z</time>
      </trkpt>
      <trkpt lat="40.7103" lon="-74.00578">
        <ele>79</ele>
        <time>2012-04-09T14:06:41Z</time>
      </trkpt>
      <trkpt lat="40.71032" lon="-74.00576">
        <ele>78</ele>
        <time>2012-04-09T14:06:42Z</time>
      </trkpt>
      <trkpt lat="40.71033" lon="-74.00574">
        <ele>77</ele>
        <time>2012-04-09T14:06:43Z</time>
      </trkpt>
      <trkpt lat="40.71033" lon="-74.00572">
        <ele>76</ele>
        <time>2012-04-09T14:06:44Z</time>
      </trkpt>
      <trkpt lat="40.71033" lon="-74.00571">
        <ele>75</ele>
        <time>2012-04-09T14:06:45Z</time>
      </trkpt>
      <trkpt lat="40.71034" lon="-74.00568">
        <ele>73</ele>
        <time>2012-04-09T14:06:46Z</time>
      </trkpt>
      <trkpt lat="40.71034" lon="-74.00566">
        <ele>71</ele>
        <time>2012-04-09T14:06:48Z</time>
      </trkpt>
      <trkpt lat="40.71032" lon="-74.00565">
        <ele>69</ele>
        <time>2012-04-09T14:06:50Z</time>
      </trkpt>
      <trkpt lat="40.71031" lon="-74.00563">
        <ele>67</ele>
        <time>2012-04-09T14:06:52Z</time>
      </trkpt>
      <trkpt lat="40.7103" lon="-74.00564">
        <ele>65</ele>
        <time>2012-04-09T14:06:54Z</time>
      </trkpt>
      <trkpt lat="40.7103" lon="-74.00565">
        <ele>63</ele>
        <time>2012-04-09T14:06:57Z</time>
      </trkpt>
      <trkpt lat="40.7103" lon="-74.00567">
        <ele>62</ele>
        <time>2012-04-09T14:06:59Z</time>
      </trkpt>
      <trkpt lat="40.71028" lon="-74.00568">
        <ele>61</ele>
        <time>2012-04-09T14:07:02Z</time>
      </trkpt>
      <trkpt lat="40.71027" lon="-74.00568">
        <ele>60</ele>
        <time>2012-04-09T14:07:04Z</time>
      </trkpt>
      <trkpt lat="40.71026" lon="-74.00566">
        <ele>59</ele>
        <time>2012-04-09T14:07:06Z</time>
      </trkpt>
      <trkpt lat="40.71025" lon="-74.00565">
        <ele>58</ele>
        <time>2012-04-09T14:07:08Z</time>
      </trkpt>
      <trkpt lat="40.71025" lon="-74.00562">
        <ele>58</ele>
        <time>2012-04-09T14:07:10Z</time>
      </trkpt>
      <trkpt lat="40.71025" lon="-74.0056">
        <ele>58</ele>
        <time>2012-04-09T14:07:12Z</time>
      </trkpt>
      <trkpt lat="40.71024" lon="-74.00558">
        <ele>58</ele>
        <time>2012-04-09T14:07:13Z</time>
      </trkpt>
      <trkpt lat="40.71023" lon="-74.00556">
        <ele>58</ele>
        <time>2012-04-09T14:07:15Z</time>
      </trkpt>
      <trkpt lat="40.71022" lon="-74.00555">
        <ele>58</ele>
        <time>2012-04-09T14:07:16Z</time>
      </trkpt>
      <trkpt lat="40.71021" lon="-74.00554">
        <ele>58</ele>
        <time>2012-04-09T14:07:17Z</time>
      </trkpt>
      <trkpt lat="40.71019" lon="-74.00553">
        <ele>58</ele>
        <time>2012-04-09T14:07:18Z</time>
      </trkpt>
      <trkpt lat="40.71017" lon="-74.00551">
        <ele>58</ele>
        <time>2012-04-09T14:07:20Z</time>
      </trkpt>
      <trkpt lat="40.71016" lon="-74.00551">
        <ele>59</ele>
        <time>2012-04-09T14:07:21Z</time>
      </trkpt>
      <trkpt lat="40.71014" lon="-74.00549">
        <ele>59</ele>
        <time>2012-04-09T14:07:22Z</time>
      </trkpt>
      <trkpt lat="40.71012" lon="-74.00549">
        <ele>60</ele>
        <time>2012-04-09T14:07:23Z</time>
      </trkpt>
      <trkpt lat="40.71011" lon="-74.00546">
        <ele>61</ele>
        <time>2012-04-09T14:07:25Z</time>
      </trkpt>
      <trkpt lat="40.71014" lon="-74.00544">
        <ele>62</ele>
        <time>2012-04-09T14:07:26Z</time>
      </trkpt>
      <trkpt lat="40.71014" lon="-74.00542">
        <ele>63</ele>
        <time>2012-04-09T14:07:27Z</time>
      </trkpt>
      <trkpt lat="40.71013" lon="-74.0054">
        <ele>65</ele>
        <time>2012-04-09T14:07:29Z</time>
      </trkpt>
      <trkpt lat="40.71013" lon="-74.00538">
        <ele>68</ele>
        <time>2012-04-09T14:07:32Z</time>
      </trkpt>
      <trkpt lat="40.71014" lon="-74.00537">
        <ele>69</ele>
        <time>2012-04-09T14:07:33Z</time>
      </trkpt>
      <trkpt lat="40.71012" lon="-74.00536">
        <ele>70</ele>
        <time>2012-04-09T14:07:34Z</time>
      </trkpt>
      <trkpt lat="40.71012" lon="-74.00534">
        <ele>70</ele>
        <time>2012-04-09T14:07:35Z</time>
      </trkpt>
      <trkpt lat="40.71012" lon="-74.00533">
        <ele>71</ele>
        <time>2012-04-09T14:07:36Z</time>
      </trkpt>
      <trkpt lat="40.71013" lon="-74.00529">
        <ele>71</ele>
        <time>2012-04-09T14:07:37Z</time>
      </trkpt>
      <trkpt lat="40.71013" lon="-74.00526">
        <ele>71</ele>
        <time>2012-04-09T14:07:38Z</time>
      </trkpt>
      <trkpt lat="40.71014" lon="-74.00524">
        <ele>71</ele>
        <time>2012-04-09T14:07:39Z</time>
      </trkpt>
      <trkpt lat="40.71014" lon="-74.00523">
        <ele>71</ele>
        <time>2012-04-09T14:07:40Z</time>
      </trkpt>
      <trkpt lat="40.71015" lon="-74.00522">
        <ele>71</ele>
        <time>2012-04-09T14:07:42Z</time>
      </trkpt>
      <trkpt lat="40.71014" lon="-74.0052">
        <ele>73</ele>
        <time>2012-04-09T14:07:45Z</time>
      </trkpt>
      <trkpt lat="40.71013" lon="-74.00518">
        <ele>77</ele>
        <time>2012-04-09T14:07:49Z</time>
      </trkpt>
      <trkpt lat="40.71013" lon="-74.00517">
        <ele>78</ele>
        <time>2012-04-09T14:07:50Z</time>
      </trkpt>
      <trkpt lat="40.71011" lon="-74.00515">
        <ele>80</ele>
        <time>2012-04-09T14:07:52Z</time>
      </trkpt>
      <trkpt lat="40.71011" lon="-74.00513">
        <ele>81</ele>
        <time>2012-04-09T14:07:53Z</time>
      </trkpt>
      <trkpt lat="40.71011" lon="-74.0051">
        <ele>82</ele>
        <time>2012-04-09T14:07:54Z</time>
      </trkpt>
      <trkpt lat="40.71012" lon="-74.00509">
        <ele>83</ele>
        <time>2012-04-09T14:07:55Z</time>
      </trkpt>
      <trkpt lat="40.71012" lon="-74.00506">
        <ele>87</ele>
        <time>2012-04-09T14:07:57Z</time>
      </trkpt>
      <trkpt lat="40.71009" lon="-74.00502">
        <ele>91</ele>
        <time>2012-04-09T14:07:59Z</time>
      </trkpt>
      <trkpt lat="40.71008" lon="-74.00499">
        <ele>93</ele>
        <time>2012-04-09T14:08:00Z</time>
      </trkpt>
      <trkpt lat="40.71006" lon="-74.00495">
        <ele>94</ele>
        <time>2012-04-09T14:08:01Z</time>
      </trkpt>
      <trkpt lat="40.71004" lon="-74.00493">
        <ele>95</ele>
        <time>2012-04-09T14:08:02Z</time>
      </trkpt>
      <trkpt lat="40.71003" lon="-74.00488">
        <ele>96</ele>
        <time>2012-04-09T14:08:03Z</time>
      </trkpt>
      <trkpt lat="40.71002" lon="-74.00485">
        <ele>97</ele>
        <time>2012-04-09T14:08:04Z</time>
      </trkpt>
      <trkpt lat="40.71001" lon="-74.00481">
        <ele>98</ele>
        <time>2012-04-09T14:08:05Z</time>
      </trkpt>
      <trkpt lat="40.71001" lon="-74.00478">
        <ele>99</ele>
        <time>2012-04-09T14:08:06Z</time>
      </trkpt>
      <trkpt lat="40.71" lon="-74.00475">
        <ele>100</ele>
        <time>2012-04-09T14:08:07Z</time>
      </trkpt>
      <trkpt lat="40.71" lon="-74.00472">
        <ele>101</ele>
        <time>2012-04-09T14:08:08Z</time>
      </trkpt>
      <trkpt lat="40.70999" lon="-74.00471">
        <ele>102</ele>
        <time>2012-04-09T14:08:09Z</time>
      </trkpt>
      <trkpt lat="40.70998" lon="-74.00466">
        <ele>103</ele>
        <time>2012-04-09T14:08:10Z</time>
      </trkpt>
      <trkpt lat="40.70998" lon="-74.00463">
        <ele>103</ele>
        <time>2012-04-09T14:08:11Z</time>
      </trkpt>
      <trkpt lat="40.70996" lon="-74.00459">
        <ele>103</ele>
        <time>2012-04-09T14:08:13Z</time>
      </trkpt>
      <trkpt lat="40.70996" lon="-74.00454">
        <ele>104</ele>
        <time>2012-04-09T14:08:14Z</time>
      </trkpt>
      <trkpt lat="40.70996" lon="-74.00452">
        <ele>105</ele>
        <time>2012-04-09T14:08:15Z</time>
      </trkpt>
      <trkpt lat="40.70995" lon="-74.0045">
        <ele>106</ele>
        <time>2012-04-09T14:08:16Z</time>
      </trkpt>
      <trkpt lat="40.70996" lon="-74.00446">
        <ele>107</ele>
        <time>2012-04-09T14:08:17Z</time>
      </trkpt>
      <trkpt lat="40.70994" lon="-74.00449">
        <ele>108</ele>
        <time>2012-04-09T14:08:23Z</time>
      </trkpt>
      <trkpt lat="40.70995" lon="-74.00447">
        <ele>104</ele>
        <time>2012-04-09T14:08:27Z</time>
      </trkpt>
      <trkpt lat="40.70995" lon="-74.00444">
        <ele>102</ele>
        <time>2012-04-09T14:08:29Z</time>
      </trkpt>
      <trkpt lat="40.70995" lon="-74.00443">
        <ele>101</ele>
        <time>2012-04-09T14:08:31Z</time>
      </trkpt>
      <trkpt lat="40.70995" lon="-74.0044">
        <ele>101</ele>
        <time>2012-04-09T14:08:33Z</time>
      </trkpt>
      <trkpt lat="40.70995" lon="-74.00439">
        <ele>100</ele>
        <time>2012-04-09T14:08:36Z</time>
      </trkpt>
      <trkpt lat="40.70995" lon="-74.00436">
        <ele>99</ele>
        <time>2012-04-09T14:08:39Z</time>
      </trkpt>
      <trkpt lat="40.70996" lon="-74.00436">
        <ele>99</ele>
        <time>2012-04-09T14:08:43Z</time>
      </trkpt>
      <trkpt lat="40.70997" lon="-74.00438">
        <ele>99</ele>
        <time>2012-04-09T14:08:46Z</time>
      </trkpt>
      <trkpt lat="40.70996" lon="-74.0044">
        <ele>99</ele>
        <time>2012-04-09T14:08:49Z</time>
      </trkpt>
      <trkpt lat="40.70996" lon="-74.00442">
        <ele>97</ele>
        <time>2012-04-09T14:08:52Z</time>
      </trkpt>
      <trkpt lat="40.70996" lon="-74.0044">
        <ele>97</ele>
        <time>2012-04-09T14:08:54Z</time>
      </trkpt>
      <trkpt lat="40.70995" lon="-74.00442">
        <ele>96</ele>
        <time>2012-04-09T14:09:00Z</time>
      </trkpt>
      <trkpt lat="40.70996" lon="-74.00443">
        <ele>92</ele>
        <time>2012-04-09T14:09:04Z</time>
      </trkpt>
      <trkpt lat="40.70997" lon="-74.00445">
        <ele>90</ele>
        <time>2012-04-09T14:09:06Z</time>
      </trkpt>
      <trkpt lat="40.70998" lon="-74.00446">
        <ele>88</ele>
        <time>2012-04-09T14:09:08Z</time>
      </trkpt>
      <trkpt lat="40.71" lon="-74.00446">
        <ele>87</ele>
        <time>2012-04-09T14:09:09Z</time>
      </trkpt>
      <trkpt lat="40.71001" lon="-74.00449">
        <ele>86</ele>
        <time>2012-04-09T14:09:10Z</time>
      </trkpt>
      <trkpt lat="40.71001" lon="-74.0045">
        <ele>85</ele>
        <time>2012-04-09T14:09:11Z</time>
      </trkpt>
      <trkpt lat="40.71001" lon="-74.00452">
        <ele>84</ele>
        <time>2012-04-09T14:09:12Z</time>
      </trkpt>
      <trkpt lat="40.71003" lon="-74.00452">
        <ele>83</ele>
        <time>2012-04-09T14:09:13Z</time>
      </trkpt>
      <trkpt lat="40.71004" lon="-74.00453">
        <ele>83</ele>
        <time>2012-04-09T14:09:14Z</time>
      </trkpt>
      <trkpt lat="40.71006" lon="-74.00454">
        <ele>82</ele>
        <time>2012-04-09T14:09:16Z</time>
      </trkpt>
      <trkpt lat="40.71007" lon="-74.00454">
        <ele>81</ele>
        <time>2012-04-09T14:09:18Z</time>
      </trkpt>
      <trkpt lat="40.71006" lon="-74.00455">
        <ele>80</ele>
        <time>2012-04-09T14:09:19Z</time>
      </trkpt>
      <trkpt lat="40.71006" lon="-74.00457">
        <ele>80</ele>
        <time>2012-04-09T14:09:20Z</time>
      </trkpt>
      <trkpt lat="40.71006" lon="-74.00459">
        <ele>80</ele>
        <time>2012-04-09T14:09:22Z</time>
      </trkpt>
      <trkpt lat="40.71004" lon="-74.00459">
        <ele>80</ele>
        <time>2012-04-09T14:09:23Z</time>
      </trkpt>
      <trkpt lat="40.71002" lon="-74.00459">
        <ele>80</ele>
        <time>2012-04-09T14:09:24Z</time>
      </trkpt>
      <trkpt lat="40.71001" lon="-74.00459">
        <ele>80</ele>
        <time>2012-04-09T14:09:25Z</time>
      </trkpt>
      <trkpt lat="40.71" lon="-74.00457">
        <ele>80</ele>
        <time>2012-04-09T14:09:26Z</time>
      </trkpt>
      <trkpt lat="40.70998" lon="-74.00455">
        <ele>80</ele>
        <time>2012-04-09T14:09:27Z</time>
      </trkpt>
      <trkpt lat="40.70997" lon="-74.00453">
        <ele>80</ele>
        <time>2012-04-09T14:09:28Z</time>
      </trkpt>
      <trkpt lat="40.70996" lon="-74.00451">
        <ele>81</ele>
        <time>2012-04-09T14:09:29Z</time>
      </trkpt>
      <trkpt lat="40.70995" lon="-74.00449">
        <ele>83</ele>
        <time>2012-04-09T14:09:31Z</time>
      </trkpt>
      <trkpt lat="40.70993" lon="-74.00447">
        <ele>87</ele>
        <time>2012-04-09T14:09:33Z</time>
      </trkpt>
      <trkpt lat="40.70992" lon="-74.00446">
        <ele>91</ele>
        <time>2012-04-09T14:09:35Z</time>
      </trkpt>
      <trkpt lat="40.7099" lon="-74.00446">
        <ele>93</ele>
        <time>2012-04-09T14:09:36Z</time>
      </trkpt>
      <trkpt lat="40.70989" lon="-74.00447">
        <ele>95</ele>
        <time>2012-04-09T14:09:37Z</time>
      </trkpt>
      <trkpt lat="40.70988" lon="-74.00449">
        <ele>97</ele>
        <time>2012-04-09T14:09:38Z</time>
      </trkpt>
      <trkpt lat="40.70987" lon="-74.00452">
        <ele>98</ele>
        <time>2012-04-09T14:09:39Z</time>
      </trkpt>
      <trkpt lat="40.70985" lon="-74.00454">
        <ele>99</ele>
        <time>2012-04-09T14:09:40Z</time>
      </trkpt>
      <trkpt lat="40.70984" lon="-74.00457">
        <ele>100</ele>
        <time>2012-04-09T14:09:41Z</time>
      </trkpt>
      <trkpt lat="40.70982" lon="-74.0046">
        <ele>101</ele>
        <time>2012-04-09T14:09:42Z</time>
      </trkpt>
      <trkpt lat="40.70982" lon="-74.00462">
        <ele>101</ele>
        <time>2012-04-09T14:09:43Z</time>
      </trkpt>
      <trkpt lat="40.70981" lon="-74.00467">
        <ele>101</ele>
        <time>2012-04-09T14:09:44Z</time>
      </trkpt>
      <trkpt lat="40.70978" lon="-74.00471">
        <ele>101</ele>
        <time>2012-04-09T14:09:45Z</time>
      </trkpt>
      <trkpt lat="40.70975" lon="-74.00475">
        <ele>100</ele>
        <time>2012-04-09T14:09:46Z</time>
      </trkpt>
      <trkpt lat="40.70974" lon="-74.00477">
        <ele>99</ele>
        <time>2012-04-09T14:09:47Z</time>
      </trkpt>
      <trkpt lat="40.70971" lon="-74.0048">
        <ele>97</ele>
        <time>2012-04-09T14:09:48Z</time>
      </trkpt>
      <trkpt lat="40.70969" lon="-74.00482">
        <ele>95</ele>
        <time>2012-04-09T14:09:49Z</time>
      </trkpt>
      <trkpt lat="40.70967" lon="-74.00485">
        <ele>93</ele>
        <time>2012-04-09T14:09:50Z</time>
      </trkpt>
      <trkpt lat="40.70965" lon="-74.00487">
        <ele>90</ele>
        <time>2012-04-09T14:09:51Z</time>
      </trkpt>
      <trkpt lat="40.70963" lon="-74.00488">
        <ele>87</ele>
        <time>2012-04-09T14:09:52Z</time>
      </trkpt>
      <trkpt lat="40.70961" lon="-74.00488">
        <ele>85</ele>
        <time>2012-04-09T14:09:53Z</time>
      </trkpt>
      <trkpt lat="40.7096" lon="-74.00488">
        <ele>83</ele>
        <time>2012-04-09T14:09:54Z</time>
      </trkpt>
      <trkpt lat="40.70958" lon="-74.00485">
        <ele>79</ele>
        <time>2012-04-09T14:09:56Z</time>
      </trkpt>
      <trkpt lat="40.70956" lon="-74.00484">
        <ele>78</ele>
        <time>2012-04-09T14:09:57Z</time>
      </trkpt>
      <trkpt lat="40.70954" lon="-74.00485">
        <ele>77</ele>
        <time>2012-04-09T14:09:58Z</time>
      </trkpt>
      <trkpt lat="40.70952" lon="-74.00486">
        <ele>76</ele>
        <time>2012-04-09T14:09:59Z</time>
      </trkpt>
      <trkpt lat="40.7095" lon="-74.00486">
        <ele>75</ele>
        <time>2012-04-09T14:10:00Z</time>
      </trkpt>
      <trkpt lat="40.70949" lon="-74.00487">
        <ele>74</ele>
        <time>2012-04-09T14:10:01Z</time>
      </trkpt>
      <trkpt lat="40.70947" lon="-74.00487">
        <ele>73</ele>
        <time>2012-04-09T14:10:02Z</time>
      </trkpt>
      <trkpt lat="40.70946" lon="-74.00487">
        <ele>72</ele>
        <time>2012-04-09T14:10:03Z</time>
      </trkpt>
      <trkpt lat="40.70945" lon="-74.00488">
        <ele>71</ele>
        <time>2012-04-09T14:10:04Z</time>
      </trkpt>
      <trkpt lat="40.70943" lon="-74.00488">
        <ele>71</ele>
        <time>2012-04-09T14:10:05Z</time>
      </trkpt>
      <trkpt lat="40.70942" lon="-74.00488">
        <ele>71</ele>
        <time>2012-04-09T14:10:06Z</time>
      </trkpt>
      <trkpt lat="40.7094" lon="-74.00488">
        <ele>71</ele>
        <time>2012-04-09T14:10:07Z</time>
      </trkpt>
      <trkpt lat="40.70938" lon="-74.00488">
        <ele>71</ele>
        <time>2012-04-09T14:10:09Z</time>
      </trkpt>
      <trkpt lat="40.70937" lon="-74.00488">
        <ele>71</ele>
        <time>2012-04-09T14:10:10Z</time>
      </trkpt>
      <trkpt lat="40.70935" lon="-74.00489">
        <ele>71</ele>
        <time>2012-04-09T14:10:11Z</time>
      </trkpt>
      <trkpt lat="40.70934" lon="-74.00488">
        <ele>71</ele>
        <time>2012-04-09T14:10:12Z</time>
      </trkpt>
      <trkpt lat="40.70933" lon="-74.00487">
        <ele>71</ele>
        <time>2012-04-09T14:10:13Z</time>
      </trkpt>
      <trkpt lat="40.70931" lon="-74.00486">
        <ele>71</ele>
        <time>2012-04-09T14:10:16Z</time>
      </trkpt>
      <trkpt lat="40.70931" lon="-74.00489">
        <ele>71</ele>
        <time>2012-04-09T14:10:19Z</time>
      </trkpt>
      <trkpt lat="40.70931" lon="-74.00491">
        <ele>69</ele>
        <time>2012-04-09T14:10:21Z</time>
      </trkpt>
      <trkpt lat="40.7093" lon="-74.00492">
        <ele>68</ele>
        <time>2012-04-09T14:10:23Z</time>
      </trkpt>
      <trkpt lat="40.70929" lon="-74.00494">
        <ele>66</ele>
        <time>2012-04-09T14:10:25Z</time>
      </trkpt>
      <trkpt lat="40.70929" lon="-74.00496">
        <ele>65</ele>
        <time>2012-04-09T14:10:26Z</time>
      </trkpt>
      <trkpt lat="40.70928" lon="-74.00499">
        <ele>63</ele>
        <time>2012-04-09T14:10:28Z</time>
      </trkpt>
      <trkpt lat="40.70927" lon="-74.005">
        <ele>61</ele>
        <time>2012-04-09T14:10:30Z</time>
      </trkpt>
      <trkpt lat="40.70925" lon="-74.00502">
        <ele>57</ele>
        <time>2012-04-09T14:10:34Z</time>
      </trkpt>
      <trkpt lat="40.70924" lon="-74.00502">
        <ele>54</ele>
        <time>2012-04-09T14:10:37Z</time>
      </trkpt>
      <trkpt lat="40.70922" lon="-74.00502">
        <ele>53</ele>
        <time>2012-04-09T14:10:39Z</time>
      </trkpt>
      <trkpt lat="40.70921" lon="-74.00501">
        <ele>53</ele>
        <time>2012-04-09T14:10:40Z</time>
      </trkpt>
      <trkpt lat="40.70918" lon="-74.00501">
        <ele>52</ele>
        <time>2012-04-09T14:10:42Z</time>
      </trkpt>
      <trkpt lat="40.70917" lon="-74.005">
        <ele>52</ele>
        <time>2012-04-09T14:10:43Z</time>
      </trkpt>
      <trkpt lat="40.70916" lon="-74.005">
        <ele>52</ele>
        <time>2012-04-09T14:10:44Z</time>
      </trkpt>
      <trkpt lat="40.70913" lon="-74.005">
        <ele>52</ele>
        <time>2012-04-09T14:10:45Z</time>
      </trkpt>
      <trkpt lat="40.70911" lon="-74.00499">
        <ele>51</ele>
        <time>2012-04-09T14:10:46Z</time>
      </trkpt>
      <trkpt lat="40.7091" lon="-74.00498">
        <ele>51</ele>
        <time>2012-04-09T14:10:47Z</time>
      </trkpt>
      <trkpt lat="40.70908" lon="-74.00497">
        <ele>50</ele>
        <time>2012-04-09T14:10:48Z</time>
      </trkpt>
      <trkpt lat="40.70907" lon="-74.00497">
        <ele>49</ele>
        <time>2012-04-09T14:10:49Z</time>
      </trkpt>
      <trkpt lat="40.70906" lon="-74.00497">
        <ele>48</ele>
        <time>2012-04-09T14:10:50Z</time>
      </trkpt>
      <trkpt lat="40.70904" lon="-74.00496">
        <ele>48</ele>
        <time>2012-04-09T14:10:51Z</time>
      </trkpt>
      <trkpt lat="40.70903" lon="-74.00495">
        <ele>48</ele>
        <time>2012-04-09T14:10:52Z</time>
      </trkpt>
      <trkpt lat="40.70902" lon="-74.00494">
        <ele>47</ele>
        <time>2012-04-09T14:10:53Z</time>
      </trkpt>
      <trkpt lat="40.70901" lon="-74.00494">
        <ele>47</ele>
        <time>2012-04-09T14:10:54Z</time>
      </trkpt>
      <trkpt lat="40.70899" lon="-74.00494">
        <ele>47</ele>
        <time>2012-04-09T14:10:55Z</time>
      </trkpt>
      <trkpt lat="40.70897" lon="-74.00493">
        <ele>46</ele>
        <time>2012-04-09T14:10:57Z</time>
      </trkpt>
      <trkpt lat="40.70895" lon="-74.00492">
        <ele>46</ele>
        <time>2012-04-09T14:10:59Z</time>
      </trkpt>
      <trkpt lat="40.70893" lon="-74.00491">
        <ele>45</ele>
        <time>2012-04-09T14:11:00Z</time>
      </trkpt>
      <trkpt lat="40.70891" lon="-74.00491">
        <ele>45</ele>
        <time>2012-04-09T14:11:01Z</time>
      </trkpt>
      <trkpt lat="40.70889" lon="-74.0049">
        <ele>43</ele>
        <time>2012-04-09T14:11:03Z</time>
      </trkpt>
      <trkpt lat="40.70887" lon="-74.00489">
        <ele>42</ele>
        <time>2012-04-09T14:11:04Z</time>
      </trkpt>
      <trkpt lat="40.70886" lon="-74.00488">
        <ele>42</ele>
        <time>2012-04-09T14:11:05Z</time>
      </trkpt>
      <trkpt lat="40.70884" lon="-74.00488">
        <ele>41</ele>
        <time>2012-04-09T14:11:06Z</time>
      </trkpt>
      <trkpt lat="40.70882" lon="-74.00487">
        <ele>41</ele>
        <time>2012-04-09T14:11:07Z</time>
      </trkpt>
      <trkpt lat="40.70881" lon="-74.00487">
        <ele>40</ele>
        <time>2012-04-09T14:11:08Z</time>
      </trkpt>
      <trkpt lat="40.70878" lon="-74.00487">
        <ele>39</ele>
        <time>2012-04-09T14:11:10Z</time>
      </trkpt>
      <trkpt lat="40.70877" lon="-74.00487">
        <ele>39</ele>
        <time>2012-04-09T14:11:11Z</time>
      </trkpt>
      <trkpt lat="40.70876" lon="-74.00487">
        <ele>39</ele>
        <time>2012-04-09T14:11:12Z</time>
      </trkpt>
      <trkpt lat="40.70875" lon="-74.00486">
        <ele>38</ele>
        <time>2012-04-09T14:11:14Z</time>
      </trkpt>
      <trkpt lat="40.70873" lon="-74.00486">
        <ele>37</ele>
        <time>2012-04-09T14:11:17Z</time>
      </trkpt>
      <trkpt lat="40.70871" lon="-74.00487">
        <ele>37</ele>
        <time>2012-04-09T14:11:18Z</time>
      </trkpt>
      <trkpt lat="40.70869" lon="-74.00488">
        <ele>37</ele>
        <time>2012-04-09T14:11:20Z</time>
      </trkpt>
      <trkpt lat="40.70868" lon="-74.00489">
        <ele>37</ele>
        <time>2012-04-09T14:11:23Z</time>
      </trkpt>
      <trkpt lat="40.70866" lon="-74.0049">
        <ele>37</ele>
        <time>2012-04-09T14:11:24Z</time>
      </trkpt>
      <trkpt lat="40.70865" lon="-74.00491">
        <ele>37</ele>
        <time>2012-04-09T14:11:26Z</time>
      </trkpt>
      <trkpt lat="40.70863" lon="-74.00491">
        <ele>38</ele>
        <time>2012-04-09T14:11:28Z</time>
      </trkpt>
      <trkpt lat="40.70862" lon="-74.00491">
        <ele>39</ele>
        <time>2012-04-09T14:11:34Z</time>
      </trkpt>
      <trkpt lat="40.70862" lon="-74.00491">
        <ele>39</ele>
        <time>2012-04-09T14:11:52Z</time>
      </trkpt>
      <trkpt lat="40.70861" lon="-74.00489">
        <ele>37</ele>
        <time>2012-04-09T14:11:56Z</time>
      </trkpt>
      <trkpt lat="40.7086" lon="-74.00488">
        <ele>37</ele>
        <time>2012-04-09T14:11:59Z</time>
      </trkpt>
      <trkpt lat="40.70861" lon="-74.00488">
        <ele>36</ele>
        <time>2012-04-09T14:12:03Z</time>
      </trkpt>
      <trkpt lat="40.70859" lon="-74.00488">
        <ele>35</ele>
        <time>2012-04-09T14:12:05Z</time>
      </trkpt>
      <trkpt lat="40.70861" lon="-74.00487">
        <ele>30</ele>
        <time>2012-04-09T14:12:15Z</time>
      </trkpt>
      <trkpt lat="40.70859" lon="-74.00488">
        <ele>27</ele>
        <time>2012-04-09T14:12:19Z</time>
      </trkpt>
      <trkpt lat="40.70858" lon="-74.00488">
        <ele>25</ele>
        <time>2012-04-09T14:12:24Z</time>
      </trkpt>
      <trkpt lat="40.70857" lon="-74.00488">
        <ele>20</ele>
        <time>2012-04-09T14:12:45Z</time>
      </trkpt>
      <trkpt lat="40.70855" lon="-74.00486">
        <ele>20</ele>
        <time>2012-04-09T14:12:48Z</time>
      </trkpt>
      <trkpt lat="40.70854" lon="-74.00484">
        <ele>20</ele>
        <time>2012-04-09T14:12:50Z</time>
      </trkpt>
      <trkpt lat="40.70852" lon="-74.00484">
        <ele>20</ele>
        <time>2012-04-09T14:12:52Z</time>
      </trkpt>
      <trkpt lat="40.70851" lon="-74.00482">
        <ele>20</ele>
        <time>2012-04-09T14:12:54Z</time>
      </trkpt>
      <trkpt lat="40.70849" lon="-74.00482">
        <ele>20</ele>
        <time>2012-04-09T14:12:55Z</time>
      </trkpt>
      <trkpt lat="40.70848" lon="-74.00482">
        <ele>20</ele>
        <time>2012-04-09T14:12:56Z</time>
      </trkpt>
      <trkpt lat="40.70846" lon="-74.00481">
        <ele>20</ele>
        <time>2012-04-09T14:12:58Z</time>
      </trkpt>
      <trkpt lat="40.70845" lon="-74.0048">
        <ele>20</ele>
        <time>2012-04-09T14:13:00Z</time>
      </trkpt>
      <trkpt lat="40.70843" lon="-74.0048">
        <ele>20</ele>
        <time>2012-04-09T14:13:01Z</time>
      </trkpt>
      <trkpt lat="40.70842" lon="-74.00478">
        <ele>20</ele>
        <time>2012-04-09T14:13:03Z</time>
      </trkpt>
      <trkpt lat="40.70841" lon="-74.00476">
        <ele>20</ele>
        <time>2012-04-09T14:13:05Z</time>
      </trkpt>
      <trkpt lat="40.70841" lon="-74.00474">
        <ele>20</ele>
        <time>2012-04-09T14:13:07Z</time>
      </trkpt>
      <trkpt lat="40.7084" lon="-74.00472">
        <ele>20</ele>
        <time>2012-04-09T14:13:09Z</time>
      </trkpt>
      <trkpt lat="40.70839" lon="-74.0047">
        <ele>20</ele>
        <time>2012-04-09T14:13:11Z</time>
      </trkpt>
      <trkpt lat="40.70838" lon="-74.00468">
        <ele>20</ele>
        <time>2012-04-09T14:13:13Z</time>
      </trkpt>
      <trkpt lat="40.70838" lon="-74.00466">
        <ele>20</ele>
        <time>2012-04-09T14:13:15Z</time>
      </trkpt>
      <trkpt lat="40.70837" lon="-74.00465">
        <ele>20</ele>
        <time>2012-04-09T14:13:17Z</time>
      </trkpt>
      <trkpt lat="40.70836" lon="-74.00463">
        <ele>20</ele>
        <time>2012-04-09T14:13:19Z</time>
      </trkpt>
      <trkpt lat="40.70834" lon="-74.00462">
        <ele>20</ele>
        <time>2012-04-09T14:13:21Z</time>
      </trkpt>
      <trkpt lat="40.70833" lon="-74.00461">
        <ele>20</ele>
        <time>2012-04-09T14:13:22Z</time>
      </trkpt>
      <trkpt lat="40.70832" lon="-74.0046">
        <ele>20</ele>
        <time>2012-04-09T14:13:23Z</time>
      </trkpt>
      <trkpt lat="40.70831" lon="-74.00459">
        <ele>20</ele>
        <time>2012-04-09T14:13:24Z</time>
      </trkpt>
      <trkpt lat="40.70829" lon="-74.00459">
        <ele>20</ele>
        <time>2012-04-09T14:13:26Z</time>
      </trkpt>
      <trkpt lat="40.70827" lon="-74.00457">
        <ele>21</ele>
        <time>2012-04-09T14:13:28Z</time>
      </trkpt>
      <trkpt lat="40.70825" lon="-74.00457">
        <ele>22</ele>
        <time>2012-04-09T14:13:29Z</time>
      </trkpt>
      <trkpt lat="40.70823" lon="-74.00455">
        <ele>23</ele>
        <time>2012-04-09T14:13:31Z</time>
      </trkpt>
      <trkpt lat="40.70822" lon="-74.00455">
        <ele>23</ele>
        <time>2012-04-09T14:13:32Z</time>
      </trkpt>
      <trkpt lat="40.70821" lon="-74.00455">
        <ele>23</ele>
        <time>2012-04-09T14:13:33Z</time>
      </trkpt>
      <trkpt lat="40.70819" lon="-74.00454">
        <ele>24</ele>
        <time>2012-04-09T14:13:34Z</time>
      </trkpt>
      <trkpt lat="40.70818" lon="-74.00453">
        <ele>24</ele>
        <time>2012-04-09T14:13:35Z</time>
      </trkpt>
      <trkpt lat="40.70816" lon="-74.00452">
        <ele>24</ele>
        <time>2012-04-09T14:13:37Z</time>
      </trkpt>
      <trkpt lat="40.70815" lon="-74.00452">
        <ele>24</ele>
        <time>2012-04-09T14:13:38Z</time>
      </trkpt>
      <trkpt lat="40.70813" lon="-74.00451">
        <ele>25</ele>
        <time>2012-04-09T14:13:39Z</time>
      </trkpt>
      <trkpt lat="40.70812" lon="-74.0045">
        <ele>25</ele>
        <time>2012-04-09T14:13:40Z</time>
      </trkpt>
      <trkpt lat="40.7081" lon="-74.0045">
        <ele>25</ele>
        <time>2012-04-09T14:13:41Z</time>
      </trkpt>
      <trkpt lat="40.70809" lon="-74.00449">
        <ele>26</ele>
        <time>2012-04-09T14:13:42Z</time>
      </trkpt>
      <trkpt lat="40.70807" lon="-74.00449">
        <ele>26</ele>
        <time>2012-04-09T14:13:43Z</time>
      </trkpt>
      <trkpt lat="40.70806" lon="-74.00449">
        <ele>26</ele>
        <time>2012-04-09T14:13:44Z</time>
      </trkpt>
      <trkpt lat="40.70805" lon="-74.00448">
        <ele>26</ele>
        <time>2012-04-09T14:13:45Z</time>
      </trkpt>
      <trkpt lat="40.70802" lon="-74.00447">
        <ele>26</ele>
        <time>2012-04-09T14:13:47Z</time>
      </trkpt>
      <trkpt lat="40.70801" lon="-74.00447">
        <ele>26</ele>
        <time>2012-04-09T14:13:48Z</time>
      </trkpt>
      <trkpt lat="40.708" lon="-74.00446">
        <ele>26</ele>
        <time>2012-04-09T14:13:49Z</time>
      </trkpt>
      <trkpt lat="40.70798" lon="-74.00445">
        <ele>27</ele>
        <time>2012-04-09T14:13:51Z</time>
      </trkpt>
      <trkpt lat="40.70796" lon="-74.00444">
        <ele>27</ele>
        <time>2012-04-09T14:13:53Z</time>
      </trkpt>
      <trkpt lat="40.70795" lon="-74.00444">
        <ele>27</ele>
        <time>2012-04-09T14:13:54Z</time>
      </trkpt>
      <trkpt lat="40.70794" lon="-74.00444">
        <ele>27</ele>
        <time>2012-04-09T14:13:55Z</time>
      </trkpt>
      <trkpt lat="40.70792" lon="-74.00444">
        <ele>27</ele>
        <time>2012-04-09T14:13:56Z</time>
      </trkpt>
      <trkpt lat="40.70791" lon="-74.00444">
        <ele>28</ele>
        <time>2012-04-09T14:13:57Z</time>
      </trkpt>
      <trkpt lat="40.70789" lon="-74.00444">
        <ele>28</ele>
        <time>2012-04-09T14:13:58Z</time>
      </trkpt>
      <trkpt lat="40.70788" lon="-74.00443">
        <ele>29</ele>
        <time>2012-04-09T14:13:59Z</time>
      </trkpt>
      <trkpt lat="40.70787" lon="-74.00443">
        <ele>31</ele>
        <time>2012-04-09T14:14:01Z</time>
      </trkpt>
      <trkpt lat="40.70785" lon="-74.00442">
        <ele>32</ele>
        <time>2012-04-09T14:14:02Z</time>
      </trkpt>
      <trkpt lat="40.70783" lon="-74.00442">
        <ele>33</ele>
        <time>2012-04-09T14:14:03Z</time>
      </trkpt>
      <trkpt lat="40.70781" lon="-74.00441">
        <ele>33</ele>
        <time>2012-04-09T14:14:04Z</time>
      </trkpt>
      <trkpt lat="40.7078" lon="-74.0044">
        <ele>34</ele>
        <time>2012-04-09T14:14:05Z</time>
      </trkpt>
      <trkpt lat="40.70778" lon="-74.0044">
        <ele>34</ele>
        <time>2012-04-09T14:14:06Z</time>
      </trkpt>
      <trkpt lat="40.70776" lon="-74.00439">
        <ele>34</ele>
        <time>2012-04-09T14:14:07Z</time>
      </trkpt>
      <trkpt lat="40.70775" lon="-74.00439">
        <ele>34</ele>
        <time>2012-04-09T14:14:08Z</time>
      </trkpt>
      <trkpt lat="40.70773" lon="-74.00437">
        <ele>34</ele>
        <time>2012-04-09T14:14:10Z</time>
      </trkpt>
      <trkpt lat="40.70772" lon="-74.00436">
        <ele>34</ele>
        <time>2012-04-09T14:14:11Z</time>
      </trkpt>
      <trkpt lat="40.70771" lon="-74.00436">
        <ele>34</ele>
        <time>2012-04-09T14:14:12Z</time>
      </trkpt>
      <trkpt lat="40.70768" lon="-74.00435">
        <ele>34</ele>
        <time>2012-04-09T14:14:14Z</time>
      </trkpt>
      <trkpt lat="40.70767" lon="-74.00434">
        <ele>34</ele>
        <time>2012-04-09T14:14:15Z</time>
      </trkpt>
      <trkpt lat="40.70766" lon="-74.00433">
        <ele>34</ele>
        <time>2012-04-09T14:14:16Z</time>
      </trkpt>
      <trkpt lat="40.70766" lon="-74.0043">
        <ele>35</ele>
        <time>2012-04-09T14:14:18Z</time>
      </trkpt>
      <trkpt lat="40.70766" lon="-74.00429">
        <ele>35</ele>
        <time>2012-04-09T14:14:19Z</time>
      </trkpt>
      <trkpt lat="40.70766" lon="-74.00426">
        <ele>35</ele>
        <time>2012-04-09T14:14:20Z</time>
      </trkpt>
      <trkpt lat="40.70765" lon="-74.00424">
        <ele>35</ele>
        <time>2012-04-09T14:14:22Z</time>
      </trkpt>
      <trkpt lat="40.70764" lon="-74.00423">
        <ele>35</ele>
        <time>2012-04-09T14:14:24Z</time>
      </trkpt>
      <trkpt lat="40.70764" lon="-74.00421">
        <ele>35</ele>
        <time>2012-04-09T14:14:27Z</time>
      </trkpt>
      <trkpt lat="40.70764" lon="-74.0042">
        <ele>35</ele>
        <time>2012-04-09T14:14:29Z</time>
      </trkpt>
      <trkpt lat="40.70764" lon="-74.00418">
        <ele>35</ele>
        <time>2012-04-09T14:14:32Z</time>
      </trkpt>
      <trkpt lat="40.70763" lon="-74.00417">
        <ele>34</ele>
        <time>2012-04-09T14:14:34Z</time>
      </trkpt>
      <trkpt lat="40.70761" lon="-74.00417">
        <ele>33</ele>
        <time>2012-04-09T14:14:35Z</time>
      </trkpt>
      <trkpt lat="40.7076" lon="-74.00417">
        <ele>33</ele>
        <time>2012-04-09T14:14:36Z</time>
      </trkpt>
      <trkpt lat="40.70759" lon="-74.00417">
        <ele>33</ele>
        <time>2012-04-09T14:14:37Z</time>
      </trkpt>
      <trkpt lat="40.70758" lon="-74.00417">
        <ele>32</ele>
        <time>2012-04-09T14:14:39Z</time>
      </trkpt>
      <trkpt lat="40.70756" lon="-74.00416">
        <ele>32</ele>
        <time>2012-04-09T14:14:41Z</time>
      </trkpt>
      <trkpt lat="40.70754" lon="-74.00414">
        <ele>31</ele>
        <time>2012-04-09T14:14:43Z</time>
      </trkpt>
      <trkpt lat="40.70752" lon="-74.00413">
        <ele>30</ele>
        <time>2012-04-09T14:14:45Z</time>
      </trkpt>
      <trkpt lat="40.70751" lon="-74.0041">
        <ele>29</ele>
        <time>2012-04-09T14:14:47Z</time>
      </trkpt>
      <trkpt lat="40.70749" lon="-74.00409">
        <ele>29</ele>
        <time>2012-04-09T14:14:49Z</time>
      </trkpt>
      <trkpt lat="40.70748" lon="-74.00407">
        <ele>29</ele>
        <time>2012-04-09T14:14:51Z</time>
      </trkpt>
      <trkpt lat="40.70746" lon="-74.00407">
        <ele>29</ele>
        <time>2012-04-09T14:14:53Z</time>
      </trkpt>
      <trkpt lat="40.70745" lon="-74.00405">
        <ele>29</ele>
        <time>2012-04-09T14:14:55Z</time>
      </trkpt>
      <trkpt lat="40.70744" lon="-74.00404">
        <ele>29</ele>
        <time>2012-04-09T14:14:57Z</time>
      </trkpt>
      <trkpt lat="40.70742" lon="-74.00403">
        <ele>29</ele>
        <time>2012-04-09T14:14:58Z</time>
      </trkpt>
      <trkpt lat="40.70741" lon="-74.00403">
        <ele>29</ele>
        <time>2012-04-09T14:14:59Z</time>
      </trkpt>
      <trkpt lat="40.70738" lon="-74.00402">
        <ele>29</ele>
        <time>2012-04-09T14:15:01Z</time>
      </trkpt>
      <trkpt lat="40.70737" lon="-74.00401">
        <ele>29</ele>
        <time>2012-04-09T14:15:02Z</time>
      </trkpt>
      <trkpt lat="40.70736" lon="-74.00401">
        <ele>29</ele>
        <time>2012-04-09T14:15:03Z</time>
      </trkpt>
      <trkpt lat="40.70734" lon="-74.00399">
        <ele>29</ele>
        <time>2012-04-09T14:15:04Z</time>
      </trkpt>
      <trkpt lat="40.70733" lon="-74.00399">
        <ele>29</ele>
        <time>2012-04-09T14:15:05Z</time>
      </trkpt>
      <trkpt lat="40.70732" lon="-74.00398">
        <ele>29</ele>
        <time>2012-04-09T14:15:06Z</time>
      </trkpt>
      <trkpt lat="40.70732" lon="-74.00397">
        <ele>29</ele>
        <time>2012-04-09T14:15:09Z</time>
      </trkpt>
      <trkpt lat="40.7073" lon="-74.00394">
        <ele>29</ele>
        <time>2012-04-09T14:15:11Z</time>
      </trkpt>
      <trkpt lat="40.70729" lon="-74.00392">
        <ele>29</ele>
        <time>2012-04-09T14:15:13Z</time>
      </trkpt>
      <trkpt lat="40.70727" lon="-74.00391">
        <ele>29</ele>
        <time>2012-04-09T14:15:15Z</time>
      </trkpt>
      <trkpt lat="40.70726" lon="-74.00389">
        <ele>28</ele>
        <time>2012-04-09T14:15:17Z</time>
      </trkpt>
      <trkpt lat="40.70726" lon="-74.00388">
        <ele>28</ele>
        <time>2012-04-09T14:15:19Z</time>
      </trkpt>
      <trkpt lat="40.70724" lon="-74.00387">
        <ele>28</ele>
        <time>2012-04-09T14:15:22Z</time>
      </trkpt>
      <trkpt lat="40.70722" lon="-74.00385">
        <ele>28</ele>
        <time>2012-04-09T14:15:23Z</time>
      </trkpt>
      <trkpt lat="40.70721" lon="-74.00384">
        <ele>28</ele>
        <time>2012-04-09T14:15:24Z</time>
      </trkpt>
      <trkpt lat="40.7072" lon="-74.00382">
        <ele>28</ele>
        <time>2012-04-09T14:15:25Z</time>
      </trkpt>
      <trkpt lat="40.70719" lon="-74.00381">
        <ele>28</ele>
        <time>2012-04-09T14:15:26Z</time>
      </trkpt>
      <trkpt lat="40.70717" lon="-74.0038">
        <ele>28</ele>
        <time>2012-04-09T14:15:27Z</time>
      </trkpt>
      <trkpt lat="40.70716" lon="-74.00378">
        <ele>29</ele>
        <time>2012-04-09T14:15:28Z</time>
      </trkpt>
      <trkpt lat="40.70715" lon="-74.00377">
        <ele>30</ele>
        <time>2012-04-09T14:15:29Z</time>
      </trkpt>
      <trkpt lat="40.70714" lon="-74.00376">
        <ele>31</ele>
        <time>2012-04-09T14:15:30Z</time>
      </trkpt>
      <trkpt lat="40.70712" lon="-74.00376">
        <ele>33</ele>
        <time>2012-04-09T14:15:32Z</time>
      </trkpt>
      <trkpt lat="40.7071" lon="-74.00375">
        <ele>34</ele>
        <time>2012-04-09T14:15:33Z</time>
      </trkpt>
      <trkpt lat="40.70708" lon="-74.00374">
        <ele>35</ele>
        <time>2012-04-09T14:15:34Z</time>
      </trkpt>
      <trkpt lat="40.70707" lon="-74.00372">
        <ele>36</ele>
        <time>2012-04-09T14:15:35Z</time>
      </trkpt>
      <trkpt lat="40.70705" lon="-74.00371">
        <ele>37</ele>
        <time>2012-04-09T14:15:36Z</time>
      </trkpt>
      <trkpt lat="40.70705" lon="-74.00369">
        <ele>38</ele>
        <time>2012-04-09T14:15:37Z</time>
      </trkpt>
      <trkpt lat="40.70703" lon="-74.00368">
        <ele>39</ele>
        <time>2012-04-09T14:15:38Z</time>
      </trkpt>
      <trkpt lat="40.70701" lon="-74.00366">
        <ele>40</ele>
        <time>2012-04-09T14:15:39Z</time>
      </trkpt>
      <trkpt lat="40.707" lon="-74.00365">
        <ele>41</ele>
        <time>2012-04-09T14:15:40Z</time>
      </trkpt>
      <trkpt lat="40.70698" lon="-74.00363">
        <ele>42</ele>
        <time>2012-04-09T14:15:41Z</time>
      </trkpt>
      <trkpt lat="40.70696" lon="-74.00363">
        <ele>43</ele>
        <time>2012-04-09T14:15:42Z</time>
      </trkpt>
      <trkpt lat="40.70695" lon="-74.00362">
        <ele>44</ele>
        <time>2012-04-09T14:15:43Z</time>
      </trkpt>
      <trkpt lat="40.70692" lon="-74.00362">
        <ele>46</ele>
        <time>2012-04-09T14:15:45Z</time>
      </trkpt>
      <trkpt lat="40.70691" lon="-74.0036">
        <ele>49</ele>
        <time>2012-04-09T14:15:48Z</time>
      </trkpt>
      <trkpt lat="40.7069" lon="-74.00359">
        <ele>51</ele>
        <time>2012-04-09T14:15:50Z</time>
      </trkpt>
      <trkpt lat="40.70689" lon="-74.00357">
        <ele>53</ele>
        <time>2012-04-09T14:15:52Z</time>
      </trkpt>
      <trkpt lat="40.70687" lon="-74.00356">
        <ele>55</ele>
        <time>2012-04-09T14:15:54Z</time>
      </trkpt>
      <trkpt lat="40.70686" lon="-74.00355">
        <ele>56</ele>
        <time>2012-04-09T14:15:55Z</time>
      </trkpt>
      <trkpt lat="40.70683" lon="-74.00355">
        <ele>58</ele>
        <time>2012-04-09T14:15:57Z</time>
      </trkpt>
      <trkpt lat="40.70682" lon="-74.00356">
        <ele>59</ele>
        <time>2012-04-09T14:15:58Z</time>
      </trkpt>
      <trkpt lat="40.7068" lon="-74.00356">
        <ele>60</ele>
        <time>2012-04-09T14:15:59Z</time>
      </trkpt>
      <trkpt lat="40.70679" lon="-74.00356">
        <ele>62</ele>
        <time>2012-04-09T14:16:01Z</time>
      </trkpt>
      <trkpt lat="40.70678" lon="-74.00354">
        <ele>66</ele>
        <time>2012-04-09T14:16:03Z</time>
      </trkpt>
      <trkpt lat="40.70678" lon="-74.00352">
        <ele>68</ele>
        <time>2012-04-09T14:16:04Z</time>
      </trkpt>
      <trkpt lat="40.70679" lon="-74.00351">
        <ele>70</ele>
        <time>2012-04-09T14:16:05Z</time>
      </trkpt>
      <trkpt lat="40.70679" lon="-74.00349">
        <ele>71</ele>
        <time>2012-04-09T14:16:06Z</time>
      </trkpt>
      <trkpt lat="40.7068" lon="-74.00347">
        <ele>72</ele>
        <time>2012-04-09T14:16:07Z</time>
      </trkpt>
      <trkpt lat="40.70681" lon="-74.00346">
        <ele>73</ele>
        <time>2012-04-09T14:16:08Z</time>
      </trkpt>
      <trkpt lat="40.70681" lon="-74.00343">
        <ele>75</ele>
        <time>2012-04-09T14:16:10Z</time>
      </trkpt>
      <trkpt lat="40.70682" lon="-74.00341">
        <ele>75</ele>
        <time>2012-04-09T14:16:12Z</time>
      </trkpt>
      <trkpt lat="40.70682" lon="-74.0034">
        <ele>75</ele>
        <time>2012-04-09T14:16:14Z</time>
      </trkpt>
      <trkpt lat="40.70682" lon="-74.00337">
        <ele>75</ele>
        <time>2012-04-09T14:16:16Z</time>
      </trkpt>
      <trkpt lat="40.70682" lon="-74.00336">
        <ele>75</ele>
        <time>2012-04-09T14:16:19Z</time>
      </trkpt>
      <trkpt lat="40.7068" lon="-74.00336">
        <ele>75</ele>
        <time>2012-04-09T14:16:21Z</time>
      </trkpt>
      <trkpt lat="40.70678" lon="-74.00336">
        <ele>75</ele>
        <time>2012-04-09T14:16:22Z</time>
      </trkpt>
      <trkpt lat="40.70677" lon="-74.00335">
        <ele>75</ele>
        <time>2012-04-09T14:16:23Z</time>
      </trkpt>
      <trkpt lat="40.70676" lon="-74.00335">
        <ele>75</ele>
        <time>2012-04-09T14:16:24Z</time>
      </trkpt>
      <trkpt lat="40.70674" lon="-74.00335">
        <ele>75</ele>
        <time>2012-04-09T14:16:25Z</time>
      </trkpt>
      <trkpt lat="40.70673" lon="-74.00334">
        <ele>75</ele>
        <time>2012-04-09T14:16:26Z</time>
      </trkpt>
      <trkpt lat="40.70671" lon="-74.00334">
        <ele>76</ele>
        <time>2012-04-09T14:16:27Z</time>
      </trkpt>
      <trkpt lat="40.7067" lon="-74.00334">
        <ele>77</ele>
        <time>2012-04-09T14:16:28Z</time>
      </trkpt>
      <trkpt lat="40.70669" lon="-74.00333">
        <ele>78</ele>
        <time>2012-04-09T14:16:29Z</time>
      </trkpt>
      <trkpt lat="40.70668" lon="-74.00333">
        <ele>79</ele>
        <time>2012-04-09T14:16:30Z</time>
      </trkpt>
      <trkpt lat="40.70666" lon="-74.00333">
        <ele>80</ele>
        <time>2012-04-09T14:16:31Z</time>
      </trkpt>
      <trkpt lat="40.70665" lon="-74.00332">
        <ele>81</ele>
        <time>2012-04-09T14:16:32Z</time>
      </trkpt>
      <trkpt lat="40.70664" lon="-74.00331">
        <ele>82</ele>
        <time>2012-04-09T14:16:33Z</time>
      </trkpt>
      <trkpt lat="40.70661" lon="-74.0033">
        <ele>84</ele>
        <time>2012-04-09T14:16:35Z</time>
      </trkpt>
      <trkpt lat="40.70659" lon="-74.00329">
        <ele>85</ele>
        <time>2012-04-09T14:16:36Z</time>
      </trkpt>
      <trkpt lat="40.70658" lon="-74.00328">
        <ele>86</ele>
        <time>2012-04-09T14:16:37Z</time>
      </trkpt>
      <trkpt lat="40.70657" lon="-74.00328">
        <ele>87</ele>
        <time>2012-04-09T14:16:38Z</time>
      </trkpt>
      <trkpt lat="40.70655" lon="-74.00327">
        <ele>88</ele>
        <time>2012-04-09T14:16:39Z</time>
      </trkpt>
      <trkpt lat="40.70654" lon="-74.00327">
        <ele>89</ele>
        <time>2012-04-09T14:16:40Z</time>
      </trkpt>
      <trkpt lat="40.70652" lon="-74.00327">
        <ele>90</ele>
        <time>2012-04-09T14:16:41Z</time>
      </trkpt>
      <trkpt lat="40.70651" lon="-74.00326">
        <ele>91</ele>
        <time>2012-04-09T14:16:42Z</time>
      </trkpt>
      <trkpt lat="40.7065" lon="-74.00324">
        <ele>94</ele>
        <time>2012-04-09T14:16:45Z</time>
      </trkpt>
      <trkpt lat="40.70648" lon="-74.00323">
        <ele>97</ele>
        <time>2012-04-09T14:16:48Z</time>
      </trkpt>
      <trkpt lat="40.70647" lon="-74.00323">
        <ele>98</ele>
        <time>2012-04-09T14:16:49Z</time>
      </trkpt>
      <trkpt lat="40.70645" lon="-74.00321">
        <ele>99</ele>
        <time>2012-04-09T14:16:51Z</time>
      </trkpt>
      <trkpt lat="40.70643" lon="-74.0032">
        <ele>99</ele>
        <time>2012-04-09T14:16:53Z</time>
      </trkpt>
      <trkpt lat="40.70641" lon="-74.0032">
        <ele>99</ele>
        <time>2012-04-09T14:16:54Z</time>
      </trkpt>
      <trkpt lat="40.70641" lon="-74.00318">
        <ele>99</ele>
        <time>2012-04-09T14:16:56Z</time>
      </trkpt>
      <trkpt lat="40.7064" lon="-74.00317">
        <ele>99</ele>
        <time>2012-04-09T14:16:59Z</time>
      </trkpt>
      <trkpt lat="40.70639" lon="-74.00315">
        <ele>96</ele>
        <time>2012-04-09T14:17:02Z</time>
      </trkpt>
      <trkpt lat="40.70637" lon="-74.00314">
        <ele>94</ele>
        <time>2012-04-09T14:17:04Z</time>
      </trkpt>
      <trkpt lat="40.70635" lon="-74.00314">
        <ele>93</ele>
        <time>2012-04-09T14:17:05Z</time>
      </trkpt>
      <trkpt lat="40.70634" lon="-74.00314">
        <ele>92</ele>
        <time>2012-04-09T14:17:06Z</time>
      </trkpt>
      <trkpt lat="40.70633" lon="-74.00311">
        <ele>90</ele>
        <time>2012-04-09T14:17:08Z</time>
      </trkpt>
      <trkpt lat="40.70632" lon="-74.0031">
        <ele>87</ele>
        <time>2012-04-09T14:17:11Z</time>
      </trkpt>
      <trkpt lat="40.70631" lon="-74.00307">
        <ele>83</ele>
        <time>2012-04-09T14:17:15Z</time>
      </trkpt>
      <trkpt lat="40.70632" lon="-74.00306">
        <ele>80</ele>
        <time>2012-04-09T14:17:18Z</time>
      </trkpt>
      <trkpt lat="40.70633" lon="-74.00304">
        <ele>74</ele>
        <time>2012-04-09T14:17:24Z</time>
      </trkpt>
      <trkpt lat="40.70634" lon="-74.00304">
        <ele>72</ele>
        <time>2012-04-09T14:17:30Z</time>
      </trkpt>
      <trkpt lat="40.70633" lon="-74.00302">
        <ele>70</ele>
        <time>2012-04-09T14:17:36Z</time>
      </trkpt>
      <trkpt lat="40.70633" lon="-74.00301">
        <ele>70</ele>
        <time>2012-04-09T14:17:39Z</time>
      </trkpt>
      <trkpt lat="40.70632" lon="-74.00299">
        <ele>69</ele>
        <time>2012-04-09T14:17:42Z</time>
      </trkpt>
      <trkpt lat="40.7063" lon="-74.00298">
        <ele>68</ele>
        <time>2012-04-09T14:17:44Z</time>
      </trkpt>
      <trkpt lat="40.70628" lon="-74.00298">
        <ele>67</ele>
        <time>2012-04-09T14:17:46Z</time>
      </trkpt>
      <trkpt lat="40.70627" lon="-74.00298">
        <ele>67</ele>
        <time>2012-04-09T14:17:48Z</time>
      </trkpt>
      <trkpt lat="40.70623" lon="-74.00298">
        <ele>67</ele>
        <time>2012-04-09T14:17:56Z</time>
      </trkpt>
      <trkpt lat="40.70621" lon="-74.00299">
        <ele>67</ele>
        <time>2012-04-09T14:17:57Z</time>
      </trkpt>
      <trkpt lat="40.70619" lon="-74.00299">
        <ele>67</ele>
        <time>2012-04-09T14:17:58Z</time>
      </trkpt>
      <trkpt lat="40.70617" lon="-74.003">
        <ele>67</ele>
        <time>2012-04-09T14:17:59Z</time>
      </trkpt>
      <trkpt lat="40.70614" lon="-74.00301">
        <ele>67</ele>
        <time>2012-04-09T14:18:00Z</time>
      </trkpt>
      <trkpt lat="40.70612" lon="-74.00301">
        <ele>67</ele>
        <time>2012-04-09T14:18:01Z</time>
      </trkpt>
      <trkpt lat="40.7061" lon="-74.00301">
        <ele>67</ele>
        <time>2012-04-09T14:18:02Z</time>
      </trkpt>
      <trkpt lat="40.70607" lon="-74.00298">
        <ele>66</ele>
        <time>2012-04-09T14:18:03Z</time>
      </trkpt>
      <trkpt lat="40.70605" lon="-74.00298">
        <ele>65</ele>
        <time>2012-04-09T14:18:04Z</time>
      </trkpt>
      <trkpt lat="40.70602" lon="-74.00297">
        <ele>63</ele>
        <time>2012-04-09T14:18:06Z</time>
      </trkpt>
      <trkpt lat="40.70601" lon="-74.00296">
        <ele>62</ele>
        <time>2012-04-09T14:18:07Z</time>
      </trkpt>
      <trkpt lat="40.70599" lon="-74.00295">
        <ele>61</ele>
        <time>2012-04-09T14:18:08Z</time>
      </trkpt>
      <trkpt lat="40.70598" lon="-74.00295">
        <ele>60</ele>
        <time>2012-04-09T14:18:09Z</time>
      </trkpt>
      <trkpt lat="40.70596" lon="-74.00294">
        <ele>59</ele>
        <time>2012-04-09T14:18:10Z</time>
      </trkpt>
      <trkpt lat="40.70595" lon="-74.00294">
        <ele>58</ele>
        <time>2012-04-09T14:18:11Z</time>
      </trkpt>
      <trkpt lat="40.70594" lon="-74.00294">
        <ele>57</ele>
        <time>2012-04-09T14:18:12Z</time>
      </trkpt>
      <trkpt lat="40.70592" lon="-74.00293">
        <ele>55</ele>
        <time>2012-04-09T14:18:14Z</time>
      </trkpt>
      <trkpt lat="40.70591" lon="-74.00292">
        <ele>54</ele>
        <time>2012-04-09T14:18:15Z</time>
      </trkpt>
      <trkpt lat="40.70589" lon="-74.00291">
        <ele>52</ele>
        <time>2012-04-09T14:18:17Z</time>
      </trkpt>
      <trkpt lat="40.70588" lon="-74.0029">
        <ele>51</ele>
        <time>2012-04-09T14:18:19Z</time>
      </trkpt>
      <trkpt lat="40.70586" lon="-74.00289">
        <ele>51</ele>
        <time>2012-04-09T14:18:21Z</time>
      </trkpt>
      <trkpt lat="40.70584" lon="-74.00288">
        <ele>50</ele>
        <time>2012-04-09T14:18:23Z</time>
      </trkpt>
      <trkpt lat="40.70582" lon="-74.00287">
        <ele>50</ele>
        <time>2012-04-09T14:18:25Z</time>
      </trkpt>
      <trkpt lat="40.70581" lon="-74.00287">
        <ele>50</ele>
        <time>2012-04-09T14:18:26Z</time>
      </trkpt>
      <trkpt lat="40.70578" lon="-74.00285">
        <ele>50</ele>
        <time>2012-04-09T14:18:28Z</time>
      </trkpt>
      <trkpt lat="40.70577" lon="-74.00285">
        <ele>50</ele>
        <time>2012-04-09T14:18:29Z</time>
      </trkpt>
      <trkpt lat="40.70576" lon="-74.00285">
        <ele>50</ele>
        <time>2012-04-09T14:18:31Z</time>
      </trkpt>
      <trkpt lat="40.70574" lon="-74.00283">
        <ele>50</ele>
        <time>2012-04-09T14:18:33Z</time>
      </trkpt>
      <trkpt lat="40.70573" lon="-74.00282">
        <ele>50</ele>
        <time>2012-04-09T14:18:34Z</time>
      </trkpt>
      <trkpt lat="40.70571" lon="-74.00281">
        <ele>50</ele>
        <time>2012-04-09T14:18:36Z</time>
      </trkpt>
      <trkpt lat="40.7057" lon="-74.0028">
        <ele>49</ele>
        <time>2012-04-09T14:18:38Z</time>
      </trkpt>
      <trkpt lat="40.70569" lon="-74.00278">
        <ele>48</ele>
        <time>2012-04-09T14:18:40Z</time>
      </trkpt>
      <trkpt lat="40.70568" lon="-74.00277">
        <ele>48</ele>
        <time>2012-04-09T14:18:42Z</time>
      </trkpt>
      <trkpt lat="40.70567" lon="-74.00276">
        <ele>48</ele>
        <time>2012-04-09T14:18:44Z</time>
      </trkpt>
      <trkpt lat="40.70565" lon="-74.00275">
        <ele>48</ele>
        <time>2012-04-09T14:18:47Z</time>
      </trkpt>
      <trkpt lat="40.70564" lon="-74.00273">
        <ele>48</ele>
        <time>2012-04-09T14:18:50Z</time>
      </trkpt>
      <trkpt lat="40.70562" lon="-74.00272">
        <ele>48</ele>
        <time>2012-04-09T14:18:52Z</time>
      </trkpt>
      <trkpt lat="40.70561" lon="-74.00271">
        <ele>48</ele>
        <time>2012-04-09T14:18:54Z</time>
      </trkpt>
      <trkpt lat="40.70559" lon="-74.00269">
        <ele>48</ele>
        <time>2012-04-09T14:18:57Z</time>
      </trkpt>
      <trkpt lat="40.70558" lon="-74.00267">
        <ele>48</ele>
        <time>2012-04-09T14:19:00Z</time>
      </trkpt>
      <trkpt lat="40.70559" lon="-74.00265">
        <ele>48</ele>
        <time>2012-04-09T14:19:02Z</time>
      </trkpt>
      <trkpt lat="40.70561" lon="-74.00263">
        <ele>47</ele>
        <time>2012-04-09T14:19:04Z</time>
      </trkpt>
      <trkpt lat="40.70562" lon="-74.00262">
        <ele>45</ele>
        <time>2012-04-09T14:19:06Z</time>
      </trkpt>
      <trkpt lat="40.70563" lon="-74.00262">
        <ele>42</ele>
        <time>2012-04-09T14:19:09Z</time>
      </trkpt>
      <trkpt lat="40.70564" lon="-74.00261">
        <ele>37</ele>
        <time>2012-04-09T14:19:14Z</time>
      </trkpt>
      <trkpt lat="40.70565" lon="-74.0026">
        <ele>27</ele>
        <time>2012-04-09T14:19:27Z</time>
      </trkpt>
      <trkpt lat="40.70564" lon="-74.0026">
        <ele>13</ele>
        <time>2012-04-09T14:20:13Z</time>
      </trkpt>
      <trkpt lat="40.70564" lon="-74.00262">
        <ele>12</ele>
        <time>2012-04-09T14:20:24Z</time>
      </trkpt>
      <trkpt lat="40.70562" lon="-74.00263">
        <ele>10</ele>
        <time>2012-04-09T14:20:40Z</time>
      </trkpt>
      <trkpt lat="40.70562" lon="-74.00262">
        <ele>10</ele>
        <time>2012-04-09T14:20:51Z</time>
      </trkpt>
      <trkpt lat="40.7056" lon="-74.0026">
        <ele>10</ele>
        <time>2012-04-09T14:20:53Z</time>
      </trkpt>
      <trkpt lat="40.70559" lon="-74.00258">
        <ele>10</ele>
        <time>2012-04-09T14:20:55Z</time>
      </trkpt>
      <trkpt lat="40.70558" lon="-74.00256">
        <ele>10</ele>
        <time>2012-04-09T14:20:57Z</time>
      </trkpt>
      <trkpt lat="40.70558" lon="-74.00254">
        <ele>10</ele>
        <time>2012-04-09T14:20:59Z</time>
      </trkpt>
      <trkpt lat="40.70557" lon="-74.00253">
        <ele>10</ele>
        <time>2012-04-09T14:21:01Z</time>
      </trkpt>
      <trkpt lat="40.70557" lon="-74.00251">
        <ele>10</ele>
        <time>2012-04-09T14:21:03Z</time>
      </trkpt>
      <trkpt lat="40.70557" lon="-74.00249">
        <ele>10</ele>
        <time>2012-04-09T14:21:05Z</time>
      </trkpt>
      <trkpt lat="40.70556" lon="-74.00246">
        <ele>10</ele>
        <time>2012-04-09T14:21:07Z</time>
      </trkpt>
      <trkpt lat="40.70555" lon="-74.00245">
        <ele>10</ele>
        <time>2012-04-09T14:21:09Z</time>
      </trkpt>
      <trkpt lat="40.70554" lon="-74.00243">
        <ele>10</ele>
        <time>2012-04-09T14:21:11Z</time>
      </trkpt>
      <trkpt lat="40.70554" lon="-74.0024">
        <ele>11</ele>
        <time>2012-04-09T14:21:13Z</time>
      </trkpt>
      <trkpt lat="40.70553" lon="-74.00238">
        <ele>12</ele>
        <time>2012-04-09T14:21:15Z</time>
      </trkpt>
      <trkpt lat="40.70552" lon="-74.00236">
        <ele>13</ele>
        <time>2012-04-09T14:21:17Z</time>
      </trkpt>
      <trkpt lat="40.70551" lon="-74.00233">
        <ele>14</ele>
        <time>2012-04-09T14:21:19Z</time>
      </trkpt>
      <trkpt lat="40.7055" lon="-74.00231">
        <ele>15</ele>
        <time>2012-04-09T14:21:21Z</time>
      </trkpt>
      <trkpt lat="40.70549" lon="-74.00229">
        <ele>15</ele>
        <time>2012-04-09T14:21:23Z</time>
      </trkpt>
      <trkpt lat="40.70548" lon="-74.00227">
        <ele>16</ele>
        <time>2012-04-09T14:21:25Z</time>
      </trkpt>
      <trkpt lat="40.70547" lon="-74.00225">
        <ele>17</ele>
        <time>2012-04-09T14:21:27Z</time>
      </trkpt>
      <trkpt lat="40.70547" lon="-74.00224">
        <ele>18</ele>
        <time>2012-04-09T14:21:28Z</time>
      </trkpt>
      <trkpt lat="40.70546" lon="-74.00221">
        <ele>19</ele>
        <time>2012-04-09T14:21:30Z</time>
      </trkpt>
      <trkpt lat="40.70545" lon="-74.00218">
        <ele>20</ele>
        <time>2012-04-09T14:21:32Z</time>
      </trkpt>
      <trkpt lat="40.70545" lon="-74.00217">
        <ele>20</ele>
        <time>2012-04-09T14:21:34Z</time>
      </trkpt>
      <trkpt lat="40.70545" lon="-74.00214">
        <ele>21</ele>
        <time>2012-04-09T14:21:36Z</time>
      </trkpt>
      <trkpt lat="40.70545" lon="-74.00212">
        <ele>21</ele>
        <time>2012-04-09T14:21:38Z</time>
      </trkpt>
      <trkpt lat="40.70544" lon="-74.00211">
        <ele>22</ele>
        <time>2012-04-09T14:21:40Z</time>
      </trkpt>
      <trkpt lat="40.70544" lon="-74.00208">
        <ele>22</ele>
        <time>2012-04-09T14:21:42Z</time>
      </trkpt>
      <trkpt lat="40.70543" lon="-74.00207">
        <ele>22</ele>
        <time>2012-04-09T14:21:44Z</time>
      </trkpt>
      <trkpt lat="40.70543" lon="-74.00204">
        <ele>23</ele>
        <time>2012-04-09T14:21:46Z</time>
      </trkpt>
      <trkpt lat="40.70541" lon="-74.00204">
        <ele>23</ele>
        <time>2012-04-09T14:21:48Z</time>
      </trkpt>
      <trkpt lat="40.70539" lon="-74.00203">
        <ele>24</ele>
        <time>2012-04-09T14:21:50Z</time>
      </trkpt>
      <trkpt lat="40.70538" lon="-74.00202">
        <ele>24</ele>
        <time>2012-04-09T14:21:52Z</time>
      </trkpt>
      <trkpt lat="40.70536" lon="-74.00201">
        <ele>25</ele>
        <time>2012-04-09T14:21:54Z</time>
      </trkpt>
      <trkpt lat="40.70534" lon="-74.00199">
        <ele>25</ele>
        <time>2012-04-09T14:21:56Z</time>
      </trkpt>
      <trkpt lat="40.70533" lon="-74.00198">
        <ele>25</ele>
        <time>2012-04-09T14:21:58Z</time>
      </trkpt>
      <trkpt lat="40.70531" lon="-74.00197">
        <ele>26</ele>
        <time>2012-04-09T14:22:00Z</time>
      </trkpt>
      <trkpt lat="40.70529" lon="-74.00196">
        <ele>26</ele>
        <time>2012-04-09T14:22:02Z</time>
      </trkpt>
      <trkpt lat="40.70527" lon="-74.00195">
        <ele>26</ele>
        <time>2012-04-09T14:22:04Z</time>
      </trkpt>
      <trkpt lat="40.70525" lon="-74.00195">
        <ele>27</ele>
        <time>2012-04-09T14:22:06Z</time>
      </trkpt>
      <trkpt lat="40.70524" lon="-74.00194">
        <ele>27</ele>
        <time>2012-04-09T14:22:08Z</time>
      </trkpt>
      <trkpt lat="40.70522" lon="-74.00191">
        <ele>28</ele>
        <time>2012-04-09T14:22:10Z</time>
      </trkpt>
      <trkpt lat="40.7052" lon="-74.0019">
        <ele>29</ele>
        <time>2012-04-09T14:22:12Z</time>
      </trkpt>
      <trkpt lat="40.70518" lon="-74.00188">
        <ele>29</ele>
        <time>2012-04-09T14:22:14Z</time>
      </trkpt>
      <trkpt lat="40.70517" lon="-74.00187">
        <ele>30</ele>
        <time>2012-04-09T14:22:16Z</time>
      </trkpt>
      <trkpt lat="40.70514" lon="-74.00185">
        <ele>31</ele>
        <time>2012-04-09T14:22:18Z</time>
      </trkpt>
      <trkpt lat="40.70512" lon="-74.00184">
        <ele>32</ele>
        <time>2012-04-09T14:22:20Z</time>
      </trkpt>
      <trkpt lat="40.7051" lon="-74.00182">
        <ele>34</ele>
        <time>2012-04-09T14:22:22Z</time>
      </trkpt>
      <trkpt lat="40.70509" lon="-74.00182">
        <ele>34</ele>
        <time>2012-04-09T14:22:23Z</time>
      </trkpt>
      <trkpt lat="40.70508" lon="-74.00182">
        <ele>35</ele>
        <time>2012-04-09T14:22:24Z</time>
      </trkpt>
      <trkpt lat="40.70506" lon="-74.00179">
        <ele>36</ele>
        <time>2012-04-09T14:22:26Z</time>
      </trkpt>
      <trkpt lat="40.70505" lon="-74.00179">
        <ele>37</ele>
        <time>2012-04-09T14:22:27Z</time>
      </trkpt>
      <trkpt lat="40.70503" lon="-74.00175">
        <ele>37</ele>
        <time>2012-04-09T14:22:29Z</time>
      </trkpt>
      <trkpt lat="40.70501" lon="-74.00174">
        <ele>37</ele>
        <time>2012-04-09T14:22:31Z</time>
      </trkpt>
      <trkpt lat="40.70499" lon="-74.00172">
        <ele>38</ele>
        <time>2012-04-09T14:22:33Z</time>
      </trkpt>
      <trkpt lat="40.70497" lon="-74.00172">
        <ele>38</ele>
        <time>2012-04-09T14:22:35Z</time>
      </trkpt>
      <trkpt lat="40.70496" lon="-74.0017">
        <ele>38</ele>
        <time>2012-04-09T14:22:37Z</time>
      </trkpt>
      <trkpt lat="40.70494" lon="-74.0017">
        <ele>38</ele>
        <time>2012-04-09T14:22:38Z</time>
      </trkpt>
      <trkpt lat="40.70493" lon="-74.00169">
        <ele>38</ele>
        <time>2012-04-09T14:22:40Z</time>
      </trkpt>
      <trkpt lat="40.70491" lon="-74.00168">
        <ele>39</ele>
        <time>2012-04-09T14:22:42Z</time>
      </trkpt>
      <trkpt lat="40.70491" lon="-74.00166">
        <ele>39</ele>
        <time>2012-04-09T14:22:44Z</time>
      </trkpt>
      <trkpt lat="40.7049" lon="-74.00165">
        <ele>39</ele>
        <time>2012-04-09T14:22:45Z</time>
      </trkpt>
      <trkpt lat="40.70491" lon="-74.00163">
        <ele>39</ele>
        <time>2012-04-09T14:22:46Z</time>
      </trkpt>
      <trkpt lat="40.70491" lon="-74.0016">
        <ele>39</ele>
        <time>2012-04-09T14:22:47Z</time>
      </trkpt>
      <trkpt lat="40.70492" lon="-74.00157">
        <ele>39</ele>
        <time>2012-04-09T14:22:48Z</time>
      </trkpt>
      <trkpt lat="40.70491" lon="-74.00155">
        <ele>39</ele>
        <time>2012-04-09T14:22:49Z</time>
      </trkpt>
      <trkpt lat="40.70491" lon="-74.00153">
        <ele>38</ele>
        <time>2012-04-09T14:22:50Z</time>
      </trkpt>
      <trkpt lat="40.7049" lon="-74.00151">
        <ele>37</ele>
        <time>2012-04-09T14:22:51Z</time>
      </trkpt>
      <trkpt lat="40.70489" lon="-74.0015">
        <ele>36</ele>
        <time>2012-04-09T14:22:52Z</time>
      </trkpt>
      <trkpt lat="40.70489" lon="-74.00147">
        <ele>35</ele>
        <time>2012-04-09T14:22:53Z</time>
      </trkpt>
      <trkpt lat="40.70489" lon="-74.00146">
        <ele>33</ele>
        <time>2012-04-09T14:22:55Z</time>
      </trkpt>
      <trkpt lat="40.70489" lon="-74.00144">
        <ele>31</ele>
        <time>2012-04-09T14:22:58Z</time>
      </trkpt>
      <trkpt lat="40.70489" lon="-74.00142">
        <ele>30</ele>
        <time>2012-04-09T14:23:01Z</time>
      </trkpt>
      <trkpt lat="40.70489" lon="-74.0014">
        <ele>27</ele>
        <time>2012-04-09T14:23:05Z</time>
      </trkpt>
      <trkpt lat="40.70491" lon="-74.00139">
        <ele>26</ele>
        <time>2012-04-09T14:23:06Z</time>
      </trkpt>
      <trkpt lat="40.70493" lon="-74.00137">
        <ele>25</ele>
        <time>2012-04-09T14:23:07Z</time>
      </trkpt>
      <trkpt lat="40.70494" lon="-74.00137">
        <ele>24</ele>
        <time>2012-04-09T14:23:08Z</time>
      </trkpt>
      <trkpt lat="40.70495" lon="-74.00137">
        <ele>22</ele>
        <time>2012-04-09T14:23:10Z</time>
      </trkpt>
      <trkpt lat="40.70496" lon="-74.00136">
        <ele>20</ele>
        <time>2012-04-09T14:23:12Z</time>
      </trkpt>
      <trkpt lat="40.70498" lon="-74.00135">
        <ele>17</ele>
        <time>2012-04-09T14:23:15Z</time>
      </trkpt>
      <trkpt lat="40.70499" lon="-74.00135">
        <ele>10</ele>
        <time>2012-04-09T14:23:23Z</time>
      </trkpt>
      <trkpt lat="40.705" lon="-74.00134">
        <ele>8</ele>
        <time>2012-04-09T14:23:49Z</time>
      </trkpt>
      <trkpt lat="40.70501" lon="-74.00132">
        <ele>8</ele>
        <time>2012-04-09T14:24:02Z</time>
      </trkpt>
      <trkpt lat="40.70502" lon="-74.0013">
        <ele>8</ele>
        <time>2012-04-09T14:24:04Z</time>
      </trkpt>
      <trkpt lat="40.70502" lon="-74.00129">
        <ele>8</ele>
        <time>2012-04-09T14:24:06Z</time>
      </trkpt>
      <trkpt lat="40.70503" lon="-74.00127">
        <ele>8</ele>
        <time>2012-04-09T14:24:08Z</time>
      </trkpt>
      <trkpt lat="40.70504" lon="-74.00125">
        <ele>8</ele>
        <time>2012-04-09T14:24:10Z</time>
      </trkpt>
      <trkpt lat="40.70506" lon="-74.00124">
        <ele>8</ele>
        <time>2012-04-09T14:24:12Z</time>
      </trkpt>
      <trkpt lat="40.70507" lon="-74.00123">
        <ele>8</ele>
        <time>2012-04-09T14:24:14Z</time>
      </trkpt>
      <trkpt lat="40.70507" lon="-74.00121">
        <ele>8</ele>
        <time>2012-04-09T14:24:16Z</time>
      </trkpt>
      <trkpt lat="40.70509" lon="-74.00119">
        <ele>8</ele>
        <time>2012-04-09T14:24:18Z</time>
      </trkpt>
      <trkpt lat="40.7051" lon="-74.00117">
        <ele>8</ele>
        <time>2012-04-09T14:24:20Z</time>
      </trkpt>
      <trkpt lat="40.70511" lon="-74.00115">
        <ele>8</ele>
        <time>2012-04-09T14:24:22Z</time>
      </trkpt>
      <trkpt lat="40.70512" lon="-74.00113">
        <ele>8</ele>
        <time>2012-04-09T14:24:24Z</time>
      </trkpt>
      <trkpt lat="40.70512" lon="-74.00111">
        <ele>8</ele>
        <time>2012-04-09T14:24:26Z</time>
      </trkpt>
      <trkpt lat="40.70514" lon="-74.00109">
        <ele>8</ele>
        <time>2012-04-09T14:24:28Z</time>
      </trkpt>
      <trkpt lat="40.70515" lon="-74.00107">
        <ele>8</ele>
        <time>2012-04-09T14:24:30Z</time>
      </trkpt>
      <trkpt lat="40.70516" lon="-74.00105">
        <ele>8</ele>
        <time>2012-04-09T14:24:32Z</time>
      </trkpt>
      <trkpt lat="40.70517" lon="-74.00103">
        <ele>9</ele>
        <time>2012-04-09T14:24:34Z</time>
      </trkpt>
      <trkpt lat="40.70518" lon="-74.00101">
        <ele>9</ele>
        <time>2012-04-09T14:24:36Z</time>
      </trkpt>
      <trkpt lat="40.70519" lon="-74.00098">
        <ele>10</ele>
        <time>2012-04-09T14:24:38Z</time>
      </trkpt>
      <trkpt lat="40.7052" lon="-74.00097">
        <ele>10</ele>
        <time>2012-04-09T14:24:40Z</time>
      </trkpt>
      <trkpt lat="40.70522" lon="-74.00095">
        <ele>10</ele>
        <time>2012-04-09T14:24:42Z</time>
      </trkpt>
      <trkpt lat="40.70523" lon="-74.00093">
        <ele>10</ele>
        <time>2012-04-09T14:24:44Z</time>
      </trkpt>
      <trkpt lat="40.70524" lon="-74.00092">
        <ele>11</ele>
        <time>2012-04-09T14:24:46Z</time>
      </trkpt>
      <trkpt lat="40.70525" lon="-74.00089">
        <ele>11</ele>
        <time>2012-04-09T14:24:48Z</time>
      </trkpt>
      <trkpt lat="40.70527" lon="-74.00088">
        <ele>11</ele>
        <time>2012-04-09T14:24:50Z</time>
      </trkpt>
      <trkpt lat="40.70528" lon="-74.00085">
        <ele>12</ele>
        <time>2012-04-09T14:24:52Z</time>
      </trkpt>
      <trkpt lat="40.7053" lon="-74.00085">
        <ele>12</ele>
        <time>2012-04-09T14:24:54Z</time>
      </trkpt>
      <trkpt lat="40.70531" lon="-74.00085">
        <ele>12</ele>
        <time>2012-04-09T14:24:57Z</time>
      </trkpt>
      <trkpt lat="40.70532" lon="-74.00082">
        <ele>12</ele>
        <time>2012-04-09T14:25:00Z</time>
      </trkpt>
      <trkpt lat="40.70534" lon="-74.0008">
        <ele>12</ele>
        <time>2012-04-09T14:25:02Z</time>
      </trkpt>
      <trkpt lat="40.70535" lon="-74.00079">
        <ele>12</ele>
        <time>2012-04-09T14:25:04Z</time>
      </trkpt>
      <trkpt lat="40.70536" lon="-74.00078">
        <ele>12</ele>
        <time>2012-04-09T14:25:09Z</time>
      </trkpt>
      <trkpt lat="40.70535" lon="-74.00079">
        <ele>12</ele>
        <time>2012-04-09T14:25:12Z</time>
      </trkpt>
      <trkpt lat="40.70534" lon="-74.00082">
        <ele>12</ele>
        <time>2012-04-09T14:25:15Z</time>
      </trkpt>
      <trkpt lat="40.70535" lon="-74.00083">
        <ele>12</ele>
        <time>2012-04-09T14:25:17Z</time>
      </trkpt>
      <trkpt lat="40.70537" lon="-74.00085">
        <ele>12</ele>
        <time>2012-04-09T14:25:19Z</time>
      </trkpt>
      <trkpt lat="40.70538" lon="-74.00087">
        <ele>12</ele>
        <time>2012-04-09T14:25:21Z</time>
      </trkpt>
      <trkpt lat="40.7054" lon="-74.00089">
        <ele>12</ele>
        <time>2012-04-09T14:25:23Z</time>
      </trkpt>
      <trkpt lat="40.70541" lon="-74.0009">
        <ele>12</ele>
        <time>2012-04-09T14:25:25Z</time>
      </trkpt>
      <trkpt lat="40.70542" lon="-74.00092">
        <ele>12</ele>
        <time>2012-04-09T14:25:27Z</time>
      </trkpt>
      <trkpt lat="40.70543" lon="-74.00094">
        <ele>12</ele>
        <time>2012-04-09T14:25:29Z</time>
      </trkpt>
      <trkpt lat="40.70545" lon="-74.00095">
        <ele>12</ele>
        <time>2012-04-09T14:25:31Z</time>
      </trkpt>
      <trkpt lat="40.70546" lon="-74.00095">
        <ele>12</ele>
        <time>2012-04-09T14:25:33Z</time>
      </trkpt>
      <trkpt lat="40.70548" lon="-74.00097">
        <ele>12</ele>
        <time>2012-04-09T14:25:35Z</time>
      </trkpt>
      <trkpt lat="40.70549" lon="-74.00098">
        <ele>12</ele>
        <time>2012-04-09T14:25:37Z</time>
      </trkpt>
      <trkpt lat="40.70551" lon="-74.00099">
        <ele>12</ele>
        <time>2012-04-09T14:25:39Z</time>
      </trkpt>
      <trkpt lat="40.70552" lon="-74.00101">
        <ele>12</ele>
        <time>2012-04-09T14:25:41Z</time>
      </trkpt>
      <trkpt lat="40.70554" lon="-74.00103">
        <ele>12</ele>
        <time>2012-04-09T14:25:43Z</time>
      </trkpt>
      <trkpt lat="40.70555" lon="-74.00105">
        <ele>12</ele>
        <time>2012-04-09T14:25:45Z</time>
      </trkpt>
      <trkpt lat="40.70557" lon="-74.00106">
        <ele>12</ele>
        <time>2012-04-09T14:25:47Z</time>
      </trkpt>
      <trkpt lat="40.70559" lon="-74.00108">
        <ele>12</ele>
        <time>2012-04-09T14:25:49Z</time>
      </trkpt>
      <trkpt lat="40.7056" lon="-74.00109">
        <ele>12</ele>
        <time>2012-04-09T14:25:51Z</time>
      </trkpt>
      <trkpt lat="40.70562" lon="-74.00111">
        <ele>12</ele>
        <time>2012-04-09T14:25:53Z</time>
      </trkpt>
      <trkpt lat="40.70562" lon="-74.00114">
        <ele>12</ele>
        <time>2012-04-09T14:25:55Z</time>
      </trkpt>
      <trkpt lat="40.70562" lon="-74.00117">
        <ele>12</ele>
        <time>2012-04-09T14:25:57Z</time>
      </trkpt>
      <trkpt lat="40.7056" lon="-74.00119">
        <ele>12</ele>
        <time>2012-04-09T14:25:59Z</time>
      </trkpt>
      <trkpt lat="40.70561" lon="-74.00121">
        <ele>12</ele>
        <time>2012-04-09T14:26:00Z</time>
      </trkpt>
      <trkpt lat="40.70562" lon="-74.00123">
        <ele>10</ele>
        <time>2012-04-09T14:26:02Z</time>
      </trkpt>
      <trkpt lat="40.70563" lon="-74.00124">
        <ele>9</ele>
        <time>2012-04-09T14:26:03Z</time>
      </trkpt>
      <trkpt lat="40.70565" lon="-74.00126">
        <ele>8</ele>
        <time>2012-04-09T14:26:05Z</time>
      </trkpt>
      <trkpt lat="40.70566" lon="-74.00127">
        <ele>7</ele>
        <time>2012-04-09T14:26:07Z</time>
      </trkpt>
      <trkpt lat="40.70567" lon="-74.00129">
        <ele>7</ele>
        <time>2012-04-09T14:26:09Z</time>
      </trkpt>
      <trkpt lat="40.70569" lon="-74.0013">
        <ele>7</ele>
        <time>2012-04-09T14:26:11Z</time>
      </trkpt>
      <trkpt lat="40.7057" lon="-74.00131">
        <ele>7</ele>
        <time>2012-04-09T14:26:12Z</time>
      </trkpt>
      <trkpt lat="40.70572" lon="-74.00132">
        <ele>7</ele>
        <time>2012-04-09T14:26:14Z</time>
      </trkpt>
      <trkpt lat="40.70573" lon="-74.00134">
        <ele>7</ele>
        <time>2012-04-09T14:26:16Z</time>
      </trkpt>
      <trkpt lat="40.70575" lon="-74.00136">
        <ele>7</ele>
        <time>2012-04-09T14:26:18Z</time>
      </trkpt>
      <trkpt lat="40.70577" lon="-74.00138">
        <ele>7</ele>
        <time>2012-04-09T14:26:20Z</time>
      </trkpt>
      <trkpt lat="40.70579" lon="-74.0014">
        <ele>7</ele>
        <time>2012-04-09T14:26:22Z</time>
      </trkpt>
      <trkpt lat="40.70581" lon="-74.0014">
        <ele>7</ele>
        <time>2012-04-09T14:26:24Z</time>
      </trkpt>
      <trkpt lat="40.70583" lon="-74.00141">
        <ele>7</ele>
        <time>2012-04-09T14:26:26Z</time>
      </trkpt>
      <trkpt lat="40.70584" lon="-74.0014">
        <ele>7</ele>
        <time>2012-04-09T14:26:28Z</time>
      </trkpt>
      <trkpt lat="40.70585" lon="-74.0014">
        <ele>7</ele>
        <time>2012-04-09T14:26:31Z</time>
      </trkpt>
      <trkpt lat="40.70586" lon="-74.0014">
        <ele>7</ele>
        <time>2012-04-09T14:26:34Z</time>
      </trkpt>
      <trkpt lat="40.70588" lon="-74.00139">
        <ele>8</ele>
        <time>2012-04-09T14:26:37Z</time>
      </trkpt>
      <trkpt lat="40.70589" lon="-74.0014">
        <ele>10</ele>
        <time>2012-04-09T14:26:41Z</time>
      </trkpt>
      <trkpt lat="40.70591" lon="-74.0014">
        <ele>12</ele>
        <time>2012-04-09T14:26:45Z</time>
      </trkpt>
      <trkpt lat="40.70592" lon="-74.00138">
        <ele>13</ele>
        <time>2012-04-09T14:26:53Z</time>
      </trkpt>
      <trkpt lat="40.70592" lon="-74.00137">
        <ele>13</ele>
        <time>2012-04-09T14:26:54Z</time>
      </trkpt>
      <trkpt lat="40.70592" lon="-74.00134">
        <ele>13</ele>
        <time>2012-04-09T14:26:56Z</time>
      </trkpt>
      <trkpt lat="40.70593" lon="-74.00131">
        <ele>13</ele>
        <time>2012-04-09T14:26:57Z</time>
      </trkpt>
      <trkpt lat="40.70593" lon="-74.00129">
        <ele>14</ele>
        <time>2012-04-09T14:26:58Z</time>
      </trkpt>
      <trkpt lat="40.70593" lon="-74.00127">
        <ele>15</ele>
        <time>2012-04-09T14:26:59Z</time>
      </trkpt>
      <trkpt lat="40.70594" lon="-74.00127">
        <ele>18</ele>
        <time>2012-04-09T14:27:03Z</time>
      </trkpt>
      <trkpt lat="40.70596" lon="-74.00126">
        <ele>19</ele>
        <time>2012-04-09T14:27:05Z</time>
      </trkpt>
      <trkpt lat="40.70597" lon="-74.00124">
        <ele>20</ele>
        <time>2012-04-09T14:27:07Z</time>
      </trkpt>
      <trkpt lat="40.70598" lon="-74.00124">
        <ele>21</ele>
        <time>2012-04-09T14:27:09Z</time>
      </trkpt>
      <trkpt lat="40.706" lon="-74.00124">
        <ele>23</ele>
        <time>2012-04-09T14:27:12Z</time>
      </trkpt>
      <trkpt lat="40.70601" lon="-74.00125">
        <ele>23</ele>
        <time>2012-04-09T14:27:16Z</time>
      </trkpt>
      <trkpt lat="40.70602" lon="-74.00127">
        <ele>23</ele>
        <time>2012-04-09T14:27:23Z</time>
      </trkpt>
      <trkpt lat="40.70603" lon="-74.00126">
        <ele>23</ele>
        <time>2012-04-09T14:27:26Z</time>
      </trkpt>
      <trkpt lat="40.70604" lon="-74.00126">
        <ele>23</ele>
        <time>2012-04-09T14:27:28Z</time>
      </trkpt>
      <trkpt lat="40.70606" lon="-74.00125">
        <ele>23</ele>
        <time>2012-04-09T14:27:30Z</time>
      </trkpt>
      <trkpt lat="40.70608" lon="-74.00127">
        <ele>25</ele>
        <time>2012-04-09T14:27:32Z</time>
      </trkpt>
      <trkpt lat="40.70609" lon="-74.00125">
        <ele>26</ele>
        <time>2012-04-09T14:27:34Z</time>
      </trkpt>
      <trkpt lat="40.70608" lon="-74.00124">
        <ele>27</ele>
        <time>2012-04-09T14:27:36Z</time>
      </trkpt>
      <trkpt lat="40.70606" lon="-74.00121">
        <ele>28</ele>
        <time>2012-04-09T14:27:38Z</time>
      </trkpt>
      <trkpt lat="40.70606" lon="-74.0012">
        <ele>31</ele>
        <time>2012-04-09T14:27:41Z</time>
      </trkpt>
      <trkpt lat="40.70606" lon="-74.00118">
        <ele>33</ele>
        <time>2012-04-09T14:27:47Z</time>
      </trkpt>
      <trkpt lat="40.70606" lon="-74.00117">
        <ele>33</ele>
        <time>2012-04-09T14:27:51Z</time>
      </trkpt>
      <trkpt lat="40.70606" lon="-74.00115">
        <ele>33</ele>
        <time>2012-04-09T14:27:58Z</time>
      </trkpt>
      <trkpt lat="40.70605" lon="-74.00113">
        <ele>35</ele>
        <time>2012-04-09T14:28:01Z</time>
      </trkpt>
      <trkpt lat="40.70605" lon="-74.00114">
        <ele>36</ele>
        <time>2012-04-09T14:28:05Z</time>
      </trkpt>
      <trkpt lat="40.70606" lon="-74.00116">
        <ele>36</ele>
        <time>2012-04-09T14:28:08Z</time>
      </trkpt>
      <trkpt lat="40.70607" lon="-74.00117">
        <ele>36</ele>
        <time>2012-04-09T14:28:16Z</time>
      </trkpt>
      <trkpt lat="40.70609" lon="-74.00117">
        <ele>37</ele>
        <time>2012-04-09T14:28:19Z</time>
      </trkpt>
      <trkpt lat="40.70609" lon="-74.00119">
        <ele>37</ele>
        <time>2012-04-09T14:28:26Z</time>
      </trkpt>
      <trkpt lat="40.7061" lon="-74.00121">
        <ele>37</ele>
        <time>2012-04-09T14:28:28Z</time>
      </trkpt>
      <trkpt lat="40.70611" lon="-74.00124">
        <ele>37</ele>
        <time>2012-04-09T14:28:30Z</time>
      </trkpt>
      <trkpt lat="40.70612" lon="-74.00127">
        <ele>37</ele>
        <time>2012-04-09T14:28:31Z</time>
      </trkpt>
      <trkpt lat="40.70612" lon="-74.00129">
        <ele>37</ele>
        <time>2012-04-09T14:28:32Z</time>
      </trkpt>
      <trkpt lat="40.70613" lon="-74.00131">
        <ele>37</ele>
        <time>2012-04-09T14:28:34Z</time>
      </trkpt>
      <trkpt lat="40.70614" lon="-74.00133">
        <ele>36</ele>
        <time>2012-04-09T14:28:35Z</time>
      </trkpt>
      <trkpt lat="40.70615" lon="-74.00134">
        <ele>35</ele>
        <time>2012-04-09T14:28:36Z</time>
      </trkpt>
      <trkpt lat="40.70615" lon="-74.00137">
        <ele>34</ele>
        <time>2012-04-09T14:28:37Z</time>
      </trkpt>
      <trkpt lat="40.70616" lon="-74.00139">
        <ele>34</ele>
        <time>2012-04-09T14:28:38Z</time>
      </trkpt>
      <trkpt lat="40.70617" lon="-74.0014">
        <ele>33</ele>
        <time>2012-04-09T14:28:39Z</time>
      </trkpt>
      <trkpt lat="40.70617" lon="-74.00143">
        <ele>32</ele>
        <time>2012-04-09T14:28:41Z</time>
      </trkpt>
      <trkpt lat="40.70618" lon="-74.00145">
        <ele>32</ele>
        <time>2012-04-09T14:28:43Z</time>
      </trkpt>
      <trkpt lat="40.70618" lon="-74.00146">
        <ele>31</ele>
        <time>2012-04-09T14:28:45Z</time>
      </trkpt>
      <trkpt lat="40.70619" lon="-74.00149">
        <ele>31</ele>
        <time>2012-04-09T14:28:47Z</time>
      </trkpt>
      <trkpt lat="40.70621" lon="-74.0015">
        <ele>30</ele>
        <time>2012-04-09T14:28:49Z</time>
      </trkpt>
      <trkpt lat="40.70622" lon="-74.00152">
        <ele>30</ele>
        <time>2012-04-09T14:28:51Z</time>
      </trkpt>
      <trkpt lat="40.70623" lon="-74.00153">
        <ele>29</ele>
        <time>2012-04-09T14:28:54Z</time>
      </trkpt>
      <trkpt lat="40.70624" lon="-74.00154">
        <ele>29</ele>
        <time>2012-04-09T14:28:56Z</time>
      </trkpt>
      <trkpt lat="40.70625" lon="-74.00156">
        <ele>28</ele>
        <time>2012-04-09T14:28:58Z</time>
      </trkpt>
      <trkpt lat="40.70626" lon="-74.00156">
        <ele>28</ele>
        <time>2012-04-09T14:29:01Z</time>
      </trkpt>
      <trkpt lat="40.70626" lon="-74.00159">
        <ele>28</ele>
        <time>2012-04-09T14:29:04Z</time>
      </trkpt>
      <trkpt lat="40.70626" lon="-74.00161">
        <ele>28</ele>
        <time>2012-04-09T14:29:05Z</time>
      </trkpt>
      <trkpt lat="40.70627" lon="-74.00163">
        <ele>28</ele>
        <time>2012-04-09T14:29:07Z</time>
      </trkpt>
      <trkpt lat="40.70627" lon="-74.00165">
        <ele>28</ele>
        <time>2012-04-09T14:29:08Z</time>
      </trkpt>
      <trkpt lat="40.70628" lon="-74.00166">
        <ele>28</ele>
        <time>2012-04-09T14:29:09Z</time>
      </trkpt>
      <trkpt lat="40.70628" lon="-74.00168">
        <ele>28</ele>
        <time>2012-04-09T14:29:10Z</time>
      </trkpt>
      <trkpt lat="40.70628" lon="-74.00169">
        <ele>28</ele>
        <time>2012-04-09T14:29:11Z</time>
      </trkpt>
      <trkpt lat="40.70629" lon="-74.00172">
        <ele>29</ele>
        <time>2012-04-09T14:29:13Z</time>
      </trkpt>
      <trkpt lat="40.7063" lon="-74.00174">
        <ele>29</ele>
        <time>2012-04-09T14:29:14Z</time>
      </trkpt>
      <trkpt lat="40.7063" lon="-74.00176">
        <ele>29</ele>
        <time>2012-04-09T14:29:15Z</time>
      </trkpt>
      <trkpt lat="40.7063" lon="-74.00179">
        <ele>29</ele>
        <time>2012-04-09T14:29:16Z</time>
      </trkpt>
      <trkpt lat="40.7063" lon="-74.0018">
        <ele>29</ele>
        <time>2012-04-09T14:29:17Z</time>
      </trkpt>
      <trkpt lat="40.70631" lon="-74.00182">
        <ele>29</ele>
        <time>2012-04-09T14:29:18Z</time>
      </trkpt>
      <trkpt lat="40.70631" lon="-74.00184">
        <ele>29</ele>
        <time>2012-04-09T14:29:19Z</time>
      </trkpt>
      <trkpt lat="40.70632" lon="-74.00185">
        <ele>29</ele>
        <time>2012-04-09T14:29:20Z</time>
      </trkpt>
      <trkpt lat="40.70633" lon="-74.00187">
        <ele>29</ele>
        <time>2012-04-09T14:29:22Z</time>
      </trkpt>
      <trkpt lat="40.70635" lon="-74.00188">
        <ele>29</ele>
        <time>2012-04-09T14:29:24Z</time>
      </trkpt>
      <trkpt lat="40.70637" lon="-74.00189">
        <ele>29</ele>
        <time>2012-04-09T14:29:26Z</time>
      </trkpt>
      <trkpt lat="40.70639" lon="-74.00189">
        <ele>29</ele>
        <time>2012-04-09T14:29:27Z</time>
      </trkpt>
      <trkpt lat="40.7064" lon="-74.0019">
        <ele>29</ele>
        <time>2012-04-09T14:29:28Z</time>
      </trkpt>
      <trkpt lat="40.70641" lon="-74.00191">
        <ele>29</ele>
        <time>2012-04-09T14:29:29Z</time>
      </trkpt>
      <trkpt lat="40.70642" lon="-74.00191">
        <ele>29</ele>
        <time>2012-04-09T14:29:30Z</time>
      </trkpt>
      <trkpt lat="40.70644" lon="-74.00192">
        <ele>29</ele>
        <time>2012-04-09T14:29:31Z</time>
      </trkpt>
      <trkpt lat="40.70645" lon="-74.00193">
        <ele>29</ele>
        <time>2012-04-09T14:29:32Z</time>
      </trkpt>
      <trkpt lat="40.70647" lon="-74.00195">
        <ele>29</ele>
        <time>2012-04-09T14:29:34Z</time>
      </trkpt>
      <trkpt lat="40.70648" lon="-74.00196">
        <ele>29</ele>
        <time>2012-04-09T14:29:35Z</time>
      </trkpt>
      <trkpt lat="40.70649" lon="-74.00196">
        <ele>29</ele>
        <time>2012-04-09T14:29:36Z</time>
      </trkpt>
      <trkpt lat="40.70651" lon="-74.00198">
        <ele>29</ele>
        <time>2012-04-09T14:29:38Z</time>
      </trkpt>
      <trkpt lat="40.70653" lon="-74.00201">
        <ele>29</ele>
        <time>2012-04-09T14:29:40Z</time>
      </trkpt>
      <trkpt lat="40.70654" lon="-74.00202">
        <ele>28</ele>
        <time>2012-04-09T14:29:42Z</time>
      </trkpt>
      <trkpt lat="40.70652" lon="-74.00202">
        <ele>27</ele>
        <time>2012-04-09T14:29:45Z</time>
      </trkpt>
      <trkpt lat="40.7065" lon="-74.00201">
        <ele>27</ele>
        <time>2012-04-09T14:29:47Z</time>
      </trkpt>
      <trkpt lat="40.70649" lon="-74.002">
        <ele>27</ele>
        <time>2012-04-09T14:29:49Z</time>
      </trkpt>
      <trkpt lat="40.70648" lon="-74.00199">
        <ele>27</ele>
        <time>2012-04-09T14:29:51Z</time>
      </trkpt>
      <trkpt lat="40.70649" lon="-74.002">
        <ele>30</ele>
        <time>2012-04-09T14:29:54Z</time>
      </trkpt>
      <trkpt lat="40.70653" lon="-74.00204">
        <ele>36</ele>
        <time>2012-04-09T14:30:02Z</time>
      </trkpt>
      <trkpt lat="40.70654" lon="-74.00205">
        <ele>37</ele>
        <time>2012-04-09T14:30:03Z</time>
      </trkpt>
      <trkpt lat="40.70657" lon="-74.00206">
        <ele>38</ele>
        <time>2012-04-09T14:30:04Z</time>
      </trkpt>
      <trkpt lat="40.70658" lon="-74.00208">
        <ele>39</ele>
        <time>2012-04-09T14:30:05Z</time>
      </trkpt>
      <trkpt lat="40.70659" lon="-74.00213">
        <ele>39</ele>
        <time>2012-04-09T14:30:07Z</time>
      </trkpt>
      <trkpt lat="40.7066" lon="-74.00215">
        <ele>39</ele>
        <time>2012-04-09T14:30:08Z</time>
      </trkpt>
      <trkpt lat="40.70661" lon="-74.00219">
        <ele>39</ele>
        <time>2012-04-09T14:30:09Z</time>
      </trkpt>
      <trkpt lat="40.70661" lon="-74.00222">
        <ele>39</ele>
        <time>2012-04-09T14:30:12Z</time>
      </trkpt>
      <trkpt lat="40.70662" lon="-74.00224">
        <ele>39</ele>
        <time>2012-04-09T14:30:13Z</time>
      </trkpt>
      <trkpt lat="40.70661" lon="-74.00227">
        <ele>39</ele>
        <time>2012-04-09T14:30:15Z</time>
      </trkpt>
      <trkpt lat="40.70662" lon="-74.0023">
        <ele>39</ele>
        <time>2012-04-09T14:30:19Z</time>
      </trkpt>
      <trkpt lat="40.70664" lon="-74.00233">
        <ele>39</ele>
        <time>2012-04-09T14:30:20Z</time>
      </trkpt>
      <trkpt lat="40.70664" lon="-74.00237">
        <ele>39</ele>
        <time>2012-04-09T14:30:21Z</time>
      </trkpt>
      <trkpt lat="40.70663" lon="-74.00239">
        <ele>39</ele>
        <time>2012-04-09T14:30:22Z</time>
      </trkpt>
      <trkpt lat="40.70661" lon="-74.00244">
        <ele>39</ele>
        <time>2012-04-09T14:30:27Z</time>
      </trkpt>
      <trkpt lat="40.70658" lon="-74.00246">
        <ele>39</ele>
        <time>2012-04-09T14:30:28Z</time>
      </trkpt>
      <trkpt lat="40.70656" lon="-74.00246">
        <ele>39</ele>
        <time>2012-04-09T14:30:29Z</time>
      </trkpt>
      <trkpt lat="40.70654" lon="-74.00246">
        <ele>39</ele>
        <time>2012-04-09T14:30:30Z</time>
      </trkpt>
      <trkpt lat="40.70652" lon="-74.00247">
        <ele>39</ele>
        <time>2012-04-09T14:30:33Z</time>
      </trkpt>
      <trkpt lat="40.70652" lon="-74.00249">
        <ele>38</ele>
        <time>2012-04-09T14:30:34Z</time>
      </trkpt>
      <trkpt lat="40.70651" lon="-74.00251">
        <ele>38</ele>
        <time>2012-04-09T14:30:35Z</time>
      </trkpt>
      <trkpt lat="40.7065" lon="-74.00253">
        <ele>37</ele>
        <time>2012-04-09T14:30:37Z</time>
      </trkpt>
      <trkpt lat="40.70649" lon="-74.00256">
        <ele>35</ele>
        <time>2012-04-09T14:30:40Z</time>
      </trkpt>
      <trkpt lat="40.70648" lon="-74.00259">
        <ele>34</ele>
        <time>2012-04-09T14:30:41Z</time>
      </trkpt>
      <trkpt lat="40.70647" lon="-74.00259">
        <ele>33</ele>
        <time>2012-04-09T14:30:42Z</time>
      </trkpt>
      <trkpt lat="40.70645" lon="-74.00259">
        <ele>31</ele>
        <time>2012-04-09T14:30:44Z</time>
      </trkpt>
      <trkpt lat="40.70643" lon="-74.00259">
        <ele>29</ele>
        <time>2012-04-09T14:30:46Z</time>
      </trkpt>
      <trkpt lat="40.70644" lon="-74.00256">
        <ele>27</ele>
        <time>2012-04-09T14:30:48Z</time>
      </trkpt>
      <trkpt lat="40.70644" lon="-74.00255">
        <ele>27</ele>
        <time>2012-04-09T14:30:49Z</time>
      </trkpt>
      <trkpt lat="40.70643" lon="-74.00253">
        <ele>27</ele>
        <time>2012-04-09T14:30:51Z</time>
      </trkpt>
      <trkpt lat="40.70642" lon="-74.00252">
        <ele>27</ele>
        <time>2012-04-09T14:30:53Z</time>
      </trkpt>
      <trkpt lat="40.7064" lon="-74.00253">
        <ele>28</ele>
        <time>2012-04-09T14:30:56Z</time>
      </trkpt>
      <trkpt lat="40.7064" lon="-74.00255">
        <ele>29</ele>
        <time>2012-04-09T14:30:57Z</time>
      </trkpt>
      <trkpt lat="40.70639" lon="-74.00257">
        <ele>31</ele>
        <time>2012-04-09T14:30:59Z</time>
      </trkpt>
      <trkpt lat="40.70639" lon="-74.00258">
        <ele>32</ele>
        <time>2012-04-09T14:31:00Z</time>
      </trkpt>
      <trkpt lat="40.70638" lon="-74.0026">
        <ele>36</ele>
        <time>2012-04-09T14:31:04Z</time>
      </trkpt>
      <trkpt lat="40.70638" lon="-74.00262">
        <ele>37</ele>
        <time>2012-04-09T14:31:05Z</time>
      </trkpt>
      <trkpt lat="40.70636" lon="-74.00264">
        <ele>40</ele>
        <time>2012-04-09T14:31:08Z</time>
      </trkpt>
      <trkpt lat="40.70635" lon="-74.00264">
        <ele>42</ele>
        <time>2012-04-09T14:31:10Z</time>
      </trkpt>
      <trkpt lat="40.70635" lon="-74.00262">
        <ele>43</ele>
        <time>2012-04-09T14:31:11Z</time>
      </trkpt>
      <trkpt lat="40.70632" lon="-74.00261">
        <ele>46</ele>
        <time>2012-04-09T14:31:14Z</time>
      </trkpt>
      <trkpt lat="40.70631" lon="-74.00262">
        <ele>46</ele>
        <time>2012-04-09T14:31:16Z</time>
      </trkpt>
      <trkpt lat="40.70629" lon="-74.00262">
        <ele>46</ele>
        <time>2012-04-09T14:31:18Z</time>
      </trkpt>
      <trkpt lat="40.70627" lon="-74.00262">
        <ele>46</ele>
        <time>2012-04-09T14:31:21Z</time>
      </trkpt>
      <trkpt lat="40.70626" lon="-74.00262">
        <ele>46</ele>
        <time>2012-04-09T14:31:22Z</time>
      </trkpt>
      <trkpt lat="40.70625" lon="-74.00263">
        <ele>46</ele>
        <time>2012-04-09T14:31:23Z</time>
      </trkpt>
      <trkpt lat="40.70623" lon="-74.00263">
        <ele>46</ele>
        <time>2012-04-09T14:31:24Z</time>
      </trkpt>
      <trkpt lat="40.70621" lon="-74.00263">
        <ele>46</ele>
        <time>2012-04-09T14:31:25Z</time>
      </trkpt>
      <trkpt lat="40.7062" lon="-74.00263">
        <ele>46</ele>
        <time>2012-04-09T14:31:26Z</time>
      </trkpt>
      <trkpt lat="40.70618" lon="-74.00264">
        <ele>46</ele>
        <time>2012-04-09T14:31:27Z</time>
      </trkpt>
      <trkpt lat="40.70617" lon="-74.00265">
        <ele>45</ele>
        <time>2012-04-09T14:31:28Z</time>
      </trkpt>
      <trkpt lat="40.70615" lon="-74.00264">
        <ele>44</ele>
        <time>2012-04-09T14:31:29Z</time>
      </trkpt>
      <trkpt lat="40.70614" lon="-74.00264">
        <ele>43</ele>
        <time>2012-04-09T14:31:30Z</time>
      </trkpt>
      <trkpt lat="40.70612" lon="-74.00264">
        <ele>42</ele>
        <time>2012-04-09T14:31:31Z</time>
      </trkpt>
      <trkpt lat="40.7061" lon="-74.00265">
        <ele>41</ele>
        <time>2012-04-09T14:31:32Z</time>
      </trkpt>
      <trkpt lat="40.70609" lon="-74.00263">
        <ele>39</ele>
        <time>2012-04-09T14:31:34Z</time>
      </trkpt>
      <trkpt lat="40.70609" lon="-74.00262">
        <ele>38</ele>
        <time>2012-04-09T14:31:35Z</time>
      </trkpt>
      <trkpt lat="40.70607" lon="-74.00262">
        <ele>35</ele>
        <time>2012-04-09T14:31:38Z</time>
      </trkpt>
      <trkpt lat="40.70607" lon="-74.00264">
        <ele>34</ele>
        <time>2012-04-09T14:31:39Z</time>
      </trkpt>
      <trkpt lat="40.70607" lon="-74.00266">
        <ele>34</ele>
        <time>2012-04-09T14:31:40Z</time>
      </trkpt>
      <trkpt lat="40.70607" lon="-74.00269">
        <ele>34</ele>
        <time>2012-04-09T14:31:42Z</time>
      </trkpt>
      <trkpt lat="40.70605" lon="-74.00269">
        <ele>34</ele>
        <time>2012-04-09T14:31:44Z</time>
      </trkpt>
      <trkpt lat="40.70604" lon="-74.0027">
        <ele>34</ele>
        <time>2012-04-09T14:31:46Z</time>
      </trkpt>
      <trkpt lat="40.70602" lon="-74.0027">
        <ele>34</ele>
        <time>2012-04-09T14:31:47Z</time>
      </trkpt>
      <trkpt lat="40.70601" lon="-74.0027">
        <ele>34</ele>
        <time>2012-04-09T14:31:48Z</time>
      </trkpt>
      <trkpt lat="40.70599" lon="-74.00271">
        <ele>34</ele>
        <time>2012-04-09T14:31:50Z</time>
      </trkpt>
      <trkpt lat="40.70598" lon="-74.00271">
        <ele>34</ele>
        <time>2012-04-09T14:31:51Z</time>
      </trkpt>
      <trkpt lat="40.70596" lon="-74.00271">
        <ele>34</ele>
        <time>2012-04-09T14:31:53Z</time>
      </trkpt>
      <trkpt lat="40.70595" lon="-74.00272">
        <ele>34</ele>
        <time>2012-04-09T14:31:54Z</time>
      </trkpt>
      <trkpt lat="40.70593" lon="-74.00272">
        <ele>34</ele>
        <time>2012-04-09T14:31:55Z</time>
      </trkpt>
      <trkpt lat="40.70592" lon="-74.00273">
        <ele>34</ele>
        <time>2012-04-09T14:31:56Z</time>
      </trkpt>
      <trkpt lat="40.70591" lon="-74.00274">
        <ele>34</ele>
        <time>2012-04-09T14:31:57Z</time>
      </trkpt>
      <trkpt lat="40.70589" lon="-74.00274">
        <ele>34</ele>
        <time>2012-04-09T14:31:58Z</time>
      </trkpt>
      <trkpt lat="40.70588" lon="-74.00275">
        <ele>34</ele>
        <time>2012-04-09T14:32:00Z</time>
      </trkpt>
      <trkpt lat="40.70585" lon="-74.00275">
        <ele>34</ele>
        <time>2012-04-09T14:32:02Z</time>
      </trkpt>
      <trkpt lat="40.70584" lon="-74.00275">
        <ele>34</ele>
        <time>2012-04-09T14:32:03Z</time>
      </trkpt>
      <trkpt lat="40.70583" lon="-74.00275">
        <ele>34</ele>
        <time>2012-04-09T14:32:04Z</time>
      </trkpt>
      <trkpt lat="40.70582" lon="-74.00275">
        <ele>34</ele>
        <time>2012-04-09T14:32:05Z</time>
      </trkpt>
      <trkpt lat="40.70581" lon="-74.00274">
        <ele>34</ele>
        <time>2012-04-09T14:32:06Z</time>
      </trkpt>
      <trkpt lat="40.70579" lon="-74.00274">
        <ele>34</ele>
        <time>2012-04-09T14:32:07Z</time>
      </trkpt>
      <trkpt lat="40.70578" lon="-74.00274">
        <ele>34</ele>
        <time>2012-04-09T14:32:08Z</time>
      </trkpt>
      <trkpt lat="40.70577" lon="-74.00273">
        <ele>34</ele>
        <time>2012-04-09T14:32:09Z</time>
      </trkpt>
      <trkpt lat="40.70576" lon="-74.00273">
        <ele>34</ele>
        <time>2012-04-09T14:32:10Z</time>
      </trkpt>
      <trkpt lat="40.70574" lon="-74.00273">
        <ele>35</ele>
        <time>2012-04-09T14:32:12Z</time>
      </trkpt>
      <trkpt lat="40.70572" lon="-74.00272">
        <ele>36</ele>
        <time>2012-04-09T14:32:14Z</time>
      </trkpt>
      <trkpt lat="40.70571" lon="-74.00271">
        <ele>37</ele>
        <time>2012-04-09T14:32:16Z</time>
      </trkpt>
      <trkpt lat="40.70569" lon="-74.00269">
        <ele>38</ele>
        <time>2012-04-09T14:32:18Z</time>
      </trkpt>
      <trkpt lat="40.70568" lon="-74.00266">
        <ele>39</ele>
        <time>2012-04-09T14:32:20Z</time>
      </trkpt>
      <trkpt lat="40.70567" lon="-74.00264">
        <ele>40</ele>
        <time>2012-04-09T14:32:22Z</time>
      </trkpt>
      <trkpt lat="40.70567" lon="-74.00262">
        <ele>40</ele>
        <time>2012-04-09T14:32:23Z</time>
      </trkpt>
      <trkpt lat="40.70566" lon="-74.00259">
        <ele>40</ele>
        <time>2012-04-09T14:32:25Z</time>
      </trkpt>
      <trkpt lat="40.70566" lon="-74.00259">
        <ele>40</ele>
        <time>2012-04-09T14:32:26Z</time>
      </trkpt>
      <trkpt lat="40.70565" lon="-74.00256">
        <ele>40</ele>
        <time>2012-04-09T14:32:28Z</time>
      </trkpt>
      <trkpt lat="40.70564" lon="-74.00254">
        <ele>40</ele>
        <time>2012-04-09T14:32:30Z</time>
      </trkpt>
      <trkpt lat="40.70563" lon="-74.00252">
        <ele>40</ele>
        <time>2012-04-09T14:32:32Z</time>
      </trkpt>
      <trkpt lat="40.70561" lon="-74.00249">
        <ele>40</ele>
        <time>2012-04-09T14:32:34Z</time>
      </trkpt>
      <trkpt lat="40.7056" lon="-74.00248">
        <ele>40</ele>
        <time>2012-04-09T14:32:36Z</time>
      </trkpt>
      <trkpt lat="40.70558" lon="-74.00246">
        <ele>40</ele>
        <time>2012-04-09T14:32:38Z</time>
      </trkpt>
      <trkpt lat="40.70557" lon="-74.00245">
        <ele>40</ele>
        <time>2012-04-09T14:32:40Z</time>
      </trkpt>
      <trkpt lat="40.70555" lon="-74.00243">
        <ele>40</ele>
        <time>2012-04-09T14:32:42Z</time>
      </trkpt>
      <trkpt lat="40.70554" lon="-74.00241">
        <ele>40</ele>
        <time>2012-04-09T14:32:44Z</time>
      </trkpt>
      <trkpt lat="40.70553" lon="-74.00239">
        <ele>40</ele>
        <time>2012-04-09T14:32:46Z</time>
      </trkpt>
      <trkpt lat="40.70552" lon="-74.00237">
        <ele>40</ele>
        <time>2012-04-09T14:32:48Z</time>
      </trkpt>
      <trkpt lat="40.70552" lon="-74.00233">
        <ele>40</ele>
        <time>2012-04-09T14:32:50Z</time>
      </trkpt>
      <trkpt lat="40.70552" lon="-74.00231">
        <ele>40</ele>
        <time>2012-04-09T14:32:52Z</time>
      </trkpt>
      <trkpt lat="40.70552" lon="-74.0023">
        <ele>40</ele>
        <time>2012-04-09T14:32:54Z</time>
      </trkpt>
      <trkpt lat="40.70551" lon="-74.00227">
        <ele>40</ele>
        <time>2012-04-09T14:33:03Z</time>
      </trkpt>
      <trkpt lat="40.70551" lon="-74.00226">
        <ele>40</ele>
        <time>2012-04-09T14:33:05Z</time>
      </trkpt>
      <trkpt lat="40.70552" lon="-74.00224">
        <ele>40</ele>
        <time>2012-04-09T14:33:07Z</time>
      </trkpt>
      <trkpt lat="40.70553" lon="-74.0022">
        <ele>40</ele>
        <time>2012-04-09T14:33:09Z</time>
      </trkpt>
      <trkpt lat="40.70553" lon="-74.00219">
        <ele>40</ele>
        <time>2012-04-09T14:33:12Z</time>
      </trkpt>
      <trkpt lat="40.70552" lon="-74.0022">
        <ele>40</ele>
        <time>2012-04-09T14:33:16Z</time>
      </trkpt>
      <trkpt lat="40.70547" lon="-74.00223">
        <ele>40</ele>
        <time>2012-04-09T14:33:18Z</time>
      </trkpt>
      <trkpt lat="40.70545" lon="-74.00224">
        <ele>42</ele>
        <time>2012-04-09T14:33:21Z</time>
      </trkpt>
      <trkpt lat="40.70545" lon="-74.00223">
        <ele>46</ele>
        <time>2012-04-09T14:33:25Z</time>
      </trkpt>
      <trkpt lat="40.70546" lon="-74.00221">
        <ele>46</ele>
        <time>2012-04-09T14:33:29Z</time>
      </trkpt>
      <trkpt lat="40.70545" lon="-74.0022">
        <ele>46</ele>
        <time>2012-04-09T14:33:31Z</time>
      </trkpt>
      <trkpt lat="40.70544" lon="-74.00219">
        <ele>46</ele>
        <time>2012-04-09T14:33:33Z</time>
      </trkpt>
      <trkpt lat="40.70543" lon="-74.00219">
        <ele>46</ele>
        <time>2012-04-09T14:33:43Z</time>
      </trkpt>
      <trkpt lat="40.70541" lon="-74.00219">
        <ele>46</ele>
        <time>2012-04-09T14:33:45Z</time>
      </trkpt>
      <trkpt lat="40.7054" lon="-74.00218">
        <ele>46</ele>
        <time>2012-04-09T14:33:48Z</time>
      </trkpt>
      <trkpt lat="40.70539" lon="-74.00217">
        <ele>46</ele>
        <time>2012-04-09T14:33:50Z</time>
      </trkpt>
      <trkpt lat="40.70538" lon="-74.00217">
        <ele>46</ele>
        <time>2012-04-09T14:33:51Z</time>
      </trkpt>
      <trkpt lat="40.70536" lon="-74.00215">
        <ele>46</ele>
        <time>2012-04-09T14:33:54Z</time>
      </trkpt>
      <trkpt lat="40.70536" lon="-74.00217">
        <ele>46</ele>
        <time>2012-04-09T14:34:10Z</time>
      </trkpt>
      <trkpt lat="40.70536" lon="-74.00218">
        <ele>43</ele>
        <time>2012-04-09T14:34:13Z</time>
      </trkpt>
      <trkpt lat="40.70536" lon="-74.0022">
        <ele>39</ele>
        <time>2012-04-09T14:34:17Z</time>
      </trkpt>
      <trkpt lat="40.70536" lon="-74.00221">
        <ele>34</ele>
        <time>2012-04-09T14:34:21Z</time>
      </trkpt>
      <trkpt lat="40.70536" lon="-74.00223">
        <ele>27</ele>
        <time>2012-04-09T14:34:25Z</time>
      </trkpt>
      <trkpt lat="40.70537" lon="-74.00224">
        <ele>19</ele>
        <time>2012-04-09T14:34:30Z</time>
      </trkpt>
      <trkpt lat="40.70538" lon="-74.00226">
        <ele>6</ele>
        <time>2012-04-09T14:34:41Z</time>
      </trkpt>
      <trkpt lat="40.70539" lon="-74.00227">
        <time>2012-04-09T14:34:59Z</time>
      </trkpt>
      <trkpt lat="40.70538" lon="-74.0023">
        <ele>-4</ele>
        <time>2012-04-09T14:35:09Z</time>
      </trkpt>
      <trkpt lat="40.70538" lon="-74.00231">
        <ele>-4</ele>
        <time>2012-04-09T14:35:11Z</time>
      </trkpt>
      <trkpt lat="40.70537" lon="-74.00233">
        <ele>-9</ele>
        <time>2012-04-09T14:35:14Z</time>
      </trkpt>
      <trkpt lat="40.70537" lon="-74.00235">
        <ele>-12</ele>
        <time>2012-04-09T14:35:16Z</time>
      </trkpt>
      <trkpt lat="40.70536" lon="-74.00237">
        <ele>-18</ele>
        <time>2012-04-09T14:35:21Z</time>
      </trkpt>
      <trkpt lat="40.70537" lon="-74.0024">
        <ele>-20</ele>
        <time>2012-04-09T14:35:23Z</time>
      </trkpt>
      <trkpt lat="40.70536" lon="-74.00242">
        <ele>-21</ele>
        <time>2012-04-09T14:35:24Z</time>
      </trkpt>
      <trkpt lat="40.70536" lon="-74.00243">
        <ele>-24</ele>
        <time>2012-04-09T14:35:26Z</time>
      </trkpt>
      <trkpt lat="40.70535" lon="-74.00246">
        <ele>-25</ele>
        <time>2012-04-09T14:35:27Z</time>
      </trkpt>
      <trkpt lat="40.70533" lon="-74.00248">
        <ele>-27</ele>
        <time>2012-04-09T14:35:29Z</time>
      </trkpt>
      <trkpt lat="40.70532" lon="-74.0025">
        <ele>-34</ele>
        <time>2012-04-09T14:35:34Z</time>
      </trkpt>
      <trkpt lat="40.70533" lon="-74.00249">
        <ele>-37</ele>
        <time>2012-04-09T14:35:36Z</time>
      </trkpt>
      <trkpt lat="40.70534" lon="-74.00246">
        <ele>-38</ele>
        <time>2012-04-09T14:35:37Z</time>
      </trkpt>
      <trkpt lat="40.70535" lon="-74.00243">
        <ele>-39</ele>
        <time>2012-04-09T14:35:38Z</time>
      </trkpt>
      <trkpt lat="40.70536" lon="-74.00242">
        <ele>-39</ele>
        <time>2012-04-09T14:35:39Z</time>
      </trkpt>
      <trkpt lat="40.70537" lon="-74.0024">
        <ele>-38</ele>
        <time>2012-04-09T14:35:41Z</time>
      </trkpt>
      <trkpt lat="40.70538" lon="-74.0024">
        <ele>-37</ele>
        <time>2012-04-09T14:35:42Z</time>
      </trkpt>
      <trkpt lat="40.70539" lon="-74.00239">
        <ele>-36</ele>
        <time>2012-04-09T14:35:43Z</time>
      </trkpt>
      <trkpt lat="40.70541" lon="-74.00238">
        <ele>-31</ele>
        <time>2012-04-09T14:35:45Z</time>
      </trkpt>
      <trkpt lat="40.70542" lon="-74.00239">
        <ele>-26</ele>
        <time>2012-04-09T14:35:47Z</time>
      </trkpt>
      <trkpt lat="40.70544" lon="-74.0024">
        <ele>-18</ele>
        <time>2012-04-09T14:35:50Z</time>
      </trkpt>
      <trkpt lat="40.70545" lon="-74.00242">
        <ele>-13</ele>
        <time>2012-04-09T14:35:52Z</time>
      </trkpt>
      <trkpt lat="40.70546" lon="-74.00243">
        <ele>-8</ele>
        <time>2012-04-09T14:35:54Z</time>
      </trkpt>
      <trkpt lat="40.70548" lon="-74.00245">
        <ele>-3</ele>
        <time>2012-04-09T14:35:56Z</time>
      </trkpt>
      <trkpt lat="40.70549" lon="-74.00246">
        <time>2012-04-09T14:35:58Z</time>
      </trkpt>
      <trkpt lat="40.70551" lon="-74.00249">
        <ele>2</ele>
        <time>2012-04-09T14:36:00Z</time>
      </trkpt>
      <trkpt lat="40.70552" lon="-74.00252">
        <ele>4</ele>
        <time>2012-04-09T14:36:02Z</time>
      </trkpt>
      <trkpt lat="40.70554" lon="-74.00254">
        <ele>7</ele>
        <time>2012-04-09T14:36:04Z</time>
      </trkpt>
      <trkpt lat="40.70555" lon="-74.00256">
        <ele>9</ele>
        <time>2012-04-09T14:36:06Z</time>
      </trkpt>
      <trkpt lat="40.70555" lon="-74.00259">
        <ele>11</ele>
        <time>2012-04-09T14:36:08Z</time>
      </trkpt>
      <trkpt lat="40.70555" lon="-74.00261">
        <ele>13</ele>
        <time>2012-04-09T14:36:10Z</time>
      </trkpt>
      <trkpt lat="40.70557" lon="-74.00264">
        <ele>15</ele>
        <time>2012-04-09T14:36:12Z</time>
      </trkpt>
      <trkpt lat="40.70558" lon="-74.00266">
        <ele>17</ele>
        <time>2012-04-09T14:36:14Z</time>
      </trkpt>
      <trkpt lat="40.7056" lon="-74.00268">
        <ele>19</ele>
        <time>2012-04-09T14:36:16Z</time>
      </trkpt>
      <trkpt lat="40.70562" lon="-74.00269">
        <ele>21</ele>
        <time>2012-04-09T14:36:18Z</time>
      </trkpt>
      <trkpt lat="40.70564" lon="-74.00271">
        <ele>22</ele>
        <time>2012-04-09T14:36:20Z</time>
      </trkpt>
      <trkpt lat="40.70566" lon="-74.00273">
        <ele>22</ele>
        <time>2012-04-09T14:36:22Z</time>
      </trkpt>
      <trkpt lat="40.70567" lon="-74.00274">
        <ele>22</ele>
        <time>2012-04-09T14:36:23Z</time>
      </trkpt>
      <trkpt lat="40.7057" lon="-74.00275">
        <ele>22</ele>
        <time>2012-04-09T14:36:25Z</time>
      </trkpt>
      <trkpt lat="40.70572" lon="-74.00277">
        <ele>23</ele>
        <time>2012-04-09T14:36:27Z</time>
      </trkpt>
      <trkpt lat="40.70573" lon="-74.00278">
        <ele>23</ele>
        <time>2012-04-09T14:36:28Z</time>
      </trkpt>
      <trkpt lat="40.70574" lon="-74.00278">
        <ele>23</ele>
        <time>2012-04-09T14:36:29Z</time>
      </trkpt>
      <trkpt lat="40.70575" lon="-74.00279">
        <ele>23</ele>
        <time>2012-04-09T14:36:30Z</time>
      </trkpt>
      <trkpt lat="40.70576" lon="-74.0028">
        <ele>23</ele>
        <time>2012-04-09T14:36:31Z</time>
      </trkpt>
      <trkpt lat="40.70578" lon="-74.00281">
        <ele>23</ele>
        <time>2012-04-09T14:36:32Z</time>
      </trkpt>
      <trkpt lat="40.70579" lon="-74.00282">
        <ele>23</ele>
        <time>2012-04-09T14:36:33Z</time>
      </trkpt>
      <trkpt lat="40.7058" lon="-74.00282">
        <ele>23</ele>
        <time>2012-04-09T14:36:34Z</time>
      </trkpt>
      <trkpt lat="40.70581" lon="-74.00283">
        <ele>23</ele>
        <time>2012-04-09T14:36:35Z</time>
      </trkpt>
      <trkpt lat="40.70582" lon="-74.00284">
        <ele>23</ele>
        <time>2012-04-09T14:36:36Z</time>
      </trkpt>
      <trkpt lat="40.70584" lon="-74.00285">
        <ele>23</ele>
        <time>2012-04-09T14:36:38Z</time>
      </trkpt>
      <trkpt lat="40.70586" lon="-74.00287">
        <ele>23</ele>
        <time>2012-04-09T14:36:40Z</time>
      </trkpt>
      <trkpt lat="40.70589" lon="-74.00288">
        <ele>23</ele>
        <time>2012-04-09T14:36:42Z</time>
      </trkpt>
      <trkpt lat="40.7059" lon="-74.00288">
        <ele>23</ele>
        <time>2012-04-09T14:36:43Z</time>
      </trkpt>
      <trkpt lat="40.70592" lon="-74.0029">
        <ele>23</ele>
        <time>2012-04-09T14:36:45Z</time>
      </trkpt>
      <trkpt lat="40.70594" lon="-74.00291">
        <ele>23</ele>
        <time>2012-04-09T14:36:47Z</time>
      </trkpt>
      <trkpt lat="40.70596" lon="-74.00292">
        <ele>24</ele>
        <time>2012-04-09T14:36:49Z</time>
      </trkpt>
      <trkpt lat="40.70597" lon="-74.00293">
        <ele>26</ele>
        <time>2012-04-09T14:36:51Z</time>
      </trkpt>
      <trkpt lat="40.70599" lon="-74.00293">
        <ele>27</ele>
        <time>2012-04-09T14:36:52Z</time>
      </trkpt>
      <trkpt lat="40.706" lon="-74.00292">
        <ele>29</ele>
        <time>2012-04-09T14:36:54Z</time>
      </trkpt>
      <trkpt lat="40.70599" lon="-74.00291">
        <ele>30</ele>
        <time>2012-04-09T14:36:55Z</time>
      </trkpt>
      <trkpt lat="40.70599" lon="-74.00288">
        <ele>31</ele>
        <time>2012-04-09T14:36:56Z</time>
      </trkpt>
      <trkpt lat="40.706" lon="-74.00287">
        <ele>33</ele>
        <time>2012-04-09T14:36:58Z</time>
      </trkpt>
      <trkpt lat="40.70601" lon="-74.00285">
        <ele>34</ele>
        <time>2012-04-09T14:37:01Z</time>
      </trkpt>
      <trkpt lat="40.70602" lon="-74.00283">
        <ele>33</ele>
        <time>2012-04-09T14:37:02Z</time>
      </trkpt>
      <trkpt lat="40.70603" lon="-74.00283">
        <ele>28</ele>
        <time>2012-04-09T14:37:05Z</time>
      </trkpt>
      <trkpt lat="40.70607" lon="-74.00284">
        <ele>26</ele>
        <time>2012-04-09T14:37:09Z</time>
      </trkpt>
      <trkpt lat="40.70608" lon="-74.00281">
        <ele>22</ele>
        <time>2012-04-09T14:37:11Z</time>
      </trkpt>
      <trkpt lat="40.7061" lon="-74.00282">
        <ele>20</ele>
        <time>2012-04-09T14:37:12Z</time>
      </trkpt>
      <trkpt lat="40.70611" lon="-74.00283">
        <ele>18</ele>
        <time>2012-04-09T14:37:13Z</time>
      </trkpt>
      <trkpt lat="40.70614" lon="-74.00284">
        <ele>17</ele>
        <time>2012-04-09T14:37:14Z</time>
      </trkpt>
      <trkpt lat="40.70616" lon="-74.00285">
        <ele>16</ele>
        <time>2012-04-09T14:37:15Z</time>
      </trkpt>
      <trkpt lat="40.70618" lon="-74.00287">
        <ele>15</ele>
        <time>2012-04-09T14:37:16Z</time>
      </trkpt>
      <trkpt lat="40.70619" lon="-74.00288">
        <ele>15</ele>
        <time>2012-04-09T14:37:17Z</time>
      </trkpt>
      <trkpt lat="40.7062" lon="-74.00291">
        <ele>15</ele>
        <time>2012-04-09T14:37:18Z</time>
      </trkpt>
      <trkpt lat="40.70619" lon="-74.00294">
        <ele>15</ele>
        <time>2012-04-09T14:37:19Z</time>
      </trkpt>
      <trkpt lat="40.70619" lon="-74.00298">
        <ele>14</ele>
        <time>2012-04-09T14:37:20Z</time>
      </trkpt>
      <trkpt lat="40.70619" lon="-74.00299">
        <ele>13</ele>
        <time>2012-04-09T14:37:21Z</time>
      </trkpt>
      <trkpt lat="40.70618" lon="-74.00301">
        <ele>12</ele>
        <time>2012-04-09T14:37:22Z</time>
      </trkpt>
      <trkpt lat="40.70618" lon="-74.00305">
        <ele>11</ele>
        <time>2012-04-09T14:37:23Z</time>
      </trkpt>
      <trkpt lat="40.70619" lon="-74.00305">
        <ele>9</ele>
        <time>2012-04-09T14:37:24Z</time>
      </trkpt>
      <trkpt lat="40.7062" lon="-74.00309">
        <ele>7</ele>
        <time>2012-04-09T14:37:25Z</time>
      </trkpt>
      <trkpt lat="40.7062" lon="-74.00311">
        <ele>5</ele>
        <time>2012-04-09T14:37:26Z</time>
      </trkpt>
      <trkpt lat="40.7062" lon="-74.00313">
        <ele>4</ele>
        <time>2012-04-09T14:37:27Z</time>
      </trkpt>
      <trkpt lat="40.70621" lon="-74.00314">
        <ele>2</ele>
        <time>2012-04-09T14:37:28Z</time>
      </trkpt>
      <trkpt lat="40.70621" lon="-74.00316">
        <ele>1</ele>
        <time>2012-04-09T14:37:29Z</time>
      </trkpt>
      <trkpt lat="40.70621" lon="-74.00318">
        <time>2012-04-09T14:37:31Z</time>
      </trkpt>
      <trkpt lat="40.70623" lon="-74.00319">
        <time>2012-04-09T14:37:32Z</time>
      </trkpt>
      <trkpt lat="40.70627" lon="-74.0032">
        <time>2012-04-09T14:37:33Z</time>
      </trkpt>
      <trkpt lat="40.7063" lon="-74.0032">
        <time>2012-04-09T14:37:34Z</time>
      </trkpt>
      <trkpt lat="40.70632" lon="-74.00321">
        <time>2012-04-09T14:37:35Z</time>
      </trkpt>
      <trkpt lat="40.70633" lon="-74.00322">
        <time>2012-04-09T14:37:36Z</time>
      </trkpt>
      <trkpt lat="40.70635" lon="-74.00322">
        <ele>2</ele>
        <time>2012-04-09T14:37:38Z</time>
      </trkpt>
      <trkpt lat="40.70637" lon="-74.00321">
        <ele>4</ele>
        <time>2012-04-09T14:37:40Z</time>
      </trkpt>
      <trkpt lat="40.70638" lon="-74.00322">
        <ele>7</ele>
        <time>2012-04-09T14:37:42Z</time>
      </trkpt>
      <trkpt lat="40.70638" lon="-74.0032">
        <ele>12</ele>
        <time>2012-04-09T14:37:47Z</time>
      </trkpt>
      <trkpt lat="40.7064" lon="-74.0032">
        <ele>14</ele>
        <time>2012-04-09T14:37:49Z</time>
      </trkpt>
      <trkpt lat="40.70642" lon="-74.0032">
        <ele>16</ele>
        <time>2012-04-09T14:37:51Z</time>
      </trkpt>
      <trkpt lat="40.70644" lon="-74.00321">
        <ele>18</ele>
        <time>2012-04-09T14:37:53Z</time>
      </trkpt>
      <trkpt lat="40.70646" lon="-74.00322">
        <ele>20</ele>
        <time>2012-04-09T14:37:55Z</time>
      </trkpt>
      <trkpt lat="40.70648" lon="-74.00323">
        <ele>21</ele>
        <time>2012-04-09T14:37:57Z</time>
      </trkpt>
      <trkpt lat="40.7065" lon="-74.00324">
        <ele>22</ele>
        <time>2012-04-09T14:37:59Z</time>
      </trkpt>
      <trkpt lat="40.70651" lon="-74.00325">
        <ele>23</ele>
        <time>2012-04-09T14:38:01Z</time>
      </trkpt>
      <trkpt lat="40.70653" lon="-74.00326">
        <ele>37</ele>
        <time>2012-04-09T14:38:08Z</time>
      </trkpt>
      <trkpt lat="40.70654" lon="-74.00326">
        <ele>52</ele>
        <time>2012-04-09T14:38:13Z</time>
      </trkpt>
      <trkpt lat="40.70655" lon="-74.00327">
        <ele>61</ele>
        <time>2012-04-09T14:38:16Z</time>
      </trkpt>
      <trkpt lat="40.70657" lon="-74.00328">
        <ele>70</ele>
        <time>2012-04-09T14:38:19Z</time>
      </trkpt>
      <trkpt lat="40.70658" lon="-74.00329">
        <ele>75</ele>
        <time>2012-04-09T14:38:21Z</time>
      </trkpt>
      <trkpt lat="40.7066" lon="-74.0033">
        <ele>79</ele>
        <time>2012-04-09T14:38:23Z</time>
      </trkpt>
      <trkpt lat="40.70662" lon="-74.00332">
        <ele>83</ele>
        <time>2012-04-09T14:38:25Z</time>
      </trkpt>
      <trkpt lat="40.70663" lon="-74.00333">
        <ele>84</ele>
        <time>2012-04-09T14:38:26Z</time>
      </trkpt>
      <trkpt lat="40.70665" lon="-74.00333">
        <ele>85</ele>
        <time>2012-04-09T14:38:27Z</time>
      </trkpt>
      <trkpt lat="40.70666" lon="-74.00334">
        <ele>86</ele>
        <time>2012-04-09T14:38:28Z</time>
      </trkpt>
      <trkpt lat="40.70668" lon="-74.00336">
        <ele>86</ele>
        <time>2012-04-09T14:38:29Z</time>
      </trkpt>
      <trkpt lat="40.70669" lon="-74.00336">
        <ele>86</ele>
        <time>2012-04-09T14:38:30Z</time>
      </trkpt>
      <trkpt lat="40.70671" lon="-74.00338">
        <ele>86</ele>
        <time>2012-04-09T14:38:31Z</time>
      </trkpt>
      <trkpt lat="40.70672" lon="-74.00339">
        <ele>85</ele>
        <time>2012-04-09T14:38:32Z</time>
      </trkpt>
      <trkpt lat="40.70673" lon="-74.0034">
        <ele>84</ele>
        <time>2012-04-09T14:38:33Z</time>
      </trkpt>
      <trkpt lat="40.70675" lon="-74.00341">
        <ele>83</ele>
        <time>2012-04-09T14:38:34Z</time>
      </trkpt>
      <trkpt lat="40.70676" lon="-74.00342">
        <ele>81</ele>
        <time>2012-04-09T14:38:35Z</time>
      </trkpt>
      <trkpt lat="40.70678" lon="-74.00343">
        <ele>79</ele>
        <time>2012-04-09T14:38:36Z</time>
      </trkpt>
      <trkpt lat="40.70679" lon="-74.00343">
        <ele>77</ele>
        <time>2012-04-09T14:38:37Z</time>
      </trkpt>
      <trkpt lat="40.7068" lon="-74.00345">
        <ele>75</ele>
        <time>2012-04-09T14:38:38Z</time>
      </trkpt>
      <trkpt lat="40.70683" lon="-74.00346">
        <ele>71</ele>
        <time>2012-04-09T14:38:40Z</time>
      </trkpt>
      <trkpt lat="40.70684" lon="-74.00349">
        <ele>69</ele>
        <time>2012-04-09T14:38:42Z</time>
      </trkpt>
      <trkpt lat="40.70686" lon="-74.0035">
        <ele>67</ele>
        <time>2012-04-09T14:38:44Z</time>
      </trkpt>
      <trkpt lat="40.70689" lon="-74.00352">
        <ele>65</ele>
        <time>2012-04-09T14:38:46Z</time>
      </trkpt>
      <trkpt lat="40.70691" lon="-74.00352">
        <ele>63</ele>
        <time>2012-04-09T14:38:48Z</time>
      </trkpt>
      <trkpt lat="40.70693" lon="-74.00353">
        <ele>62</ele>
        <time>2012-04-09T14:38:50Z</time>
      </trkpt>
      <trkpt lat="40.70694" lon="-74.00354">
        <ele>62</ele>
        <time>2012-04-09T14:38:51Z</time>
      </trkpt>
      <trkpt lat="40.70696" lon="-74.00355">
        <ele>62</ele>
        <time>2012-04-09T14:38:53Z</time>
      </trkpt>
      <trkpt lat="40.70698" lon="-74.00356">
        <ele>62</ele>
        <time>2012-04-09T14:38:55Z</time>
      </trkpt>
      <trkpt lat="40.70699" lon="-74.00358">
        <ele>62</ele>
        <time>2012-04-09T14:38:57Z</time>
      </trkpt>
      <trkpt lat="40.707" lon="-74.00359">
        <ele>64</ele>
        <time>2012-04-09T14:38:59Z</time>
      </trkpt>
      <trkpt lat="40.70701" lon="-74.00361">
        <ele>66</ele>
        <time>2012-04-09T14:39:01Z</time>
      </trkpt>
      <trkpt lat="40.70702" lon="-74.00362">
        <ele>68</ele>
        <time>2012-04-09T14:39:03Z</time>
      </trkpt>
      <trkpt lat="40.70704" lon="-74.00363">
        <ele>72</ele>
        <time>2012-04-09T14:39:05Z</time>
      </trkpt>
      <trkpt lat="40.70705" lon="-74.00365">
        <ele>74</ele>
        <time>2012-04-09T14:39:07Z</time>
      </trkpt>
      <trkpt lat="40.70705" lon="-74.00368">
        <ele>76</ele>
        <time>2012-04-09T14:39:09Z</time>
      </trkpt>
      <trkpt lat="40.70705" lon="-74.0037">
        <ele>77</ele>
        <time>2012-04-09T14:39:10Z</time>
      </trkpt>
      <trkpt lat="40.70706" lon="-74.00372">
        <ele>78</ele>
        <time>2012-04-09T14:39:11Z</time>
      </trkpt>
      <trkpt lat="40.70707" lon="-74.00373">
        <ele>78</ele>
        <time>2012-04-09T14:39:13Z</time>
      </trkpt>
      <trkpt lat="40.70705" lon="-74.00376">
        <ele>78</ele>
        <time>2012-04-09T14:39:19Z</time>
      </trkpt>
      <trkpt lat="40.70704" lon="-74.00378">
        <ele>78</ele>
        <time>2012-04-09T14:39:21Z</time>
      </trkpt>
      <trkpt lat="40.70703" lon="-74.00379">
        <ele>77</ele>
        <time>2012-04-09T14:39:22Z</time>
      </trkpt>
      <trkpt lat="40.70701" lon="-74.00381">
        <ele>75</ele>
        <time>2012-04-09T14:39:24Z</time>
      </trkpt>
      <trkpt lat="40.70699" lon="-74.00384">
        <ele>73</ele>
        <time>2012-04-09T14:39:25Z</time>
      </trkpt>
      <trkpt lat="40.70698" lon="-74.00385">
        <ele>71</ele>
        <time>2012-04-09T14:39:26Z</time>
      </trkpt>
      <trkpt lat="40.70697" lon="-74.00388">
        <ele>69</ele>
        <time>2012-04-09T14:39:27Z</time>
      </trkpt>
      <trkpt lat="40.70696" lon="-74.00389">
        <ele>65</ele>
        <time>2012-04-09T14:39:29Z</time>
      </trkpt>
      <trkpt lat="40.70695" lon="-74.0039">
        <ele>62</ele>
        <time>2012-04-09T14:39:31Z</time>
      </trkpt>
      <trkpt lat="40.70694" lon="-74.00391">
        <ele>60</ele>
        <time>2012-04-09T14:39:33Z</time>
      </trkpt>
      <trkpt lat="40.70693" lon="-74.00393">
        <ele>59</ele>
        <time>2012-04-09T14:39:34Z</time>
      </trkpt>
      <trkpt lat="40.70692" lon="-74.00394">
        <ele>58</ele>
        <time>2012-04-09T14:39:35Z</time>
      </trkpt>
      <trkpt lat="40.70692" lon="-74.00397">
        <ele>57</ele>
        <time>2012-04-09T14:39:36Z</time>
      </trkpt>
      <trkpt lat="40.70692" lon="-74.00399">
        <ele>55</ele>
        <time>2012-04-09T14:39:37Z</time>
      </trkpt>
      <trkpt lat="40.70693" lon="-74.00401">
        <ele>51</ele>
        <time>2012-04-09T14:39:39Z</time>
      </trkpt>
      <trkpt lat="40.70695" lon="-74.00401">
        <ele>50</ele>
        <time>2012-04-09T14:39:40Z</time>
      </trkpt>
      <trkpt lat="40.70696" lon="-74.00401">
        <ele>49</ele>
        <time>2012-04-09T14:39:41Z</time>
      </trkpt>
      <trkpt lat="40.70698" lon="-74.00401">
        <ele>48</ele>
        <time>2012-04-09T14:39:42Z</time>
      </trkpt>
      <trkpt lat="40.707" lon="-74.00401">
        <ele>47</ele>
        <time>2012-04-09T14:39:43Z</time>
      </trkpt>
      <trkpt lat="40.70702" lon="-74.00401">
        <ele>46</ele>
        <time>2012-04-09T14:39:44Z</time>
      </trkpt>
      <trkpt lat="40.70703" lon="-74.00401">
        <ele>45</ele>
        <time>2012-04-09T14:39:45Z</time>
      </trkpt>
      <trkpt lat="40.70705" lon="-74.00401">
        <ele>44</ele>
        <time>2012-04-09T14:39:46Z</time>
      </trkpt>
      <trkpt lat="40.70706" lon="-74.004">
        <ele>43</ele>
        <time>2012-04-09T14:39:47Z</time>
      </trkpt>
      <trkpt lat="40.70708" lon="-74.00401">
        <ele>43</ele>
        <time>2012-04-09T14:39:48Z</time>
      </trkpt>
      <trkpt lat="40.70709" lon="-74.00401">
        <ele>43</ele>
        <time>2012-04-09T14:39:49Z</time>
      </trkpt>
      <trkpt lat="40.70711" lon="-74.00398">
        <ele>43</ele>
        <time>2012-04-09T14:39:51Z</time>
      </trkpt>
      <trkpt lat="40.70712" lon="-74.00398">
        <ele>43</ele>
        <time>2012-04-09T14:39:53Z</time>
      </trkpt>
      <trkpt lat="40.70714" lon="-74.00397">
        <ele>43</ele>
        <time>2012-04-09T14:39:56Z</time>
      </trkpt>
      <trkpt lat="40.70715" lon="-74.00396">
        <ele>44</ele>
        <time>2012-04-09T14:39:59Z</time>
      </trkpt>
      <trkpt lat="40.70716" lon="-74.00395">
        <ele>45</ele>
        <time>2012-04-09T14:40:01Z</time>
      </trkpt>
      <trkpt lat="40.70718" lon="-74.00396">
        <ele>45</ele>
        <time>2012-04-09T14:40:02Z</time>
      </trkpt>
      <trkpt lat="40.70719" lon="-74.00397">
        <ele>46</ele>
        <time>2012-04-09T14:40:03Z</time>
      </trkpt>
      <trkpt lat="40.70721" lon="-74.00397">
        <ele>47</ele>
        <time>2012-04-09T14:40:05Z</time>
      </trkpt>
      <trkpt lat="40.70722" lon="-74.00397">
        <ele>47</ele>
        <time>2012-04-09T14:40:06Z</time>
      </trkpt>
      <trkpt lat="40.70723" lon="-74.00397">
        <ele>48</ele>
        <time>2012-04-09T14:40:08Z</time>
      </trkpt>
      <trkpt lat="40.70723" lon="-74.00401">
        <ele>48</ele>
        <time>2012-04-09T14:40:11Z</time>
      </trkpt>
      <trkpt lat="40.70724" lon="-74.00401">
        <ele>48</ele>
        <time>2012-04-09T14:40:15Z</time>
      </trkpt>
      <trkpt lat="40.70725" lon="-74.00402">
        <ele>48</ele>
        <time>2012-04-09T14:40:21Z</time>
      </trkpt>
      <trkpt lat="40.70726" lon="-74.00404">
        <ele>46</ele>
        <time>2012-04-09T14:40:25Z</time>
      </trkpt>
      <trkpt lat="40.70727" lon="-74.00404">
        <ele>45</ele>
        <time>2012-04-09T14:40:27Z</time>
      </trkpt>
      <trkpt lat="40.70729" lon="-74.00404">
        <ele>44</ele>
        <time>2012-04-09T14:40:30Z</time>
      </trkpt>
      <trkpt lat="40.7073" lon="-74.00406">
        <ele>41</ele>
        <time>2012-04-09T14:40:33Z</time>
      </trkpt>
      <trkpt lat="40.70731" lon="-74.00407">
        <ele>39</ele>
        <time>2012-04-09T14:40:36Z</time>
      </trkpt>
      <trkpt lat="40.70732" lon="-74.00407">
        <ele>39</ele>
        <time>2012-04-09T14:40:39Z</time>
      </trkpt>
      <trkpt lat="40.70733" lon="-74.00407">
        <ele>39</ele>
        <time>2012-04-09T14:40:42Z</time>
      </trkpt>
      <trkpt lat="40.70732" lon="-74.00404">
        <ele>37</ele>
        <time>2012-04-09T14:40:49Z</time>
      </trkpt>
      <trkpt lat="40.70732" lon="-74.00404">
        <ele>37</ele>
        <time>2012-04-09T14:40:51Z</time>
      </trkpt>
      <trkpt lat="40.70732" lon="-74.00401">
        <ele>37</ele>
        <time>2012-04-09T14:40:54Z</time>
      </trkpt>
      <trkpt lat="40.70733" lon="-74.004">
        <ele>37</ele>
        <time>2012-04-09T14:40:58Z</time>
      </trkpt>
      <trkpt lat="40.70734" lon="-74.00398">
        <ele>37</ele>
        <time>2012-04-09T14:41:00Z</time>
      </trkpt>
      <trkpt lat="40.70736" lon="-74.00398">
        <ele>37</ele>
        <time>2012-04-09T14:41:03Z</time>
      </trkpt>
      <trkpt lat="40.70735" lon="-74.004">
        <ele>42</ele>
        <time>2012-04-09T14:41:09Z</time>
      </trkpt>
      <trkpt lat="40.70734" lon="-74.00401">
        <ele>45</ele>
        <time>2012-04-09T14:41:11Z</time>
      </trkpt>
      <trkpt lat="40.70733" lon="-74.00403">
        <ele>49</ele>
        <time>2012-04-09T14:41:13Z</time>
      </trkpt>
      <trkpt lat="40.70731" lon="-74.00404">
        <ele>51</ele>
        <time>2012-04-09T14:41:15Z</time>
      </trkpt>
      <trkpt lat="40.7073" lon="-74.00405">
        <ele>53</ele>
        <time>2012-04-09T14:41:17Z</time>
      </trkpt>
      <trkpt lat="40.70728" lon="-74.00407">
        <ele>55</ele>
        <time>2012-04-09T14:41:19Z</time>
      </trkpt>
      <trkpt lat="40.70727" lon="-74.00408">
        <ele>57</ele>
        <time>2012-04-09T14:41:21Z</time>
      </trkpt>
      <trkpt lat="40.70726" lon="-74.0041">
        <ele>57</ele>
        <time>2012-04-09T14:41:23Z</time>
      </trkpt>
      <trkpt lat="40.70725" lon="-74.00412">
        <ele>57</ele>
        <time>2012-04-09T14:41:25Z</time>
      </trkpt>
      <trkpt lat="40.70725" lon="-74.00414">
        <ele>56</ele>
        <time>2012-04-09T14:41:26Z</time>
      </trkpt>
      <trkpt lat="40.70724" lon="-74.00416">
        <ele>54</ele>
        <time>2012-04-09T14:41:28Z</time>
      </trkpt>
      <trkpt lat="40.70723" lon="-74.00417">
        <ele>52</ele>
        <time>2012-04-09T14:41:30Z</time>
      </trkpt>
      <trkpt lat="40.70723" lon="-74.00419">
        <ele>47</ele>
        <time>2012-04-09T14:41:35Z</time>
      </trkpt>
      <trkpt lat="40.70724" lon="-74.00423">
        <ele>45</ele>
        <time>2012-04-09T14:41:37Z</time>
      </trkpt>
      <trkpt lat="40.70725" lon="-74.00424">
        <ele>44</ele>
        <time>2012-04-09T14:41:38Z</time>
      </trkpt>
      <trkpt lat="40.70726" lon="-74.00427">
        <ele>43</ele>
        <time>2012-04-09T14:41:39Z</time>
      </trkpt>
      <trkpt lat="40.70727" lon="-74.0043">
        <ele>43</ele>
        <time>2012-04-09T14:41:40Z</time>
      </trkpt>
      <trkpt lat="40.70728" lon="-74.00432">
        <ele>42</ele>
        <time>2012-04-09T14:41:41Z</time>
      </trkpt>
      <trkpt lat="40.70729" lon="-74.00434">
        <ele>42</ele>
        <time>2012-04-09T14:41:42Z</time>
      </trkpt>
      <trkpt lat="40.70729" lon="-74.00436">
        <ele>42</ele>
        <time>2012-04-09T14:41:43Z</time>
      </trkpt>
      <trkpt lat="40.7073" lon="-74.00438">
        <ele>41</ele>
        <time>2012-04-09T14:41:44Z</time>
      </trkpt>
      <trkpt lat="40.7073" lon="-74.00439">
        <ele>41</ele>
        <time>2012-04-09T14:41:45Z</time>
      </trkpt>
      <trkpt lat="40.7073" lon="-74.00442">
        <ele>40</ele>
        <time>2012-04-09T14:41:46Z</time>
      </trkpt>
      <trkpt lat="40.7073" lon="-74.00443">
        <ele>39</ele>
        <time>2012-04-09T14:41:47Z</time>
      </trkpt>
      <trkpt lat="40.7073" lon="-74.00446">
        <ele>39</ele>
        <time>2012-04-09T14:41:48Z</time>
      </trkpt>
      <trkpt lat="40.70729" lon="-74.00448">
        <ele>37</ele>
        <time>2012-04-09T14:41:50Z</time>
      </trkpt>
      <trkpt lat="40.70728" lon="-74.0045">
        <ele>36</ele>
        <time>2012-04-09T14:41:52Z</time>
      </trkpt>
      <trkpt lat="40.70727" lon="-74.00452">
        <ele>34</ele>
        <time>2012-04-09T14:41:54Z</time>
      </trkpt>
      <trkpt lat="40.70727" lon="-74.00455">
        <ele>33</ele>
        <time>2012-04-09T14:41:56Z</time>
      </trkpt>
      <trkpt lat="40.70726" lon="-74.00457">
        <ele>33</ele>
        <time>2012-04-09T14:41:58Z</time>
      </trkpt>
      <trkpt lat="40.70726" lon="-74.00459">
        <ele>32</ele>
        <time>2012-04-09T14:41:59Z</time>
      </trkpt>
      <trkpt lat="40.70726" lon="-74.0046">
        <ele>32</ele>
        <time>2012-04-09T14:42:00Z</time>
      </trkpt>
      <trkpt lat="40.70726" lon="-74.00462">
        <ele>32</ele>
        <time>2012-04-09T14:42:01Z</time>
      </trkpt>
      <trkpt lat="40.70726" lon="-74.00463">
        <ele>32</ele>
        <time>2012-04-09T14:42:02Z</time>
      </trkpt>
      <trkpt lat="40.70726" lon="-74.00465">
        <ele>31</ele>
        <time>2012-04-09T14:42:03Z</time>
      </trkpt>
      <trkpt lat="40.70727" lon="-74.00469">
        <ele>31</ele>
        <time>2012-04-09T14:42:04Z</time>
      </trkpt>
      <trkpt lat="40.70727" lon="-74.00471">
        <ele>30</ele>
        <time>2012-04-09T14:42:05Z</time>
      </trkpt>
      <trkpt lat="40.70727" lon="-74.00472">
        <ele>30</ele>
        <time>2012-04-09T14:42:06Z</time>
      </trkpt>
      <trkpt lat="40.70727" lon="-74.00474">
        <ele>29</ele>
        <time>2012-04-09T14:42:07Z</time>
      </trkpt>
      <trkpt lat="40.70727" lon="-74.00475">
        <ele>29</ele>
        <time>2012-04-09T14:42:08Z</time>
      </trkpt>
      <trkpt lat="40.70727" lon="-74.00478">
        <ele>28</ele>
        <time>2012-04-09T14:42:10Z</time>
      </trkpt>
      <trkpt lat="40.70727" lon="-74.00479">
        <ele>28</ele>
        <time>2012-04-09T14:42:11Z</time>
      </trkpt>
      <trkpt lat="40.70728" lon="-74.00481">
        <ele>28</ele>
        <time>2012-04-09T14:42:12Z</time>
      </trkpt>
      <trkpt lat="40.70729" lon="-74.00483">
        <ele>28</ele>
        <time>2012-04-09T14:42:14Z</time>
      </trkpt>
      <trkpt lat="40.7073" lon="-74.00484">
        <ele>28</ele>
        <time>2012-04-09T14:42:15Z</time>
      </trkpt>
      <trkpt lat="40.70732" lon="-74.00488">
        <ele>27</ele>
        <time>2012-04-09T14:42:16Z</time>
      </trkpt>
      <trkpt lat="40.70733" lon="-74.00489">
        <ele>27</ele>
        <time>2012-04-09T14:42:17Z</time>
      </trkpt>
      <trkpt lat="40.70735" lon="-74.00492">
        <ele>27</ele>
        <time>2012-04-09T14:42:18Z</time>
      </trkpt>
      <trkpt lat="40.70736" lon="-74.00494">
        <ele>26</ele>
        <time>2012-04-09T14:42:19Z</time>
      </trkpt>
      <trkpt lat="40.70738" lon="-74.00495">
        <ele>25</ele>
        <time>2012-04-09T14:42:20Z</time>
      </trkpt>
      <trkpt lat="40.70739" lon="-74.00497">
        <ele>25</ele>
        <time>2012-04-09T14:42:21Z</time>
      </trkpt>
      <trkpt lat="40.70741" lon="-74.00499">
        <ele>24</ele>
        <time>2012-04-09T14:42:22Z</time>
      </trkpt>
      <trkpt lat="40.70742" lon="-74.005">
        <ele>24</ele>
        <time>2012-04-09T14:42:23Z</time>
      </trkpt>
      <trkpt lat="40.70744" lon="-74.00502">
        <ele>23</ele>
        <time>2012-04-09T14:42:24Z</time>
      </trkpt>
      <trkpt lat="40.70746" lon="-74.00505">
        <ele>22</ele>
        <time>2012-04-09T14:42:26Z</time>
      </trkpt>
      <trkpt lat="40.70747" lon="-74.00507">
        <ele>21</ele>
        <time>2012-04-09T14:42:29Z</time>
      </trkpt>
      <trkpt lat="40.70747" lon="-74.00509">
        <ele>21</ele>
        <time>2012-04-09T14:42:32Z</time>
      </trkpt>
      <trkpt lat="40.70746" lon="-74.00509">
        <ele>21</ele>
        <time>2012-04-09T14:42:33Z</time>
      </trkpt>
      <trkpt lat="40.70744" lon="-74.00508">
        <ele>21</ele>
        <time>2012-04-09T14:42:35Z</time>
      </trkpt>
      <trkpt lat="40.70742" lon="-74.00507">
        <ele>20</ele>
        <time>2012-04-09T14:42:36Z</time>
      </trkpt>
      <trkpt lat="40.70741" lon="-74.00506">
        <ele>20</ele>
        <time>2012-04-09T14:42:37Z</time>
      </trkpt>
      <trkpt lat="40.70742" lon="-74.00507">
        <ele>19</ele>
        <time>2012-04-09T14:42:40Z</time>
      </trkpt>
      <trkpt lat="40.7074" lon="-74.00509">
        <ele>17</ele>
        <time>2012-04-09T14:42:43Z</time>
      </trkpt>
      <trkpt lat="40.70739" lon="-74.0051">
        <ele>14</ele>
        <time>2012-04-09T14:42:46Z</time>
      </trkpt>
      <trkpt lat="40.70738" lon="-74.00512">
        <ele>12</ele>
        <time>2012-04-09T14:42:48Z</time>
      </trkpt>
      <trkpt lat="40.70737" lon="-74.00513">
        <ele>11</ele>
        <time>2012-04-09T14:42:49Z</time>
      </trkpt>
      <trkpt lat="40.70736" lon="-74.00513">
        <ele>10</ele>
        <time>2012-04-09T14:42:50Z</time>
      </trkpt>
      <trkpt lat="40.70734" lon="-74.00514">
        <ele>9</ele>
        <time>2012-04-09T14:42:51Z</time>
      </trkpt>
      <trkpt lat="40.70732" lon="-74.00516">
        <ele>9</ele>
        <time>2012-04-09T14:42:53Z</time>
      </trkpt>
      <trkpt lat="40.7073" lon="-74.00517">
        <ele>9</ele>
        <time>2012-04-09T14:42:55Z</time>
      </trkpt>
      <trkpt lat="40.70729" lon="-74.00518">
        <ele>8</ele>
        <time>2012-04-09T14:42:57Z</time>
      </trkpt>
      <trkpt lat="40.70727" lon="-74.0052">
        <ele>8</ele>
        <time>2012-04-09T14:42:59Z</time>
      </trkpt>
      <trkpt lat="40.70725" lon="-74.00521">
        <ele>8</ele>
        <time>2012-04-09T14:43:01Z</time>
      </trkpt>
      <trkpt lat="40.70724" lon="-74.00523">
        <ele>8</ele>
        <time>2012-04-09T14:43:03Z</time>
      </trkpt>
      <trkpt lat="40.70724" lon="-74.00526">
        <ele>8</ele>
        <time>2012-04-09T14:43:05Z</time>
      </trkpt>
      <trkpt lat="40.70722" lon="-74.00526">
        <ele>8</ele>
        <time>2012-04-09T14:43:06Z</time>
      </trkpt>
      <trkpt lat="40.7072" lon="-74.00526">
        <ele>8</ele>
        <time>2012-04-09T14:43:07Z</time>
      </trkpt>
      <trkpt lat="40.70718" lon="-74.00526">
        <ele>8</ele>
        <time>2012-04-09T14:43:08Z</time>
      </trkpt>
      <trkpt lat="40.70717" lon="-74.00526">
        <ele>7</ele>
        <time>2012-04-09T14:43:09Z</time>
      </trkpt>
      <trkpt lat="40.70715" lon="-74.00526">
        <ele>6</ele>
        <time>2012-04-09T14:43:10Z</time>
      </trkpt>
      <trkpt lat="40.70714" lon="-74.00526">
        <ele>5</ele>
        <time>2012-04-09T14:43:11Z</time>
      </trkpt>
      <trkpt lat="40.70713" lon="-74.00526">
        <ele>4</ele>
        <time>2012-04-09T14:43:12Z</time>
      </trkpt>
      <trkpt lat="40.7071" lon="-74.00526">
        <ele>2</ele>
        <time>2012-04-09T14:43:14Z</time>
      </trkpt>
      <trkpt lat="40.70709" lon="-74.00526">
        <ele>1</ele>
        <time>2012-04-09T14:43:15Z</time>
      </trkpt>
      <trkpt lat="40.70708" lon="-74.00526">
        <time>2012-04-09T14:43:16Z</time>
      </trkpt>
      <trkpt lat="40.70705" lon="-74.00526">
        <time>2012-04-09T14:43:18Z</time>
      </trkpt>
      <trkpt lat="40.70703" lon="-74.00526">
        <time>2012-04-09T14:43:19Z</time>
      </trkpt>
      <trkpt lat="40.70702" lon="-74.00526">
        <time>2012-04-09T14:43:20Z</time>
      </trkpt>
      <trkpt lat="40.70701" lon="-74.00523">
        <time>2012-04-09T14:43:22Z</time>
      </trkpt>
      <trkpt lat="40.70699" lon="-74.00523">
        <time>2012-04-09T14:43:24Z</time>
      </trkpt>
      <trkpt lat="40.70697" lon="-74.00522">
        <time>2012-04-09T14:43:26Z</time>
      </trkpt>
      <trkpt lat="40.70696" lon="-74.00523">
        <time>2012-04-09T14:43:27Z</time>
      </trkpt>
      <trkpt lat="40.70693" lon="-74.00525">
        <ele>-1</ele>
        <time>2012-04-09T14:43:28Z</time>
      </trkpt>
      <trkpt lat="40.70691" lon="-74.00528">
        <ele>-1</ele>
        <time>2012-04-09T14:43:29Z</time>
      </trkpt>
      <trkpt lat="40.7069" lon="-74.00529">
        <time>2012-04-09T14:43:30Z</time>
      </trkpt>
      <trkpt lat="40.70689" lon="-74.00531">
        <ele>-2</ele>
        <time>2012-04-09T14:43:31Z</time>
      </trkpt>
      <trkpt lat="40.70687" lon="-74.00532">
        <ele>-2</ele>
        <time>2012-04-09T14:43:32Z</time>
      </trkpt>
      <trkpt lat="40.70686" lon="-74.00532">
        <ele>-3</ele>
        <time>2012-04-09T14:43:34Z</time>
      </trkpt>
      <trkpt lat="40.70684" lon="-74.00532">
        <ele>-3</ele>
        <time>2012-04-09T14:43:36Z</time>
      </trkpt>
      <trkpt lat="40.70683" lon="-74.0053">
        <ele>-3</ele>
        <time>2012-04-09T14:43:39Z</time>
      </trkpt>
      <trkpt lat="40.70681" lon="-74.00529">
        <ele>-3</ele>
        <time>2012-04-09T14:43:42Z</time>
      </trkpt>
      <trkpt lat="40.7068" lon="-74.00528">
        <ele>-3</ele>
        <time>2012-04-09T14:43:44Z</time>
      </trkpt>
      <trkpt lat="40.70679" lon="-74.00526">
        <ele>-1</ele>
        <time>2012-04-09T14:43:48Z</time>
      </trkpt>
      <trkpt lat="40.70678" lon="-74.00525">
        <time>2012-04-09T14:43:50Z</time>
      </trkpt>
      <trkpt lat="40.70678" lon="-74.00523">
        <time>2012-04-09T14:43:51Z</time>
      </trkpt>
      <trkpt lat="40.70678" lon="-74.00522">
        <time>2012-04-09T14:43:52Z</time>
      </trkpt>
      <trkpt lat="40.70677" lon="-74.0052">
        <time>2012-04-09T14:43:53Z</time>
      </trkpt>
      <trkpt lat="40.70677" lon="-74.00518">
        <time>2012-04-09T14:43:54Z</time>
      </trkpt>
      <trkpt lat="40.70676" lon="-74.00516">
        <ele>2</ele>
        <time>2012-04-09T14:43:57Z</time>
      </trkpt>
      <trkpt lat="40.70675" lon="-74.00513">
        <ele>7</ele>
        <time>2012-04-09T14:44:01Z</time>
      </trkpt>
      <trkpt lat="40.70674" lon="-74.00512">
        <ele>9</ele>
        <time>2012-04-09T14:44:03Z</time>
      </trkpt>
      <trkpt lat="40.70673" lon="-74.0051">
        <ele>14</ele>
        <time>2012-04-09T14:44:08Z</time>
      </trkpt>
      <trkpt lat="40.70673" lon="-74.00508">
        <ele>16</ele>
        <time>2012-04-09T14:44:11Z</time>
      </trkpt>
      <trkpt lat="40.70672" lon="-74.00507">
        <ele>18</ele>
        <time>2012-04-09T14:44:13Z</time>
      </trkpt>
      <trkpt lat="40.70674" lon="-74.00509">
        <ele>22</ele>
        <time>2012-04-09T14:44:23Z</time>
      </trkpt>
      <trkpt lat="40.70675" lon="-74.0051">
        <ele>19</ele>
        <time>2012-04-09T14:44:26Z</time>
      </trkpt>
      <trkpt lat="40.70676" lon="-74.00512">
        <ele>13</ele>
        <time>2012-04-09T14:44:32Z</time>
      </trkpt>
      <trkpt lat="40.70678" lon="-74.00514">
        <ele>11</ele>
        <time>2012-04-09T14:44:34Z</time>
      </trkpt>
      <trkpt lat="40.7068" lon="-74.00516">
        <ele>10</ele>
        <time>2012-04-09T14:44:36Z</time>
      </trkpt>
      <trkpt lat="40.70682" lon="-74.00517">
        <ele>9</ele>
        <time>2012-04-09T14:44:38Z</time>
      </trkpt>
      <trkpt lat="40.70684" lon="-74.00519">
        <ele>8</ele>
        <time>2012-04-09T14:44:40Z</time>
      </trkpt>
      <trkpt lat="40.70686" lon="-74.0052">
        <ele>7</ele>
        <time>2012-04-09T14:44:42Z</time>
      </trkpt>
      <trkpt lat="40.70688" lon="-74.0052">
        <ele>6</ele>
        <time>2012-04-09T14:44:44Z</time>
      </trkpt>
      <trkpt lat="40.7069" lon="-74.00521">
        <ele>5</ele>
        <time>2012-04-09T14:44:46Z</time>
      </trkpt>
      <trkpt lat="40.70692" lon="-74.00522">
        <ele>5</ele>
        <time>2012-04-09T14:44:48Z</time>
      </trkpt>
      <trkpt lat="40.70694" lon="-74.00519">
        <ele>5</ele>
        <time>2012-04-09T14:44:50Z</time>
      </trkpt>
      <trkpt lat="40.70694" lon="-74.00516">
        <ele>5</ele>
        <time>2012-04-09T14:44:51Z</time>
      </trkpt>
      <trkpt lat="40.70695" lon="-74.00513">
        <ele>5</ele>
        <time>2012-04-09T14:44:52Z</time>
      </trkpt>
      <trkpt lat="40.70695" lon="-74.00511">
        <ele>5</ele>
        <time>2012-04-09T14:44:53Z</time>
      </trkpt>
      <trkpt lat="40.70697" lon="-74.00511">
        <ele>5</ele>
        <time>2012-04-09T14:44:55Z</time>
      </trkpt>
      <trkpt lat="40.70696" lon="-74.0051">
        <ele>8</ele>
        <time>2012-04-09T14:44:58Z</time>
      </trkpt>
      <trkpt lat="40.70695" lon="-74.00511">
        <ele>12</ele>
        <time>2012-04-09T14:45:02Z</time>
      </trkpt>
      <trkpt lat="40.70695" lon="-74.00513">
        <ele>14</ele>
        <time>2012-04-09T14:45:04Z</time>
      </trkpt>
      <trkpt lat="40.70695" lon="-74.00516">
        <ele>16</ele>
        <time>2012-04-09T14:45:06Z</time>
      </trkpt>
      <trkpt lat="40.70695" lon="-74.00518">
        <ele>16</ele>
        <time>2012-04-09T14:45:07Z</time>
      </trkpt>
      <trkpt lat="40.70695" lon="-74.00517">
        <ele>16</ele>
        <time>2012-04-09T14:45:11Z</time>
      </trkpt>
      <trkpt lat="40.70694" lon="-74.00515">
        <ele>18</ele>
        <time>2012-04-09T14:45:13Z</time>
      </trkpt>
      <trkpt lat="40.70694" lon="-74.00512">
        <ele>20</ele>
        <time>2012-04-09T14:45:15Z</time>
      </trkpt>
      <trkpt lat="40.70693" lon="-74.00513">
        <ele>23</ele>
        <time>2012-04-09T14:45:20Z</time>
      </trkpt>
      <trkpt lat="40.70693" lon="-74.00512">
        <ele>23</ele>
        <time>2012-04-09T14:45:23Z</time>
      </trkpt>
      <trkpt lat="40.70694" lon="-74.00513">
        <ele>23</ele>
        <time>2012-04-09T14:45:29Z</time>
      </trkpt>
      <trkpt lat="40.70695" lon="-74.00513">
        <ele>21</ele>
        <time>2012-04-09T14:45:31Z</time>
      </trkpt>
      <trkpt lat="40.70697" lon="-74.00515">
        <ele>19</ele>
        <time>2012-04-09T14:45:33Z</time>
      </trkpt>
      <trkpt lat="40.707" lon="-74.00517">
        <ele>19</ele>
        <time>2012-04-09T14:45:34Z</time>
      </trkpt>
      <trkpt lat="40.70703" lon="-74.00517">
        <ele>19</ele>
        <time>2012-04-09T14:45:35Z</time>
      </trkpt>
      <trkpt lat="40.70705" lon="-74.00518">
        <ele>19</ele>
        <time>2012-04-09T14:45:36Z</time>
      </trkpt>
      <trkpt lat="40.70707" lon="-74.00519">
        <ele>19</ele>
        <time>2012-04-09T14:45:37Z</time>
      </trkpt>
      <trkpt lat="40.70709" lon="-74.00519">
        <ele>19</ele>
        <time>2012-04-09T14:45:38Z</time>
      </trkpt>
      <trkpt lat="40.7071" lon="-74.00519">
        <ele>19</ele>
        <time>2012-04-09T14:45:39Z</time>
      </trkpt>
      <trkpt lat="40.70712" lon="-74.00518">
        <ele>19</ele>
        <time>2012-04-09T14:45:40Z</time>
      </trkpt>
      <trkpt lat="40.70713" lon="-74.00518">
        <ele>19</ele>
        <time>2012-04-09T14:45:42Z</time>
      </trkpt>
      <trkpt lat="40.70712" lon="-74.00518">
        <ele>18</ele>
        <time>2012-04-09T14:45:45Z</time>
      </trkpt>
      <trkpt lat="40.70711" lon="-74.00518">
        <ele>18</ele>
        <time>2012-04-09T14:45:46Z</time>
      </trkpt>
      <trkpt lat="40.70709" lon="-74.00517">
        <ele>18</ele>
        <time>2012-04-09T14:45:48Z</time>
      </trkpt>
      <trkpt lat="40.70707" lon="-74.00518">
        <ele>18</ele>
        <time>2012-04-09T14:45:50Z</time>
      </trkpt>
      <trkpt lat="40.70705" lon="-74.00519">
        <ele>18</ele>
        <time>2012-04-09T14:45:52Z</time>
      </trkpt>
      <trkpt lat="40.70704" lon="-74.00519">
        <ele>18</ele>
        <time>2012-04-09T14:45:53Z</time>
      </trkpt>
      <trkpt lat="40.70704" lon="-74.00516">
        <ele>18</ele>
        <time>2012-04-09T14:45:56Z</time>
      </trkpt>
      <trkpt lat="40.70705" lon="-74.00513">
        <ele>18</ele>
        <time>2012-04-09T14:46:01Z</time>
      </trkpt>
      <trkpt lat="40.70705" lon="-74.00511">
        <ele>18</ele>
        <time>2012-04-09T14:46:02Z</time>
      </trkpt>
      <trkpt lat="40.70705" lon="-74.00509">
        <ele>18</ele>
        <time>2012-04-09T14:46:03Z</time>
      </trkpt>
      <trkpt lat="40.70705" lon="-74.00508">
        <ele>18</ele>
        <time>2012-04-09T14:46:04Z</time>
      </trkpt>
      <trkpt lat="40.70704" lon="-74.00507">
        <ele>18</ele>
        <time>2012-04-09T14:46:06Z</time>
      </trkpt>
      <trkpt lat="40.70703" lon="-74.00506">
        <ele>18</ele>
        <time>2012-04-09T14:46:09Z</time>
      </trkpt>
      <trkpt lat="40.70702" lon="-74.00503">
        <ele>18</ele>
        <time>2012-04-09T14:46:12Z</time>
      </trkpt>
      <trkpt lat="40.70701" lon="-74.00503">
        <ele>19</ele>
        <time>2012-04-09T14:46:18Z</time>
      </trkpt>
      <trkpt lat="40.707" lon="-74.00502">
        <ele>23</ele>
        <time>2012-04-09T14:46:22Z</time>
      </trkpt>
      <trkpt lat="40.70699" lon="-74.005">
        <ele>26</ele>
        <time>2012-04-09T14:46:25Z</time>
      </trkpt>
      <trkpt lat="40.70699" lon="-74.00497">
        <ele>27</ele>
        <time>2012-04-09T14:46:27Z</time>
      </trkpt>
      <trkpt lat="40.70699" lon="-74.00496">
        <ele>28</ele>
        <time>2012-04-09T14:46:28Z</time>
      </trkpt>
      <trkpt lat="40.70699" lon="-74.00494">
        <ele>29</ele>
        <time>2012-04-09T14:46:29Z</time>
      </trkpt>
      <trkpt lat="40.70698" lon="-74.00493">
        <ele>31</ele>
        <time>2012-04-09T14:46:31Z</time>
      </trkpt>
      <trkpt lat="40.70698" lon="-74.00491">
        <ele>32</ele>
        <time>2012-04-09T14:46:33Z</time>
      </trkpt>
      <trkpt lat="40.70697" lon="-74.0049">
        <ele>32</ele>
        <time>2012-04-09T14:46:35Z</time>
      </trkpt>
      <trkpt lat="40.70697" lon="-74.00488">
        <ele>33</ele>
        <time>2012-04-09T14:46:38Z</time>
      </trkpt>
      <trkpt lat="40.70696" lon="-74.00487">
        <ele>34</ele>
        <time>2012-04-09T14:46:41Z</time>
      </trkpt>
      <trkpt lat="40.70698" lon="-74.00488">
        <ele>36</ele>
        <time>2012-04-09T14:46:50Z</time>
      </trkpt>
      <trkpt lat="40.707" lon="-74.00488">
        <ele>36</ele>
        <time>2012-04-09T14:46:52Z</time>
      </trkpt>
      <trkpt lat="40.70701" lon="-74.0049">
        <ele>36</ele>
        <time>2012-04-09T14:46:54Z</time>
      </trkpt>
      <trkpt lat="40.70702" lon="-74.00491">
        <ele>36</ele>
        <time>2012-04-09T14:46:56Z</time>
      </trkpt>
      <trkpt lat="40.70704" lon="-74.00493">
        <ele>36</ele>
        <time>2012-04-09T14:46:57Z</time>
      </trkpt>
      <trkpt lat="40.70705" lon="-74.00494">
        <ele>36</ele>
        <time>2012-04-09T14:46:58Z</time>
      </trkpt>
      <trkpt lat="40.70707" lon="-74.00495">
        <ele>36</ele>
        <time>2012-04-09T14:47:00Z</time>
      </trkpt>
      <trkpt lat="40.70708" lon="-74.00497">
        <ele>36</ele>
        <time>2012-04-09T14:47:02Z</time>
      </trkpt>
      <trkpt lat="40.70708" lon="-74.00499">
        <ele>36</ele>
        <time>2012-04-09T14:47:04Z</time>
      </trkpt>
      <trkpt lat="40.7071" lon="-74.00498">
        <ele>36</ele>
        <time>2012-04-09T14:47:07Z</time>
      </trkpt>
      <trkpt lat="40.70709" lon="-74.00497">
        <ele>36</ele>
        <time>2012-04-09T14:47:10Z</time>
      </trkpt>
      <trkpt lat="40.70707" lon="-74.005">
        <ele>36</ele>
        <time>2012-04-09T14:47:14Z</time>
      </trkpt>
      <trkpt lat="40.70707" lon="-74.00501">
        <ele>36</ele>
        <time>2012-04-09T14:47:15Z</time>
      </trkpt>
      <trkpt lat="40.70706" lon="-74.00504">
        <ele>36</ele>
        <time>2012-04-09T14:47:16Z</time>
      </trkpt>
      <trkpt lat="40.70707" lon="-74.00504">
        <ele>36</ele>
        <time>2012-04-09T14:47:17Z</time>
      </trkpt>
      <trkpt lat="40.70709" lon="-74.00503">
        <ele>36</ele>
        <time>2012-04-09T14:47:18Z</time>
      </trkpt>
      <trkpt lat="40.7071" lon="-74.00503">
        <ele>36</ele>
        <time>2012-04-09T14:47:19Z</time>
      </trkpt>
      <trkpt lat="40.70711" lon="-74.00502">
        <ele>36</ele>
        <time>2012-04-09T14:47:20Z</time>
      </trkpt>
      <trkpt lat="40.70713" lon="-74.005">
        <ele>38</ele>
        <time>2012-04-09T14:47:22Z</time>
      </trkpt>
      <trkpt lat="40.70715" lon="-74.005">
        <ele>39</ele>
        <time>2012-04-09T14:47:23Z</time>
      </trkpt>
      <trkpt lat="40.70716" lon="-74.005">
        <ele>41</ele>
        <time>2012-04-09T14:47:24Z</time>
      </trkpt>
      <trkpt lat="40.70717" lon="-74.005">
        <ele>43</ele>
        <time>2012-04-09T14:47:25Z</time>
      </trkpt>
      <trkpt lat="40.70719" lon="-74.00501">
        <ele>47</ele>
        <time>2012-04-09T14:47:27Z</time>
      </trkpt>
      <trkpt lat="40.7072" lon="-74.00502">
        <ele>53</ele>
        <time>2012-04-09T14:47:30Z</time>
      </trkpt>
      <trkpt lat="40.7072" lon="-74.00504">
        <ele>56</ele>
        <time>2012-04-09T14:47:31Z</time>
      </trkpt>
      <trkpt lat="40.70721" lon="-74.00506">
        <ele>66</ele>
        <time>2012-04-09T14:47:34Z</time>
      </trkpt>
      <trkpt lat="40.70721" lon="-74.00508">
        <ele>80</ele>
        <time>2012-04-09T14:47:37Z</time>
      </trkpt>
      <trkpt lat="40.70721" lon="-74.00509">
        <ele>85</ele>
        <time>2012-04-09T14:47:38Z</time>
      </trkpt>
      <trkpt lat="40.7072" lon="-74.0051">
        <ele>99</ele>
        <time>2012-04-09T14:47:41Z</time>
      </trkpt>
      <trkpt lat="40.70719" lon="-74.00513">
        <ele>107</ele>
        <time>2012-04-09T14:47:43Z</time>
      </trkpt>
      <trkpt lat="40.7072" lon="-74.0051">
        <ele>130</ele>
        <time>2012-04-09T14:47:49Z</time>
      </trkpt>
      <trkpt lat="40.70713" lon="-74.0051">
        <ele>139</ele>
        <time>2012-04-09T14:47:57Z</time>
      </trkpt>
      <trkpt lat="40.70713" lon="-74.00514">
        <ele>144</ele>
        <time>2012-04-09T14:47:59Z</time>
      </trkpt>
      <trkpt lat="40.70715" lon="-74.00513">
        <ele>146</ele>
        <time>2012-04-09T14:48:00Z</time>
      </trkpt>
      <trkpt lat="40.70717" lon="-74.00515">
        <ele>147</ele>
        <time>2012-04-09T14:48:01Z</time>
      </trkpt>
      <trkpt lat="40.70716" lon="-74.00513">
        <ele>148</ele>
        <time>2012-04-09T14:48:02Z</time>
      </trkpt>
      <trkpt lat="40.70718" lon="-74.00515">
        <ele>151</ele>
        <time>2012-04-09T14:48:05Z</time>
      </trkpt>
      <trkpt lat="40.7072" lon="-74.00515">
        <ele>153</ele>
        <time>2012-04-09T14:48:07Z</time>
      </trkpt>
      <trkpt lat="40.70724" lon="-74.00517">
        <ele>155</ele>
        <time>2012-04-09T14:48:09Z</time>
      </trkpt>
      <trkpt lat="40.70726" lon="-74.00517">
        <ele>157</ele>
        <time>2012-04-09T14:48:11Z</time>
      </trkpt>
      <trkpt lat="40.70726" lon="-74.00518">
        <ele>157</ele>
        <time>2012-04-09T14:48:12Z</time>
      </trkpt>
      <trkpt lat="40.70726" lon="-74.0052">
        <ele>157</ele>
        <time>2012-04-09T14:48:13Z</time>
      </trkpt>
      <trkpt lat="40.70726" lon="-74.00523">
        <ele>157</ele>
        <time>2012-04-09T14:48:15Z</time>
      </trkpt>
      <trkpt lat="40.70727" lon="-74.00526">
        <ele>158</ele>
        <time>2012-04-09T14:48:16Z</time>
      </trkpt>
      <trkpt lat="40.70726" lon="-74.00529">
        <ele>160</ele>
        <time>2012-04-09T14:48:18Z</time>
      </trkpt>
      <trkpt lat="40.70727" lon="-74.00534">
        <ele>161</ele>
        <time>2012-04-09T14:48:19Z</time>
      </trkpt>
      <trkpt lat="40.70726" lon="-74.00538">
        <ele>162</ele>
        <time>2012-04-09T14:48:20Z</time>
      </trkpt>
      <trkpt lat="40.70728" lon="-74.00541">
        <ele>162</ele>
        <time>2012-04-09T14:48:21Z</time>
      </trkpt>
      <trkpt lat="40.70729" lon="-74.00543">
        <ele>162</ele>
        <time>2012-04-09T14:48:22Z</time>
      </trkpt>
      <trkpt lat="40.70732" lon="-74.00546">
        <ele>162</ele>
        <time>2012-04-09T14:48:23Z</time>
      </trkpt>
      <trkpt lat="40.70735" lon="-74.00548">
        <ele>162</ele>
        <time>2012-04-09T14:48:24Z</time>
      </trkpt>
      <trkpt lat="40.70738" lon="-74.00551">
        <ele>162</ele>
        <time>2012-04-09T14:48:25Z</time>
      </trkpt>
      <trkpt lat="40.70742" lon="-74.00554">
        <ele>162</ele>
        <time>2012-04-09T14:48:26Z</time>
      </trkpt>
      <trkpt lat="40.70745" lon="-74.00557">
        <ele>163</ele>
        <time>2012-04-09T14:48:27Z</time>
      </trkpt>
      <trkpt lat="40.70748" lon="-74.0056">
        <ele>163</ele>
        <time>2012-04-09T14:48:28Z</time>
      </trkpt>
      <trkpt lat="40.70751" lon="-74.0056">
        <ele>163</ele>
        <time>2012-04-09T14:48:29Z</time>
      </trkpt>
      <trkpt lat="40.70755" lon="-74.00563">
        <ele>163</ele>
        <time>2012-04-09T14:48:30Z</time>
      </trkpt>
      <trkpt lat="40.70757" lon="-74.00565">
        <ele>163</ele>
        <time>2012-04-09T14:48:31Z</time>
      </trkpt>
      <trkpt lat="40.7076" lon="-74.00568">
        <ele>163</ele>
        <time>2012-04-09T14:48:32Z</time>
      </trkpt>
      <trkpt lat="40.70762" lon="-74.00569">
        <ele>163</ele>
        <time>2012-04-09T14:48:33Z</time>
      </trkpt>
      <trkpt lat="40.70764" lon="-74.00572">
        <ele>163</ele>
        <time>2012-04-09T14:48:34Z</time>
      </trkpt>
      <trkpt lat="40.70766" lon="-74.00575">
        <ele>163</ele>
        <time>2012-04-09T14:48:35Z</time>
      </trkpt>
      <trkpt lat="40.70768" lon="-74.00578">
        <ele>162</ele>
        <time>2012-04-09T14:48:36Z</time>
      </trkpt>
      <trkpt lat="40.70769" lon="-74.0058">
        <ele>161</ele>
        <time>2012-04-09T14:48:37Z</time>
      </trkpt>
      <trkpt lat="40.7077" lon="-74.00582">
        <ele>160</ele>
        <time>2012-04-09T14:48:38Z</time>
      </trkpt>
      <trkpt lat="40.70771" lon="-74.00584">
        <ele>159</ele>
        <time>2012-04-09T14:48:39Z</time>
      </trkpt>
      <trkpt lat="40.70773" lon="-74.00587">
        <ele>158</ele>
        <time>2012-04-09T14:48:40Z</time>
      </trkpt>
      <trkpt lat="40.70773" lon="-74.00589">
        <ele>157</ele>
        <time>2012-04-09T14:48:41Z</time>
      </trkpt>
      <trkpt lat="40.70775" lon="-74.00591">
        <ele>156</ele>
        <time>2012-04-09T14:48:42Z</time>
      </trkpt>
      <trkpt lat="40.70776" lon="-74.00592">
        <ele>155</ele>
        <time>2012-04-09T14:48:43Z</time>
      </trkpt>
      <trkpt lat="40.70776" lon="-74.00594">
        <ele>154</ele>
        <time>2012-04-09T14:48:44Z</time>
      </trkpt>
      <trkpt lat="40.70776" lon="-74.00597">
        <ele>153</ele>
        <time>2012-04-09T14:48:45Z</time>
      </trkpt>
      <trkpt lat="40.70776" lon="-74.00599">
        <ele>152</ele>
        <time>2012-04-09T14:48:46Z</time>
      </trkpt>
      <trkpt lat="40.70776" lon="-74.00602">
        <ele>151</ele>
        <time>2012-04-09T14:48:47Z</time>
      </trkpt>
      <trkpt lat="40.70776" lon="-74.00605">
        <ele>150</ele>
        <time>2012-04-09T14:48:48Z</time>
      </trkpt>
      <trkpt lat="40.70777" lon="-74.00608">
        <ele>149</ele>
        <time>2012-04-09T14:48:49Z</time>
      </trkpt>
      <trkpt lat="40.70776" lon="-74.00611">
        <ele>148</ele>
        <time>2012-04-09T14:48:50Z</time>
      </trkpt>
      <trkpt lat="40.70777" lon="-74.00613">
        <ele>146</ele>
        <time>2012-04-09T14:48:51Z</time>
      </trkpt>
      <trkpt lat="40.70777" lon="-74.00616">
        <ele>142</ele>
        <time>2012-04-09T14:48:53Z</time>
      </trkpt>
      <trkpt lat="40.70777" lon="-74.00617">
        <ele>138</ele>
        <time>2012-04-09T14:48:55Z</time>
      </trkpt>
      <trkpt lat="40.7078" lon="-74.00616">
        <ele>135</ele>
        <time>2012-04-09T14:48:57Z</time>
      </trkpt>
      <trkpt lat="40.70781" lon="-74.00618">
        <ele>129</ele>
        <time>2012-04-09T14:49:00Z</time>
      </trkpt>
      <trkpt lat="40.7078" lon="-74.0062">
        <ele>127</ele>
        <time>2012-04-09T14:49:01Z</time>
      </trkpt>
      <trkpt lat="40.70779" lon="-74.00623">
        <ele>123</ele>
        <time>2012-04-09T14:49:03Z</time>
      </trkpt>
      <trkpt lat="40.70778" lon="-74.00624">
        <ele>121</ele>
        <time>2012-04-09T14:49:04Z</time>
      </trkpt>
      <trkpt lat="40.70777" lon="-74.00625">
        <ele>117</ele>
        <time>2012-04-09T14:49:06Z</time>
      </trkpt>
      <trkpt lat="40.70778" lon="-74.00624">
        <ele>115</ele>
        <time>2012-04-09T14:49:07Z</time>
      </trkpt>
      <trkpt lat="40.70779" lon="-74.00625">
        <ele>113</ele>
        <time>2012-04-09T14:49:08Z</time>
      </trkpt>
      <trkpt lat="40.70781" lon="-74.00626">
        <ele>106</ele>
        <time>2012-04-09T14:49:11Z</time>
      </trkpt>
      <trkpt lat="40.70782" lon="-74.00626">
        <ele>91</ele>
        <time>2012-04-09T14:49:16Z</time>
      </trkpt>
      <trkpt lat="40.70784" lon="-74.00628">
        <ele>87</ele>
        <time>2012-04-09T14:49:18Z</time>
      </trkpt>
      <trkpt lat="40.70785" lon="-74.00628">
        <ele>85</ele>
        <time>2012-04-09T14:49:19Z</time>
      </trkpt>
      <trkpt lat="40.70787" lon="-74.00628">
        <ele>82</ele>
        <time>2012-04-09T14:49:20Z</time>
      </trkpt>
      <trkpt lat="40.70788" lon="-74.00629">
        <ele>80</ele>
        <time>2012-04-09T14:49:21Z</time>
      </trkpt>
      <trkpt lat="40.70789" lon="-74.00629">
        <ele>77</ele>
        <time>2012-04-09T14:49:22Z</time>
      </trkpt>
      <trkpt lat="40.70792" lon="-74.0063">
        <ele>72</ele>
        <time>2012-04-09T14:49:24Z</time>
      </trkpt>
      <trkpt lat="40.70793" lon="-74.00631">
        <ele>70</ele>
        <time>2012-04-09T14:49:25Z</time>
      </trkpt>
      <trkpt lat="40.70794" lon="-74.00632">
        <ele>68</ele>
        <time>2012-04-09T14:49:26Z</time>
      </trkpt>
      <trkpt lat="40.70797" lon="-74.00633">
        <ele>64</ele>
        <time>2012-04-09T14:49:28Z</time>
      </trkpt>
      <trkpt lat="40.70799" lon="-74.00637">
        <ele>60</ele>
        <time>2012-04-09T14:49:30Z</time>
      </trkpt>
      <trkpt lat="40.708" lon="-74.00638">
        <ele>58</ele>
        <time>2012-04-09T14:49:31Z</time>
      </trkpt>
      <trkpt lat="40.70802" lon="-74.00641">
        <ele>54</ele>
        <time>2012-04-09T14:49:33Z</time>
      </trkpt>
      <trkpt lat="40.70803" lon="-74.00644">
        <ele>50</ele>
        <time>2012-04-09T14:49:35Z</time>
      </trkpt>
      <trkpt lat="40.70803" lon="-74.00645">
        <ele>48</ele>
        <time>2012-04-09T14:49:36Z</time>
      </trkpt>
      <trkpt lat="40.70804" lon="-74.00648">
        <ele>46</ele>
        <time>2012-04-09T14:49:37Z</time>
      </trkpt>
      <trkpt lat="40.70805" lon="-74.0065">
        <ele>44</ele>
        <time>2012-04-09T14:49:38Z</time>
      </trkpt>
      <trkpt lat="40.70807" lon="-74.00653">
        <ele>42</ele>
        <time>2012-04-09T14:49:40Z</time>
      </trkpt>
      <trkpt lat="40.70809" lon="-74.00654">
        <ele>40</ele>
        <time>2012-04-09T14:49:41Z</time>
      </trkpt>
      <trkpt lat="40.70811" lon="-74.00655">
        <ele>36</ele>
        <time>2012-04-09T14:49:43Z</time>
      </trkpt>
      <trkpt lat="40.70812" lon="-74.00658">
        <ele>34</ele>
        <time>2012-04-09T14:49:45Z</time>
      </trkpt>
      <trkpt lat="40.70813" lon="-74.00659">
        <ele>33</ele>
        <time>2012-04-09T14:49:46Z</time>
      </trkpt>
      <trkpt lat="40.70813" lon="-74.00662">
        <ele>32</ele>
        <time>2012-04-09T14:49:47Z</time>
      </trkpt>
      <trkpt lat="40.70813" lon="-74.00665">
        <ele>31</ele>
        <time>2012-04-09T14:49:48Z</time>
      </trkpt>
      <trkpt lat="40.70811" lon="-74.00667">
        <ele>30</ele>
        <time>2012-04-09T14:49:49Z</time>
      </trkpt>
      <trkpt lat="40.70811" lon="-74.0067">
        <ele>29</ele>
        <time>2012-04-09T14:49:50Z</time>
      </trkpt>
      <trkpt lat="40.70812" lon="-74.00671">
        <ele>29</ele>
        <time>2012-04-09T14:49:51Z</time>
      </trkpt>
      <trkpt lat="40.70812" lon="-74.00675">
        <ele>29</ele>
        <time>2012-04-09T14:49:53Z</time>
      </trkpt>
      <trkpt lat="40.70811" lon="-74.00677">
        <ele>29</ele>
        <time>2012-04-09T14:49:55Z</time>
      </trkpt>
      <trkpt lat="40.70813" lon="-74.00679">
        <ele>29</ele>
        <time>2012-04-09T14:49:56Z</time>
      </trkpt>
      <trkpt lat="40.70814" lon="-74.00681">
        <ele>29</ele>
        <time>2012-04-09T14:49:57Z</time>
      </trkpt>
      <trkpt lat="40.70815" lon="-74.00683">
        <ele>29</ele>
        <time>2012-04-09T14:49:58Z</time>
      </trkpt>
      <trkpt lat="40.70815" lon="-74.00685">
        <ele>29</ele>
        <time>2012-04-09T14:50:00Z</time>
      </trkpt>
      <trkpt lat="40.70815" lon="-74.00687">
        <ele>31</ele>
        <time>2012-04-09T14:50:02Z</time>
      </trkpt>
      <trkpt lat="40.70815" lon="-74.0069">
        <ele>33</ele>
        <time>2012-04-09T14:50:04Z</time>
      </trkpt>
      <trkpt lat="40.70816" lon="-74.00692">
        <ele>34</ele>
        <time>2012-04-09T14:50:05Z</time>
      </trkpt>
      <trkpt lat="40.70817" lon="-74.00694">
        <ele>35</ele>
        <time>2012-04-09T14:50:06Z</time>
      </trkpt>
      <trkpt lat="40.70817" lon="-74.00695">
        <ele>37</ele>
        <time>2012-04-09T14:50:07Z</time>
      </trkpt>
      <trkpt lat="40.70818" lon="-74.00695">
        <ele>39</ele>
        <time>2012-04-09T14:50:08Z</time>
      </trkpt>
      <trkpt lat="40.7082" lon="-74.00697">
        <ele>41</ele>
        <time>2012-04-09T14:50:09Z</time>
      </trkpt>
      <trkpt lat="40.70821" lon="-74.00698">
        <ele>43</ele>
        <time>2012-04-09T14:50:10Z</time>
      </trkpt>
      <trkpt lat="40.7082" lon="-74.007">
        <ele>47</ele>
        <time>2012-04-09T14:50:12Z</time>
      </trkpt>
      <trkpt lat="40.70819" lon="-74.00701">
        <ele>49</ele>
        <time>2012-04-09T14:50:13Z</time>
      </trkpt>
      <trkpt lat="40.70817" lon="-74.00701">
        <ele>52</ele>
        <time>2012-04-09T14:50:15Z</time>
      </trkpt>
      <trkpt lat="40.70816" lon="-74.00701">
        <ele>53</ele>
        <time>2012-04-09T14:50:16Z</time>
      </trkpt>
      <trkpt lat="40.70815" lon="-74.00703">
        <ele>55</ele>
        <time>2012-04-09T14:50:18Z</time>
      </trkpt>
      <trkpt lat="40.70813" lon="-74.00703">
        <ele>56</ele>
        <time>2012-04-09T14:50:19Z</time>
      </trkpt>
      <trkpt lat="40.7081" lon="-74.00702">
        <ele>57</ele>
        <time>2012-04-09T14:50:20Z</time>
      </trkpt>
      <trkpt lat="40.70807" lon="-74.00702">
        <ele>57</ele>
        <time>2012-04-09T14:50:21Z</time>
      </trkpt>
      <trkpt lat="40.70804" lon="-74.007">
        <ele>57</ele>
        <time>2012-04-09T14:50:22Z</time>
      </trkpt>
      <trkpt lat="40.70801" lon="-74.007">
        <ele>57</ele>
        <time>2012-04-09T14:50:23Z</time>
      </trkpt>
      <trkpt lat="40.70798" lon="-74.007">
        <ele>57</ele>
        <time>2012-04-09T14:50:24Z</time>
      </trkpt>
      <trkpt lat="40.70795" lon="-74.007">
        <ele>56</ele>
        <time>2012-04-09T14:50:25Z</time>
      </trkpt>
      <trkpt lat="40.70792" lon="-74.007">
        <ele>55</ele>
        <time>2012-04-09T14:50:26Z</time>
      </trkpt>
      <trkpt lat="40.7079" lon="-74.007">
        <ele>54</ele>
        <time>2012-04-09T14:50:27Z</time>
      </trkpt>
      <trkpt lat="40.70789" lon="-74.007">
        <ele>53</ele>
        <time>2012-04-09T14:50:28Z</time>
      </trkpt>
      <trkpt lat="40.70787" lon="-74.00701">
        <ele>51</ele>
        <time>2012-04-09T14:50:29Z</time>
      </trkpt>
      <trkpt lat="40.70786" lon="-74.00703">
        <ele>49</ele>
        <time>2012-04-09T14:50:30Z</time>
      </trkpt>
      <trkpt lat="40.70784" lon="-74.00704">
        <ele>47</ele>
        <time>2012-04-09T14:50:31Z</time>
      </trkpt>
      <trkpt lat="40.70782" lon="-74.00705">
        <ele>45</ele>
        <time>2012-04-09T14:50:32Z</time>
      </trkpt>
      <trkpt lat="40.7078" lon="-74.00703">
        <ele>44</ele>
        <time>2012-04-09T14:50:33Z</time>
      </trkpt>
      <trkpt lat="40.70779" lon="-74.00704">
        <ele>43</ele>
        <time>2012-04-09T14:50:34Z</time>
      </trkpt>
      <trkpt lat="40.70777" lon="-74.00704">
        <ele>42</ele>
        <time>2012-04-09T14:50:35Z</time>
      </trkpt>
      <trkpt lat="40.70775" lon="-74.00703">
        <ele>41</ele>
        <time>2012-04-09T14:50:36Z</time>
      </trkpt>
      <trkpt lat="40.70774" lon="-74.00703">
        <ele>40</ele>
        <time>2012-04-09T14:50:37Z</time>
      </trkpt>
      <trkpt lat="40.70773" lon="-74.00703">
        <ele>39</ele>
        <time>2012-04-09T14:50:38Z</time>
      </trkpt>
      <trkpt lat="40.70772" lon="-74.00702">
        <ele>39</ele>
        <time>2012-04-09T14:50:39Z</time>
      </trkpt>
      <trkpt lat="40.7077" lon="-74.00701">
        <ele>39</ele>
        <time>2012-04-09T14:50:40Z</time>
      </trkpt>
      <trkpt lat="40.70769" lon="-74.00701">
        <ele>39</ele>
        <time>2012-04-09T14:50:41Z</time>
      </trkpt>
      <trkpt lat="40.70767" lon="-74.00702">
        <ele>39</ele>
        <time>2012-04-09T14:50:42Z</time>
      </trkpt>
      <trkpt lat="40.70766" lon="-74.00701">
        <ele>39</ele>
        <time>2012-04-09T14:50:43Z</time>
      </trkpt>
      <trkpt lat="40.70765" lon="-74.007">
        <ele>39</ele>
        <time>2012-04-09T14:50:45Z</time>
      </trkpt>
      <trkpt lat="40.70763" lon="-74.00701">
        <ele>39</ele>
        <time>2012-04-09T14:50:47Z</time>
      </trkpt>
      <trkpt lat="40.70763" lon="-74.00703">
        <ele>42</ele>
        <time>2012-04-09T14:50:50Z</time>
      </trkpt>
      <trkpt lat="40.70763" lon="-74.00705">
        <ele>44</ele>
        <time>2012-04-09T14:50:52Z</time>
      </trkpt>
      <trkpt lat="40.70764" lon="-74.00703">
        <ele>48</ele>
        <time>2012-04-09T14:50:54Z</time>
      </trkpt>
      <trkpt lat="40.70762" lon="-74.00702">
        <ele>63</ele>
        <time>2012-04-09T14:50:58Z</time>
      </trkpt>
      <trkpt lat="40.7076" lon="-74.00701">
        <ele>73</ele>
        <time>2012-04-09T14:51:00Z</time>
      </trkpt>
      <trkpt lat="40.70758" lon="-74.00701">
        <ele>83</ele>
        <time>2012-04-09T14:51:02Z</time>
      </trkpt>
      <trkpt lat="40.70755" lon="-74.00701">
        <ele>93</ele>
        <time>2012-04-09T14:51:04Z</time>
      </trkpt>
      <trkpt lat="40.70752" lon="-74.00702">
        <ele>101</ele>
        <time>2012-04-09T14:51:06Z</time>
      </trkpt>
      <trkpt lat="40.70751" lon="-74.00701">
        <ele>105</ele>
        <time>2012-04-09T14:51:07Z</time>
      </trkpt>
      <trkpt lat="40.70751" lon="-74.00703">
        <ele>109</ele>
        <time>2012-04-09T14:51:08Z</time>
      </trkpt>
      <trkpt lat="40.70749" lon="-74.00703">
        <ele>112</ele>
        <time>2012-04-09T14:51:09Z</time>
      </trkpt>
      <trkpt lat="40.7075" lon="-74.00703">
        <ele>123</ele>
        <time>2012-04-09T14:51:12Z</time>
      </trkpt>
      <trkpt lat="40.70752" lon="-74.00701">
        <ele>127</ele>
        <time>2012-04-09T14:51:15Z</time>
      </trkpt>
      <trkpt lat="40.7075" lon="-74.007">
        <ele>133</ele>
        <time>2012-04-09T14:51:18Z</time>
      </trkpt>
      <trkpt lat="40.70748" lon="-74.007">
        <ele>135</ele>
        <time>2012-04-09T14:51:20Z</time>
      </trkpt>
      <trkpt lat="40.70746" lon="-74.00699">
        <ele>136</ele>
        <time>2012-04-09T14:51:21Z</time>
      </trkpt>
      <trkpt lat="40.7075" lon="-74.00698">
        <ele>138</ele>
        <time>2012-04-09T14:51:24Z</time>
      </trkpt>
      <trkpt lat="40.70752" lon="-74.007">
        <ele>138</ele>
        <time>2012-04-09T14:51:25Z</time>
      </trkpt>
      <trkpt lat="40.70751" lon="-74.00698">
        <ele>138</ele>
        <time>2012-04-09T14:51:26Z</time>
      </trkpt>
      <trkpt lat="40.70747" lon="-74.00697">
        <ele>138</ele>
        <time>2012-04-09T14:51:27Z</time>
      </trkpt>
      <trkpt lat="40.70748" lon="-74.00699">
        <ele>137</ele>
        <time>2012-04-09T14:51:28Z</time>
      </trkpt>
      <trkpt lat="40.70746" lon="-74.007">
        <ele>136</ele>
        <time>2012-04-09T14:51:29Z</time>
      </trkpt>
      <trkpt lat="40.70748" lon="-74.00703">
        <ele>134</ele>
        <time>2012-04-09T14:51:30Z</time>
      </trkpt>
      <trkpt lat="40.7075" lon="-74.00705">
        <ele>131</ele>
        <time>2012-04-09T14:51:31Z</time>
      </trkpt>
      <trkpt lat="40.7075" lon="-74.00708">
        <ele>128</ele>
        <time>2012-04-09T14:51:32Z</time>
      </trkpt>
      <trkpt lat="40.7075" lon="-74.0071">
        <ele>125</ele>
        <time>2012-04-09T14:51:33Z</time>
      </trkpt>
      <trkpt lat="40.70751" lon="-74.00711">
        <ele>122</ele>
        <time>2012-04-09T14:51:34Z</time>
      </trkpt>
      <trkpt lat="40.7075" lon="-74.00715">
        <ele>115</ele>
        <time>2012-04-09T14:51:36Z</time>
      </trkpt>
      <trkpt lat="40.70748" lon="-74.00716">
        <ele>103</ele>
        <time>2012-04-09T14:51:39Z</time>
      </trkpt>
      <trkpt lat="40.70747" lon="-74.00718">
        <ele>99</ele>
        <time>2012-04-09T14:51:40Z</time>
      </trkpt>
      <trkpt lat="40.70746" lon="-74.00719">
        <ele>91</ele>
        <time>2012-04-09T14:51:42Z</time>
      </trkpt>
      <trkpt lat="40.70745" lon="-74.00717">
        <ele>81</ele>
        <time>2012-04-09T14:51:45Z</time>
      </trkpt>
      <trkpt lat="40.70744" lon="-74.00716">
        <ele>68</ele>
        <time>2012-04-09T14:51:49Z</time>
      </trkpt>
      <trkpt lat="40.70742" lon="-74.00717">
        <ele>59</ele>
        <time>2012-04-09T14:51:52Z</time>
      </trkpt>
      <trkpt lat="40.7074" lon="-74.00719">
        <ele>54</ele>
        <time>2012-04-09T14:51:54Z</time>
      </trkpt>
      <trkpt lat="40.70739" lon="-74.00721">
        <ele>52</ele>
        <time>2012-04-09T14:51:55Z</time>
      </trkpt>
      <trkpt lat="40.70738" lon="-74.00723">
        <ele>50</ele>
        <time>2012-04-09T14:51:56Z</time>
      </trkpt>
      <trkpt lat="40.70737" lon="-74.00725">
        <ele>48</ele>
        <time>2012-04-09T14:51:57Z</time>
      </trkpt>
      <trkpt lat="40.70736" lon="-74.00724">
        <ele>46</ele>
        <time>2012-04-09T14:51:58Z</time>
      </trkpt>
      <trkpt lat="40.70734" lon="-74.00723">
        <ele>44</ele>
        <time>2012-04-09T14:51:59Z</time>
      </trkpt>
      <trkpt lat="40.70733" lon="-74.00722">
        <ele>41</ele>
        <time>2012-04-09T14:52:01Z</time>
      </trkpt>
      <trkpt lat="40.70731" lon="-74.00723">
        <ele>39</ele>
        <time>2012-04-09T14:52:03Z</time>
      </trkpt>
      <trkpt lat="40.70731" lon="-74.00726">
        <ele>37</ele>
        <time>2012-04-09T14:52:05Z</time>
      </trkpt>
      <trkpt lat="40.70729" lon="-74.00726">
        <ele>32</ele>
        <time>2012-04-09T14:52:10Z</time>
      </trkpt>
      <trkpt lat="40.70728" lon="-74.00728">
        <ele>30</ele>
        <time>2012-04-09T14:52:18Z</time>
      </trkpt>
      <trkpt lat="40.70728" lon="-74.00726">
        <ele>30</ele>
        <time>2012-04-09T14:52:21Z</time>
      </trkpt>
      <trkpt lat="40.70727" lon="-74.00727">
        <ele>35</ele>
        <time>2012-04-09T14:52:30Z</time>
      </trkpt>
      <trkpt lat="40.70726" lon="-74.00729">
        <ele>35</ele>
        <time>2012-04-09T14:52:31Z</time>
      </trkpt>
      <trkpt lat="40.70725" lon="-74.0073">
        <ele>35</ele>
        <time>2012-04-09T14:52:32Z</time>
      </trkpt>
      <trkpt lat="40.70723" lon="-74.00732">
        <ele>35</ele>
        <time>2012-04-09T14:52:34Z</time>
      </trkpt>
      <trkpt lat="40.70722" lon="-74.00735">
        <ele>35</ele>
        <time>2012-04-09T14:52:36Z</time>
      </trkpt>
      <trkpt lat="40.70721" lon="-74.00737">
        <ele>36</ele>
        <time>2012-04-09T14:52:38Z</time>
      </trkpt>
      <trkpt lat="40.70721" lon="-74.00739">
        <ele>38</ele>
        <time>2012-04-09T14:52:40Z</time>
      </trkpt>
      <trkpt lat="40.70722" lon="-74.00742">
        <ele>40</ele>
        <time>2012-04-09T14:52:42Z</time>
      </trkpt>
      <trkpt lat="40.70723" lon="-74.00743">
        <ele>42</ele>
        <time>2012-04-09T14:52:44Z</time>
      </trkpt>
      <trkpt lat="40.70724" lon="-74.00745">
        <ele>44</ele>
        <time>2012-04-09T14:52:46Z</time>
      </trkpt>
      <trkpt lat="40.70724" lon="-74.00746">
        <ele>45</ele>
        <time>2012-04-09T14:52:47Z</time>
      </trkpt>
      <trkpt lat="40.70724" lon="-74.00748">
        <ele>45</ele>
        <time>2012-04-09T14:52:48Z</time>
      </trkpt>
      <trkpt lat="40.70724" lon="-74.0075">
        <ele>46</ele>
        <time>2012-04-09T14:52:49Z</time>
      </trkpt>
      <trkpt lat="40.70725" lon="-74.00751">
        <ele>46</ele>
        <time>2012-04-09T14:52:50Z</time>
      </trkpt>
      <trkpt lat="40.70725" lon="-74.00754">
        <ele>46</ele>
        <time>2012-04-09T14:52:51Z</time>
      </trkpt>
      <trkpt lat="40.70724" lon="-74.00757">
        <ele>46</ele>
        <time>2012-04-09T14:52:52Z</time>
      </trkpt>
      <trkpt lat="40.70724" lon="-74.00759">
        <ele>46</ele>
        <time>2012-04-09T14:52:53Z</time>
      </trkpt>
      <trkpt lat="40.70724" lon="-74.00761">
        <ele>46</ele>
        <time>2012-04-09T14:52:58Z</time>
      </trkpt>
      <trkpt lat="40.70725" lon="-74.0076">
        <ele>46</ele>
        <time>2012-04-09T14:53:00Z</time>
      </trkpt>
      <trkpt lat="40.70724" lon="-74.00761">
        <ele>46</ele>
        <time>2012-04-09T14:53:03Z</time>
      </trkpt>
      <trkpt lat="40.70724" lon="-74.00763">
        <ele>46</ele>
        <time>2012-04-09T14:53:04Z</time>
      </trkpt>
      <trkpt lat="40.70722" lon="-74.00766">
        <ele>46</ele>
        <time>2012-04-09T14:53:06Z</time>
      </trkpt>
      <trkpt lat="40.70721" lon="-74.00768">
        <ele>46</ele>
        <time>2012-04-09T14:53:09Z</time>
      </trkpt>
      <trkpt lat="40.70721" lon="-74.0077">
        <ele>46</ele>
        <time>2012-04-09T14:53:11Z</time>
      </trkpt>
      <trkpt lat="40.7072" lon="-74.00771">
        <ele>46</ele>
        <time>2012-04-09T14:53:12Z</time>
      </trkpt>
      <trkpt lat="40.7072" lon="-74.00773">
        <ele>46</ele>
        <time>2012-04-09T14:53:13Z</time>
      </trkpt>
      <trkpt lat="40.7072" lon="-74.00775">
        <ele>46</ele>
        <time>2012-04-09T14:53:14Z</time>
      </trkpt>
      <trkpt lat="40.7072" lon="-74.00777">
        <ele>47</ele>
        <time>2012-04-09T14:53:16Z</time>
      </trkpt>
      <trkpt lat="40.70722" lon="-74.00779">
        <ele>48</ele>
        <time>2012-04-09T14:53:18Z</time>
      </trkpt>
      <trkpt lat="40.70723" lon="-74.0078">
        <ele>49</ele>
        <time>2012-04-09T14:53:19Z</time>
      </trkpt>
      <trkpt lat="40.70724" lon="-74.00781">
        <ele>49</ele>
        <time>2012-04-09T14:53:20Z</time>
      </trkpt>
      <trkpt lat="40.70726" lon="-74.00781">
        <ele>50</ele>
        <time>2012-04-09T14:53:21Z</time>
      </trkpt>
      <trkpt lat="40.70728" lon="-74.0078">
        <ele>50</ele>
        <time>2012-04-09T14:53:22Z</time>
      </trkpt>
      <trkpt lat="40.70729" lon="-74.00781">
        <ele>51</ele>
        <time>2012-04-09T14:53:23Z</time>
      </trkpt>
      <trkpt lat="40.70732" lon="-74.00781">
        <ele>52</ele>
        <time>2012-04-09T14:53:24Z</time>
      </trkpt>
      <trkpt lat="40.70733" lon="-74.00782">
        <ele>53</ele>
        <time>2012-04-09T14:53:25Z</time>
      </trkpt>
      <trkpt lat="40.70733" lon="-74.00784">
        <ele>54</ele>
        <time>2012-04-09T14:53:27Z</time>
      </trkpt>
      <trkpt lat="40.70734" lon="-74.00784">
        <ele>55</ele>
        <time>2012-04-09T14:53:30Z</time>
      </trkpt>
      <trkpt lat="40.70736" lon="-74.00784">
        <ele>55</ele>
        <time>2012-04-09T14:53:36Z</time>
      </trkpt>
      <trkpt lat="40.70737" lon="-74.00785">
        <ele>55</ele>
        <time>2012-04-09T14:53:38Z</time>
      </trkpt>
      <trkpt lat="40.70739" lon="-74.00785">
        <ele>55</ele>
        <time>2012-04-09T14:53:40Z</time>
      </trkpt>
      <trkpt lat="40.7074" lon="-74.00786">
        <ele>55</ele>
        <time>2012-04-09T14:53:42Z</time>
      </trkpt>
      <trkpt lat="40.70742" lon="-74.00787">
        <ele>55</ele>
        <time>2012-04-09T14:53:44Z</time>
      </trkpt>
      <trkpt lat="40.70744" lon="-74.00789">
        <ele>55</ele>
        <time>2012-04-09T14:53:47Z</time>
      </trkpt>
      <trkpt lat="40.70745" lon="-74.0079">
        <ele>55</ele>
        <time>2012-04-09T14:53:48Z</time>
      </trkpt>
      <trkpt lat="40.70747" lon="-74.00791">
        <ele>55</ele>
        <time>2012-04-09T14:53:50Z</time>
      </trkpt>
      <trkpt lat="40.70748" lon="-74.00793">
        <ele>55</ele>
        <time>2012-04-09T14:53:52Z</time>
      </trkpt>
      <trkpt lat="40.7075" lon="-74.00793">
        <ele>55</ele>
        <time>2012-04-09T14:53:53Z</time>
      </trkpt>
      <trkpt lat="40.70752" lon="-74.00794">
        <ele>55</ele>
        <time>2012-04-09T14:53:54Z</time>
      </trkpt>
      <trkpt lat="40.70753" lon="-74.00795">
        <ele>55</ele>
        <time>2012-04-09T14:53:56Z</time>
      </trkpt>
      <trkpt lat="40.70755" lon="-74.00795">
        <ele>55</ele>
        <time>2012-04-09T14:53:57Z</time>
      </trkpt>
      <trkpt lat="40.70757" lon="-74.00795">
        <ele>55</ele>
        <time>2012-04-09T14:54:00Z</time>
      </trkpt>
      <trkpt lat="40.70757" lon="-74.00793">
        <ele>55</ele>
        <time>2012-04-09T14:54:04Z</time>
      </trkpt>
      <trkpt lat="40.7076" lon="-74.00792">
        <ele>55</ele>
        <time>2012-04-09T14:54:06Z</time>
      </trkpt>
      <trkpt lat="40.70763" lon="-74.0079">
        <ele>55</ele>
        <time>2012-04-09T14:54:07Z</time>
      </trkpt>
      <trkpt lat="40.70765" lon="-74.00789">
        <ele>55</ele>
        <time>2012-04-09T14:54:10Z</time>
      </trkpt>
      <trkpt lat="40.70766" lon="-74.00789">
        <ele>55</ele>
        <time>2012-04-09T14:54:11Z</time>
      </trkpt>
      <trkpt lat="40.70767" lon="-74.0079">
        <ele>55</ele>
        <time>2012-04-09T14:54:12Z</time>
      </trkpt>
      <trkpt lat="40.70768" lon="-74.0079">
        <ele>55</ele>
        <time>2012-04-09T14:54:13Z</time>
      </trkpt>
      <trkpt lat="40.7077" lon="-74.0079">
        <ele>55</ele>
        <time>2012-04-09T14:54:15Z</time>
      </trkpt>
      <trkpt lat="40.70771" lon="-74.00791">
        <ele>55</ele>
        <time>2012-04-09T14:54:17Z</time>
      </trkpt>
      <trkpt lat="40.70773" lon="-74.00791">
        <ele>55</ele>
        <time>2012-04-09T14:54:18Z</time>
      </trkpt>
      <trkpt lat="40.70774" lon="-74.00792">
        <ele>55</ele>
        <time>2012-04-09T14:54:19Z</time>
      </trkpt>
      <trkpt lat="40.70776" lon="-74.00793">
        <ele>55</ele>
        <time>2012-04-09T14:54:20Z</time>
      </trkpt>
      <trkpt lat="40.70774" lon="-74.00793">
        <ele>55</ele>
        <time>2012-04-09T14:54:23Z</time>
      </trkpt>
      <trkpt lat="40.70773" lon="-74.00794">
        <ele>55</ele>
        <time>2012-04-09T14:54:24Z</time>
      </trkpt>
      <trkpt lat="40.70773" lon="-74.00796">
        <ele>55</ele>
        <time>2012-04-09T14:54:25Z</time>
      </trkpt>
      <trkpt lat="40.70773" lon="-74.00799">
        <ele>55</ele>
        <time>2012-04-09T14:54:27Z</time>
      </trkpt>
      <trkpt lat="40.70773" lon="-74.00801">
        <ele>55</ele>
        <time>2012-04-09T14:54:29Z</time>
      </trkpt>
      <trkpt lat="40.70773" lon="-74.00803">
        <ele>55</ele>
        <time>2012-04-09T14:54:31Z</time>
      </trkpt>
      <trkpt lat="40.70775" lon="-74.00803">
        <ele>55</ele>
        <time>2012-04-09T14:54:32Z</time>
      </trkpt>
      <trkpt lat="40.70777" lon="-74.00804">
        <ele>55</ele>
        <time>2012-04-09T14:54:33Z</time>
      </trkpt>
      <trkpt lat="40.70779" lon="-74.00805">
        <ele>55</ele>
        <time>2012-04-09T14:54:34Z</time>
      </trkpt>
      <trkpt lat="40.70781" lon="-74.00805">
        <ele>55</ele>
        <time>2012-04-09T14:54:35Z</time>
      </trkpt>
      <trkpt lat="40.70782" lon="-74.00806">
        <ele>55</ele>
        <time>2012-04-09T14:54:37Z</time>
      </trkpt>
      <trkpt lat="40.7078" lon="-74.00806">
        <ele>55</ele>
        <time>2012-04-09T14:54:42Z</time>
      </trkpt>
      <trkpt lat="40.70779" lon="-74.00806">
        <ele>57</ele>
        <time>2012-04-09T14:54:44Z</time>
      </trkpt>
      <trkpt lat="40.70777" lon="-74.00806">
        <ele>63</ele>
        <time>2012-04-09T14:54:47Z</time>
      </trkpt>
      <trkpt lat="40.70776" lon="-74.00807">
        <ele>65</ele>
        <time>2012-04-09T14:54:48Z</time>
      </trkpt>
      <trkpt lat="40.70775" lon="-74.00809">
        <ele>68</ele>
        <time>2012-04-09T14:54:50Z</time>
      </trkpt>
      <trkpt lat="40.70774" lon="-74.00809">
        <ele>70</ele>
        <time>2012-04-09T14:54:52Z</time>
      </trkpt>
      <trkpt lat="40.70773" lon="-74.0081">
        <ele>70</ele>
        <time>2012-04-09T14:54:55Z</time>
      </trkpt>
      <trkpt lat="40.70771" lon="-74.00811">
        <ele>70</ele>
        <time>2012-04-09T14:54:59Z</time>
      </trkpt>
      <trkpt lat="40.70771" lon="-74.00813">
        <ele>70</ele>
        <time>2012-04-09T14:55:01Z</time>
      </trkpt>
      <trkpt lat="40.70771" lon="-74.00814">
        <ele>70</ele>
        <time>2012-04-09T14:55:03Z</time>
      </trkpt>
      <trkpt lat="40.70772" lon="-74.00816">
        <ele>70</ele>
        <time>2012-04-09T14:55:06Z</time>
      </trkpt>
      <trkpt lat="40.70773" lon="-74.00816">
        <ele>70</ele>
        <time>2012-04-09T14:55:09Z</time>
      </trkpt>
      <trkpt lat="40.70774" lon="-74.00817">
        <ele>70</ele>
        <time>2012-04-09T14:55:12Z</time>
      </trkpt>
      <trkpt lat="40.70776" lon="-74.00818">
        <ele>71</ele>
        <time>2012-04-09T14:55:15Z</time>
      </trkpt>
      <trkpt lat="40.70774" lon="-74.00819">
        <ele>73</ele>
        <time>2012-04-09T14:55:19Z</time>
      </trkpt>
      <trkpt lat="40.70772" lon="-74.00821">
        <ele>73</ele>
        <time>2012-04-09T14:55:21Z</time>
      </trkpt>
      <trkpt lat="40.7077" lon="-74.00822">
        <ele>73</ele>
        <time>2012-04-09T14:55:23Z</time>
      </trkpt>
      <trkpt lat="40.70768" lon="-74.00825">
        <ele>73</ele>
        <time>2012-04-09T14:55:25Z</time>
      </trkpt>
      <trkpt lat="40.70767" lon="-74.00826">
        <ele>73</ele>
        <time>2012-04-09T14:55:26Z</time>
      </trkpt>
      <trkpt lat="40.70765" lon="-74.00826">
        <ele>73</ele>
        <time>2012-04-09T14:55:27Z</time>
      </trkpt>
      <trkpt lat="40.70764" lon="-74.00826">
        <ele>73</ele>
        <time>2012-04-09T14:55:28Z</time>
      </trkpt>
      <trkpt lat="40.70762" lon="-74.00827">
        <ele>73</ele>
        <time>2012-04-09T14:55:29Z</time>
      </trkpt>
      <trkpt lat="40.70761" lon="-74.00828">
        <ele>73</ele>
        <time>2012-04-09T14:55:30Z</time>
      </trkpt>
      <trkpt lat="40.70759" lon="-74.00829">
        <ele>73</ele>
        <time>2012-04-09T14:55:31Z</time>
      </trkpt>
      <trkpt lat="40.70758" lon="-74.00829">
        <ele>73</ele>
        <time>2012-04-09T14:55:32Z</time>
      </trkpt>
      <trkpt lat="40.70756" lon="-74.00829">
        <ele>73</ele>
        <time>2012-04-09T14:55:33Z</time>
      </trkpt>
      <trkpt lat="40.70755" lon="-74.00832">
        <ele>73</ele>
        <time>2012-04-09T14:55:35Z</time>
      </trkpt>
      <trkpt lat="40.70754" lon="-74.00835">
        <ele>73</ele>
        <time>2012-04-09T14:55:36Z</time>
      </trkpt>
      <trkpt lat="40.70754" lon="-74.00836">
        <ele>73</ele>
        <time>2012-04-09T14:55:37Z</time>
      </trkpt>
      <trkpt lat="40.70754" lon="-74.00839">
        <ele>73</ele>
        <time>2012-04-09T14:55:38Z</time>
      </trkpt>
      <trkpt lat="40.70755" lon="-74.00842">
        <ele>73</ele>
        <time>2012-04-09T14:55:39Z</time>
      </trkpt>
      <trkpt lat="40.70755" lon="-74.00844">
        <ele>73</ele>
        <time>2012-04-09T14:55:40Z</time>
      </trkpt>
      <trkpt lat="40.70755" lon="-74.00847">
        <ele>73</ele>
        <time>2012-04-09T14:55:41Z</time>
      </trkpt>
      <trkpt lat="40.70757" lon="-74.00851">
        <ele>73</ele>
        <time>2012-04-09T14:55:42Z</time>
      </trkpt>
      <trkpt lat="40.70757" lon="-74.00853">
        <ele>73</ele>
        <time>2012-04-09T14:55:43Z</time>
      </trkpt>
      <trkpt lat="40.70758" lon="-74.00856">
        <ele>73</ele>
        <time>2012-04-09T14:55:44Z</time>
      </trkpt>
      <trkpt lat="40.70758" lon="-74.00858">
        <ele>73</ele>
        <time>2012-04-09T14:55:45Z</time>
      </trkpt>
      <trkpt lat="40.70759" lon="-74.00861">
        <ele>73</ele>
        <time>2012-04-09T14:55:46Z</time>
      </trkpt>
      <trkpt lat="40.7076" lon="-74.00864">
        <ele>73</ele>
        <time>2012-04-09T14:55:47Z</time>
      </trkpt>
      <trkpt lat="40.7076" lon="-74.00866">
        <ele>73</ele>
        <time>2012-04-09T14:55:48Z</time>
      </trkpt>
      <trkpt lat="40.7076" lon="-74.00869">
        <ele>73</ele>
        <time>2012-04-09T14:55:49Z</time>
      </trkpt>
      <trkpt lat="40.7076" lon="-74.00871">
        <ele>73</ele>
        <time>2012-04-09T14:55:50Z</time>
      </trkpt>
      <trkpt lat="40.7076" lon="-74.00873">
        <ele>73</ele>
        <time>2012-04-09T14:55:51Z</time>
      </trkpt>
      <trkpt lat="40.70761" lon="-74.00875">
        <ele>73</ele>
        <time>2012-04-09T14:55:52Z</time>
      </trkpt>
      <trkpt lat="40.70761" lon="-74.00877">
        <ele>73</ele>
        <time>2012-04-09T14:55:53Z</time>
      </trkpt>
      <trkpt lat="40.7076" lon="-74.0088">
        <ele>73</ele>
        <time>2012-04-09T14:55:55Z</time>
      </trkpt>
      <trkpt lat="40.70759" lon="-74.0088">
        <ele>73</ele>
        <time>2012-04-09T14:55:57Z</time>
      </trkpt>
      <trkpt lat="40.70757" lon="-74.0088">
        <ele>73</ele>
        <time>2012-04-09T14:55:58Z</time>
      </trkpt>
      <trkpt lat="40.70756" lon="-74.0088">
        <ele>73</ele>
        <time>2012-04-09T14:55:59Z</time>
      </trkpt>
      <trkpt lat="40.70755" lon="-74.0088">
        <ele>73</ele>
        <time>2012-04-09T14:55:59Z</time>
      </trkpt>
      <trkpt lat="40.70753" lon="-74.00878">
        <ele>73</ele>
        <time>2012-04-09T14:56:02Z</time>
      </trkpt>
      <trkpt lat="40.70751" lon="-74.00878">
        <ele>73</ele>
        <time>2012-04-09T14:56:04Z</time>
      </trkpt>
      <trkpt lat="40.7075" lon="-74.00877">
        <ele>73</ele>
        <time>2012-04-09T14:56:06Z</time>
      </trkpt>
      <trkpt lat="40.70749" lon="-74.00877">
        <ele>73</ele>
        <time>2012-04-09T14:56:09Z</time>
      </trkpt>
      <trkpt lat="40.70747" lon="-74.00876">
        <ele>73</ele>
        <time>2012-04-09T14:56:10Z</time>
      </trkpt>
      <trkpt lat="40.70746" lon="-74.00875">
        <ele>73</ele>
        <time>2012-04-09T14:56:10Z</time>
      </trkpt>
      <trkpt lat="40.70744" lon="-74.00874">
        <ele>73</ele>
        <time>2012-04-09T14:56:12Z</time>
      </trkpt>
      <trkpt lat="40.70742" lon="-74.00873">
        <ele>73</ele>
        <time>2012-04-09T14:56:13Z</time>
      </trkpt>
      <trkpt lat="40.70739" lon="-74.00871">
        <ele>73</ele>
        <time>2012-04-09T14:56:14Z</time>
      </trkpt>
      <trkpt lat="40.70736" lon="-74.00871">
        <ele>73</ele>
        <time>2012-04-09T14:56:15Z</time>
      </trkpt>
      <trkpt lat="40.70731" lon="-74.00869">
        <ele>73</ele>
        <time>2012-04-09T14:56:15Z</time>
      </trkpt>
      <trkpt lat="40.70728" lon="-74.00867">
        <ele>73</ele>
        <time>2012-04-09T14:56:17Z</time>
      </trkpt>
      <trkpt lat="40.70725" lon="-74.00867">
        <ele>72</ele>
        <time>2012-04-09T14:56:18Z</time>
      </trkpt>
      <trkpt lat="40.70723" lon="-74.00866">
        <ele>72</ele>
        <time>2012-04-09T14:56:19Z</time>
      </trkpt>
      <trkpt lat="40.70721" lon="-74.00865">
        <ele>71</ele>
        <time>2012-04-09T14:56:20Z</time>
      </trkpt>
      <trkpt lat="40.70719" lon="-74.00864">
        <ele>70</ele>
        <time>2012-04-09T14:56:21Z</time>
      </trkpt>
      <trkpt lat="40.70719" lon="-74.00863">
        <ele>68</ele>
        <time>2012-04-09T14:56:23Z</time>
      </trkpt>
      <trkpt lat="40.70719" lon="-74.00858">
        <ele>67</ele>
        <time>2012-04-09T14:56:26Z</time>
      </trkpt>
      <trkpt lat="40.70717" lon="-74.00857">
        <ele>66</ele>
        <time>2012-04-09T14:56:27Z</time>
      </trkpt>
      <trkpt lat="40.70716" lon="-74.00855">
        <ele>65</ele>
        <time>2012-04-09T14:56:28Z</time>
      </trkpt>
      <trkpt lat="40.70716" lon="-74.00852">
        <ele>64</ele>
        <time>2012-04-09T14:56:29Z</time>
      </trkpt>
      <trkpt lat="40.70714" lon="-74.00852">
        <ele>63</ele>
        <time>2012-04-09T14:56:30Z</time>
      </trkpt>
      <trkpt lat="40.70713" lon="-74.00851">
        <ele>62</ele>
        <time>2012-04-09T14:56:31Z</time>
      </trkpt>
      <trkpt lat="40.70712" lon="-74.00848">
        <ele>61</ele>
        <time>2012-04-09T14:56:32Z</time>
      </trkpt>
      <trkpt lat="40.70711" lon="-74.00848">
        <ele>60</ele>
        <time>2012-04-09T14:56:33Z</time>
      </trkpt>
      <trkpt lat="40.7071" lon="-74.00845">
        <ele>59</ele>
        <time>2012-04-09T14:56:34Z</time>
      </trkpt>
      <trkpt lat="40.70709" lon="-74.00845">
        <ele>58</ele>
        <time>2012-04-09T14:56:35Z</time>
      </trkpt>
      <trkpt lat="40.70708" lon="-74.00843">
        <ele>57</ele>
        <time>2012-04-09T14:56:36Z</time>
      </trkpt>
      <trkpt lat="40.70707" lon="-74.00842">
        <ele>56</ele>
        <time>2012-04-09T14:56:37Z</time>
      </trkpt>
      <trkpt lat="40.70705" lon="-74.00842">
        <ele>55</ele>
        <time>2012-04-09T14:56:38Z</time>
      </trkpt>
      <trkpt lat="40.70703" lon="-74.00842">
        <ele>54</ele>
        <time>2012-04-09T14:56:39Z</time>
      </trkpt>
      <trkpt lat="40.707" lon="-74.00842">
        <ele>52</ele>
        <time>2012-04-09T14:56:41Z</time>
      </trkpt>
      <trkpt lat="40.70699" lon="-74.00844">
        <ele>50</ele>
        <time>2012-04-09T14:56:43Z</time>
      </trkpt>
      <trkpt lat="40.70698" lon="-74.00844">
        <ele>45</ele>
        <time>2012-04-09T14:56:48Z</time>
      </trkpt>
      <trkpt lat="40.70696" lon="-74.00844">
        <ele>44</ele>
        <time>2012-04-09T14:56:49Z</time>
      </trkpt>
      <trkpt lat="40.70695" lon="-74.00844">
        <ele>44</ele>
        <time>2012-04-09T14:56:53Z</time>
      </trkpt>
      <trkpt lat="40.70693" lon="-74.00844">
        <ele>44</ele>
        <time>2012-04-09T14:56:54Z</time>
      </trkpt>
      <trkpt lat="40.70692" lon="-74.00845">
        <ele>44</ele>
        <time>2012-04-09T14:56:56Z</time>
      </trkpt>
      <trkpt lat="40.7069" lon="-74.00845">
        <ele>44</ele>
        <time>2012-04-09T14:56:57Z</time>
      </trkpt>
      <trkpt lat="40.70689" lon="-74.00846">
        <ele>44</ele>
        <time>2012-04-09T14:56:59Z</time>
      </trkpt>
      <trkpt lat="40.7069" lon="-74.00845">
        <ele>44</ele>
        <time>2012-04-09T14:57:01Z</time>
      </trkpt>
      <trkpt lat="40.70692" lon="-74.00843">
        <ele>44</ele>
        <time>2012-04-09T14:57:03Z</time>
      </trkpt>
      <trkpt lat="40.70694" lon="-74.00845">
        <ele>44</ele>
        <time>2012-04-09T14:57:05Z</time>
      </trkpt>
      <trkpt lat="40.70694" lon="-74.00846">
        <ele>44</ele>
        <time>2012-04-09T14:57:06Z</time>
      </trkpt>
      <trkpt lat="40.70695" lon="-74.00848">
        <ele>44</ele>
        <time>2012-04-09T14:57:07Z</time>
      </trkpt>
      <trkpt lat="40.70698" lon="-74.00849">
        <ele>44</ele>
        <time>2012-04-09T14:57:08Z</time>
      </trkpt>
      <trkpt lat="40.70702" lon="-74.00851">
        <ele>44</ele>
        <time>2012-04-09T14:57:09Z</time>
      </trkpt>
      <trkpt lat="40.70704" lon="-74.00852">
        <ele>44</ele>
        <time>2012-04-09T14:57:10Z</time>
      </trkpt>
      <trkpt lat="40.70707" lon="-74.00853">
        <ele>44</ele>
        <time>2012-04-09T14:57:11Z</time>
      </trkpt>
      <trkpt lat="40.70708" lon="-74.00854">
        <ele>44</ele>
        <time>2012-04-09T14:57:12Z</time>
      </trkpt>
      <trkpt lat="40.7071" lon="-74.00855">
        <ele>45</ele>
        <time>2012-04-09T14:57:13Z</time>
      </trkpt>
      <trkpt lat="40.70712" lon="-74.00856">
        <ele>45</ele>
        <time>2012-04-09T14:57:14Z</time>
      </trkpt>
      <trkpt lat="40.70713" lon="-74.00857">
        <ele>46</ele>
        <time>2012-04-09T14:57:15Z</time>
      </trkpt>
      <trkpt lat="40.70715" lon="-74.00857">
        <ele>48</ele>
        <time>2012-04-09T14:57:17Z</time>
      </trkpt>
      <trkpt lat="40.70716" lon="-74.00858">
        <ele>48</ele>
        <time>2012-04-09T14:57:18Z</time>
      </trkpt>
      <trkpt lat="40.70718" lon="-74.0086">
        <ele>50</ele>
        <time>2012-04-09T14:57:20Z</time>
      </trkpt>
      <trkpt lat="40.7072" lon="-74.00861">
        <ele>51</ele>
        <time>2012-04-09T14:57:22Z</time>
      </trkpt>
      <trkpt lat="40.70721" lon="-74.00863">
        <ele>52</ele>
        <time>2012-04-09T14:57:23Z</time>
      </trkpt>
      <trkpt lat="40.70723" lon="-74.00863">
        <ele>52</ele>
        <time>2012-04-09T14:57:24Z</time>
      </trkpt>
      <trkpt lat="40.70724" lon="-74.00864">
        <ele>53</ele>
        <time>2012-04-09T14:57:25Z</time>
      </trkpt>
      <trkpt lat="40.70725" lon="-74.00865">
        <ele>55</ele>
        <time>2012-04-09T14:57:27Z</time>
      </trkpt>
      <trkpt lat="40.70728" lon="-74.00867">
        <ele>57</ele>
        <time>2012-04-09T14:57:29Z</time>
      </trkpt>
      <trkpt lat="40.7073" lon="-74.00869">
        <ele>59</ele>
        <time>2012-04-09T14:57:31Z</time>
      </trkpt>
      <trkpt lat="40.70731" lon="-74.00871">
        <ele>61</ele>
        <time>2012-04-09T14:57:34Z</time>
      </trkpt>
      <trkpt lat="40.70732" lon="-74.00871">
        <ele>63</ele>
        <time>2012-04-09T14:57:37Z</time>
      </trkpt>
      <trkpt lat="40.70731" lon="-74.00873">
        <ele>64</ele>
        <time>2012-04-09T14:57:39Z</time>
      </trkpt>
      <trkpt lat="40.70731" lon="-74.00875">
        <ele>64</ele>
        <time>2012-04-09T14:57:41Z</time>
      </trkpt>
      <trkpt lat="40.70733" lon="-74.00877">
        <ele>64</ele>
        <time>2012-04-09T14:57:43Z</time>
      </trkpt>
      <trkpt lat="40.70733" lon="-74.00879">
        <ele>64</ele>
        <time>2012-04-09T14:57:45Z</time>
      </trkpt>
      <trkpt lat="40.70733" lon="-74.0088">
        <ele>64</ele>
        <time>2012-04-09T14:57:48Z</time>
      </trkpt>
      <trkpt lat="40.70732" lon="-74.00882">
        <ele>64</ele>
        <time>2012-04-09T14:57:50Z</time>
      </trkpt>
      <trkpt lat="40.70732" lon="-74.00884">
        <ele>64</ele>
        <time>2012-04-09T14:57:52Z</time>
      </trkpt>
      <trkpt lat="40.70732" lon="-74.00886">
        <ele>63</ele>
        <time>2012-04-09T14:57:53Z</time>
      </trkpt>
      <trkpt lat="40.70731" lon="-74.00887">
        <ele>62</ele>
        <time>2012-04-09T14:57:54Z</time>
      </trkpt>
      <trkpt lat="40.70731" lon="-74.00889">
        <ele>61</ele>
        <time>2012-04-09T14:57:55Z</time>
      </trkpt>
      <trkpt lat="40.70731" lon="-74.0089">
        <ele>60</ele>
        <time>2012-04-09T14:57:56Z</time>
      </trkpt>
      <trkpt lat="40.70731" lon="-74.00888">
        <ele>57</ele>
        <time>2012-04-09T14:57:59Z</time>
      </trkpt>
      <trkpt lat="40.70731" lon="-74.00887">
        <ele>56</ele>
        <time>2012-04-09T14:58:02Z</time>
      </trkpt>
      <trkpt lat="40.70729" lon="-74.00886">
        <ele>56</ele>
        <time>2012-04-09T14:58:03Z</time>
      </trkpt>
      <trkpt lat="40.70728" lon="-74.00885">
        <ele>55</ele>
        <time>2012-04-09T14:58:05Z</time>
      </trkpt>
      <trkpt lat="40.70726" lon="-74.00883">
        <ele>55</ele>
        <time>2012-04-09T14:58:07Z</time>
      </trkpt>
      <trkpt lat="40.70725" lon="-74.00881">
        <ele>54</ele>
        <time>2012-04-09T14:58:08Z</time>
      </trkpt>
      <trkpt lat="40.70724" lon="-74.0088">
        <ele>54</ele>
        <time>2012-04-09T14:58:10Z</time>
      </trkpt>
      <trkpt lat="40.70726" lon="-74.00878">
        <ele>54</ele>
        <time>2012-04-09T14:58:12Z</time>
      </trkpt>
      <trkpt lat="40.70725" lon="-74.0088">
        <ele>54</ele>
        <time>2012-04-09T14:58:17Z</time>
      </trkpt>
      <trkpt lat="40.70724" lon="-74.00881">
        <ele>53</ele>
        <time>2012-04-09T14:58:19Z</time>
      </trkpt>
      <trkpt lat="40.70722" lon="-74.00883">
        <ele>52</ele>
        <time>2012-04-09T14:58:20Z</time>
      </trkpt>
      <trkpt lat="40.70723" lon="-74.00885">
        <ele>51</ele>
        <time>2012-04-09T14:58:23Z</time>
      </trkpt>
      <trkpt lat="40.70723" lon="-74.00887">
        <ele>51</ele>
        <time>2012-04-09T14:58:26Z</time>
      </trkpt>
      <trkpt lat="40.70722" lon="-74.00888">
        <ele>51</ele>
        <time>2012-04-09T14:58:29Z</time>
      </trkpt>
      <trkpt lat="40.70721" lon="-74.0089">
        <ele>51</ele>
        <time>2012-04-09T14:58:32Z</time>
      </trkpt>
      <trkpt lat="40.7072" lon="-74.0089">
        <ele>51</ele>
        <time>2012-04-09T14:58:34Z</time>
      </trkpt>
      <trkpt lat="40.70719" lon="-74.0089">
        <ele>51</ele>
        <time>2012-04-09T14:58:36Z</time>
      </trkpt>
      <trkpt lat="40.70717" lon="-74.0089">
        <ele>51</ele>
        <time>2012-04-09T14:58:36Z</time>
      </trkpt>
      <trkpt lat="40.70716" lon="-74.0089">
        <ele>51</ele>
        <time>2012-04-09T14:58:38Z</time>
      </trkpt>
      <trkpt lat="40.70715" lon="-74.0089">
        <ele>51</ele>
        <time>2012-04-09T14:58:39Z</time>
      </trkpt>
      <trkpt lat="40.70714" lon="-74.00892">
        <ele>51</ele>
        <time>2012-04-09T14:58:44Z</time>
      </trkpt>
      <trkpt lat="40.70714" lon="-74.00893">
        <ele>51</ele>
        <time>2012-04-09T14:58:48Z</time>
      </trkpt>
      <trkpt lat="40.70714" lon="-74.0089">
        <ele>52</ele>
        <time>2012-04-09T14:58:51Z</time>
      </trkpt>
      <trkpt lat="40.70717" lon="-74.00889">
        <ele>54</ele>
        <time>2012-04-09T14:58:55Z</time>
      </trkpt>
      <trkpt lat="40.70718" lon="-74.00887">
        <ele>55</ele>
        <time>2012-04-09T14:58:57Z</time>
      </trkpt>
      <trkpt lat="40.70719" lon="-74.00885">
        <ele>55</ele>
        <time>2012-04-09T14:58:58Z</time>
      </trkpt>
      <trkpt lat="40.70721" lon="-74.00883">
        <ele>55</ele>
        <time>2012-04-09T14:58:58Z</time>
      </trkpt>
      <trkpt lat="40.70723" lon="-74.00882">
        <ele>55</ele>
        <time>2012-04-09T14:59:00Z</time>
      </trkpt>
      <trkpt lat="40.70724" lon="-74.0088">
        <ele>55</ele>
        <time>2012-04-09T14:59:01Z</time>
      </trkpt>
      <trkpt lat="40.70724" lon="-74.00878">
        <ele>55</ele>
        <time>2012-04-09T14:59:02Z</time>
      </trkpt>
      <trkpt lat="40.70724" lon="-74.00877">
        <ele>55</ele>
        <time>2012-04-09T14:59:03Z</time>
      </trkpt>
      <trkpt lat="40.70725" lon="-74.00878">
        <ele>55</ele>
        <time>2012-04-09T14:59:07Z</time>
      </trkpt>
      <trkpt lat="40.70726" lon="-74.00878">
        <ele>55</ele>
        <time>2012-04-09T14:59:09Z</time>
      </trkpt>
      <trkpt lat="40.70728" lon="-74.0088">
        <ele>55</ele>
        <time>2012-04-09T14:59:15Z</time>
      </trkpt>
      <trkpt lat="40.70729" lon="-74.00883">
        <ele>55</ele>
        <time>2012-04-09T14:59:16Z</time>
      </trkpt>
      <trkpt lat="40.70729" lon="-74.00884">
        <ele>55</ele>
        <time>2012-04-09T14:59:18Z</time>
      </trkpt>
      <trkpt lat="40.70729" lon="-74.00886">
        <ele>55</ele>
        <time>2012-04-09T14:59:18Z</time>
      </trkpt>
      <trkpt lat="40.70729" lon="-74.00888">
        <ele>55</ele>
        <time>2012-04-09T14:59:20Z</time>
      </trkpt>
      <trkpt lat="40.70729" lon="-74.0089">
        <ele>55</ele>
        <time>2012-04-09T14:59:21Z</time>
      </trkpt>
      <trkpt lat="40.70729" lon="-74.00892">
        <ele>55</ele>
        <time>2012-04-09T14:59:22Z</time>
      </trkpt>
      <trkpt lat="40.7073" lon="-74.00894">
        <ele>54</ele>
        <time>2012-04-09T14:59:22Z</time>
      </trkpt>
      <trkpt lat="40.70731" lon="-74.00896">
        <ele>54</ele>
        <time>2012-04-09T14:59:23Z</time>
      </trkpt>
      <trkpt lat="40.7073" lon="-74.00896">
        <ele>53</ele>
        <time>2012-04-09T14:59:27Z</time>
      </trkpt>
      <trkpt lat="40.70729" lon="-74.00896">
        <ele>53</ele>
        <time>2012-04-09T14:59:27Z</time>
      </trkpt>
      <trkpt lat="40.70727" lon="-74.00896">
        <ele>53</ele>
        <time>2012-04-09T14:59:28Z</time>
      </trkpt>
      <trkpt lat="40.70725" lon="-74.00895">
        <ele>53</ele>
        <time>2012-04-09T14:59:30Z</time>
      </trkpt>
      <trkpt lat="40.70723" lon="-74.00894">
        <ele>53</ele>
        <time>2012-04-09T14:59:30Z</time>
      </trkpt>
      <trkpt lat="40.70722" lon="-74.00894">
        <ele>53</ele>
        <time>2012-04-09T14:59:32Z</time>
      </trkpt>
      <trkpt lat="40.70721" lon="-74.00894">
        <ele>53</ele>
        <time>2012-04-09T14:59:33Z</time>
      </trkpt>
      <trkpt lat="40.70719" lon="-74.00894">
        <ele>53</ele>
        <time>2012-04-09T14:59:34Z</time>
      </trkpt>
      <trkpt lat="40.70718" lon="-74.00894">
        <ele>53</ele>
        <time>2012-04-09T14:59:34Z</time>
      </trkpt>
      <trkpt lat="40.70717" lon="-74.00894">
        <ele>53</ele>
        <time>2012-04-09T14:59:35Z</time>
      </trkpt>
      <trkpt lat="40.70715" lon="-74.00894">
        <ele>53</ele>
        <time>2012-04-09T14:59:37Z</time>
      </trkpt>
      <trkpt lat="40.70714" lon="-74.00894">
        <ele>53</ele>
        <time>2012-04-09T14:59:38Z</time>
      </trkpt>
      <trkpt lat="40.70712" lon="-74.00895">
        <ele>53</ele>
        <time>2012-04-09T14:59:40Z</time>
      </trkpt>
      <trkpt lat="40.7071" lon="-74.00895">
        <ele>53</ele>
        <time>2012-04-09T14:59:42Z</time>
      </trkpt>
      <trkpt lat="40.70709" lon="-74.00896">
        <ele>53</ele>
        <time>2012-04-09T14:59:42Z</time>
      </trkpt>
      <trkpt lat="40.70708" lon="-74.00896">
        <ele>53</ele>
        <time>2012-04-09T14:59:44Z</time>
      </trkpt>
      <trkpt lat="40.70706" lon="-74.00896">
        <ele>53</ele>
        <time>2012-04-09T14:59:45Z</time>
      </trkpt>
      <trkpt lat="40.70705" lon="-74.00896">
        <ele>53</ele>
        <time>2012-04-09T14:59:47Z</time>
      </trkpt>
      <trkpt lat="40.70703" lon="-74.00898">
        <ele>53</ele>
        <time>2012-04-09T14:59:48Z</time>
      </trkpt>
      <trkpt lat="40.70702" lon="-74.00897">
        <ele>53</ele>
        <time>2012-04-09T14:59:50Z</time>
      </trkpt>
      <trkpt lat="40.70701" lon="-74.00896">
        <ele>53</ele>
        <time>2012-04-09T14:59:54Z</time>
      </trkpt>
      <trkpt lat="40.70702" lon="-74.00894">
        <ele>53</ele>
        <time>2012-04-09T14:59:55Z</time>
      </trkpt>
      <trkpt lat="40.70701" lon="-74.00895">
        <ele>53</ele>
        <time>2012-04-09T14:59:58Z</time>
      </trkpt>
      <trkpt lat="40.707" lon="-74.00897">
        <ele>53</ele>
        <time>2012-04-09T15:00:00Z</time>
      </trkpt>
      <trkpt lat="40.70699" lon="-74.00899">
        <ele>53</ele>
        <time>2012-04-09T15:00:01Z</time>
      </trkpt>
      <trkpt lat="40.70697" lon="-74.00899">
        <ele>53</ele>
        <time>2012-04-09T15:00:04Z</time>
      </trkpt>
      <trkpt lat="40.70696" lon="-74.00899">
        <ele>53</ele>
        <time>2012-04-09T15:00:06Z</time>
      </trkpt>
      <trkpt lat="40.70694" lon="-74.00898">
        <ele>53</ele>
        <time>2012-04-09T15:00:06Z</time>
      </trkpt>
      <trkpt lat="40.70693" lon="-74.00896">
        <ele>53</ele>
        <time>2012-04-09T15:00:08Z</time>
      </trkpt>
      <trkpt lat="40.70694" lon="-74.00894">
        <ele>53</ele>
        <time>2012-04-09T15:00:09Z</time>
      </trkpt>
      <trkpt lat="40.70695" lon="-74.00892">
        <ele>53</ele>
        <time>2012-04-09T15:00:10Z</time>
      </trkpt>
      <trkpt lat="40.70696" lon="-74.0089">
        <ele>53</ele>
        <time>2012-04-09T15:00:11Z</time>
      </trkpt>
      <trkpt lat="40.70695" lon="-74.00892">
        <ele>53</ele>
        <time>2012-04-09T15:00:13Z</time>
      </trkpt>
      <trkpt lat="40.70695" lon="-74.00893">
        <ele>53</ele>
        <time>2012-04-09T15:00:14Z</time>
      </trkpt>
      <trkpt lat="40.70695" lon="-74.00895">
        <ele>53</ele>
        <time>2012-04-09T15:00:15Z</time>
      </trkpt>
      <trkpt lat="40.70694" lon="-74.00897">
        <ele>53</ele>
        <time>2012-04-09T15:00:16Z</time>
      </trkpt>
      <trkpt lat="40.70692" lon="-74.00897">
        <ele>53</ele>
        <time>2012-04-09T15:00:17Z</time>
      </trkpt>
      <trkpt lat="40.70693" lon="-74.00901">
        <ele>53</ele>
        <time>2012-04-09T15:00:19Z</time>
      </trkpt>
      <trkpt lat="40.70694" lon="-74.00903">
        <ele>53</ele>
        <time>2012-04-09T15:00:21Z</time>
      </trkpt>
      <trkpt lat="40.70694" lon="-74.00905">
        <ele>53</ele>
        <time>2012-04-09T15:00:22Z</time>
      </trkpt>
      <trkpt lat="40.70694" lon="-74.00907">
        <ele>52</ele>
        <time>2012-04-09T15:00:23Z</time>
      </trkpt>
      <trkpt lat="40.70694" lon="-74.00909">
        <ele>52</ele>
        <time>2012-04-09T15:00:23Z</time>
      </trkpt>
      <trkpt lat="40.70693" lon="-74.00911">
        <ele>52</ele>
        <time>2012-04-09T15:00:24Z</time>
      </trkpt>
      <trkpt lat="40.70693" lon="-74.00913">
        <ele>51</ele>
        <time>2012-04-09T15:00:26Z</time>
      </trkpt>
      <trkpt lat="40.70693" lon="-74.00915">
        <ele>50</ele>
        <time>2012-04-09T15:00:26Z</time>
      </trkpt>
      <trkpt lat="40.70693" lon="-74.00917">
        <ele>49</ele>
        <time>2012-04-09T15:00:27Z</time>
      </trkpt>
      <trkpt lat="40.70693" lon="-74.00919">
        <ele>49</ele>
        <time>2012-04-09T15:00:28Z</time>
      </trkpt>
      <trkpt lat="40.70693" lon="-74.00922">
        <ele>47</ele>
        <time>2012-04-09T15:00:31Z</time>
      </trkpt>
      <trkpt lat="40.70693" lon="-74.00924">
        <ele>46</ele>
        <time>2012-04-09T15:00:31Z</time>
      </trkpt>
      <trkpt lat="40.70693" lon="-74.00926">
        <ele>45</ele>
        <time>2012-04-09T15:00:32Z</time>
      </trkpt>
      <trkpt lat="40.70694" lon="-74.00929">
        <ele>45</ele>
        <time>2012-04-09T15:00:33Z</time>
      </trkpt>
      <trkpt lat="40.70692" lon="-74.00932">
        <ele>44</ele>
        <time>2012-04-09T15:00:34Z</time>
      </trkpt>
      <trkpt lat="40.70691" lon="-74.00937">
        <ele>44</ele>
        <time>2012-04-09T15:00:35Z</time>
      </trkpt>
      <trkpt lat="40.7069" lon="-74.0094">
        <ele>43</ele>
        <time>2012-04-09T15:00:36Z</time>
      </trkpt>
      <trkpt lat="40.70689" lon="-74.00945">
        <ele>43</ele>
        <time>2012-04-09T15:00:37Z</time>
      </trkpt>
      <trkpt lat="40.70686" lon="-74.00947">
        <ele>42</ele>
        <time>2012-04-09T15:00:38Z</time>
      </trkpt>
      <trkpt lat="40.70685" lon="-74.00949">
        <ele>42</ele>
        <time>2012-04-09T15:00:39Z</time>
      </trkpt>
      <trkpt lat="40.70685" lon="-74.00954">
        <ele>42</ele>
        <time>2012-04-09T15:00:41Z</time>
      </trkpt>
      <trkpt lat="40.70685" lon="-74.00957">
        <ele>41</ele>
        <time>2012-04-09T15:00:41Z</time>
      </trkpt>
      <trkpt lat="40.70684" lon="-74.00961">
        <ele>41</ele>
        <time>2012-04-09T15:00:42Z</time>
      </trkpt>
      <trkpt lat="40.70683" lon="-74.00962">
        <ele>41</ele>
        <time>2012-04-09T15:00:43Z</time>
      </trkpt>
      <trkpt lat="40.70682" lon="-74.00964">
        <ele>40</ele>
        <time>2012-04-09T15:00:44Z</time>
      </trkpt>
      <trkpt lat="40.70681" lon="-74.00967">
        <ele>40</ele>
        <time>2012-04-09T15:00:46Z</time>
      </trkpt>
      <trkpt lat="40.70681" lon="-74.0097">
        <ele>40</ele>
        <time>2012-04-09T15:00:46Z</time>
      </trkpt>
      <trkpt lat="40.70682" lon="-74.00973">
        <ele>40</ele>
        <time>2012-04-09T15:00:47Z</time>
      </trkpt>
      <trkpt lat="40.7068" lon="-74.00974">
        <ele>40</ele>
        <time>2012-04-09T15:00:48Z</time>
      </trkpt>
      <trkpt lat="40.70679" lon="-74.00975">
        <ele>40</ele>
        <time>2012-04-09T15:00:49Z</time>
      </trkpt>
      <trkpt lat="40.70678" lon="-74.00977">
        <ele>39</ele>
        <time>2012-04-09T15:00:51Z</time>
      </trkpt>
      <trkpt lat="40.70678" lon="-74.00979">
        <ele>39</ele>
        <time>2012-04-09T15:00:52Z</time>
      </trkpt>
      <trkpt lat="40.70679" lon="-74.0098">
        <ele>39</ele>
        <time>2012-04-09T15:00:53Z</time>
      </trkpt>
      <trkpt lat="40.70679" lon="-74.00982">
        <ele>38</ele>
        <time>2012-04-09T15:00:54Z</time>
      </trkpt>
      <trkpt lat="40.7068" lon="-74.00983">
        <ele>38</ele>
        <time>2012-04-09T15:00:55Z</time>
      </trkpt>
      <trkpt lat="40.7068" lon="-74.00986">
        <ele>37</ele>
        <time>2012-04-09T15:00:58Z</time>
      </trkpt>
      <trkpt lat="40.70678" lon="-74.00983">
        <ele>37</ele>
        <time>2012-04-09T15:00:59Z</time>
      </trkpt>
      <trkpt lat="40.70676" lon="-74.00983">
        <ele>37</ele>
        <time>2012-04-09T15:01:00Z</time>
      </trkpt>
      <trkpt lat="40.70673" lon="-74.00981">
        <ele>38</ele>
        <time>2012-04-09T15:01:01Z</time>
      </trkpt>
      <trkpt lat="40.7067" lon="-74.00979">
        <ele>39</ele>
        <time>2012-04-09T15:01:03Z</time>
      </trkpt>
      <trkpt lat="40.70668" lon="-74.00977">
        <ele>39</ele>
        <time>2012-04-09T15:01:03Z</time>
      </trkpt>
      <trkpt lat="40.70665" lon="-74.00976">
        <ele>39</ele>
        <time>2012-04-09T15:01:04Z</time>
      </trkpt>
      <trkpt lat="40.70662" lon="-74.00973">
        <ele>39</ele>
        <time>2012-04-09T15:01:05Z</time>
      </trkpt>
      <trkpt lat="40.70659" lon="-74.00971">
        <ele>39</ele>
        <time>2012-04-09T15:01:06Z</time>
      </trkpt>
      <trkpt lat="40.70656" lon="-74.00967">
        <ele>39</ele>
        <time>2012-04-09T15:01:08Z</time>
      </trkpt>
      <trkpt lat="40.70651" lon="-74.00962">
        <ele>40</ele>
        <time>2012-04-09T15:01:08Z</time>
      </trkpt>
      <trkpt lat="40.70648" lon="-74.00961">
        <ele>41</ele>
        <time>2012-04-09T15:01:09Z</time>
      </trkpt>
      <trkpt lat="40.70645" lon="-74.00959">
        <ele>42</ele>
        <time>2012-04-09T15:01:10Z</time>
      </trkpt>
      <trkpt lat="40.70643" lon="-74.00957">
        <ele>43</ele>
        <time>2012-04-09T15:01:11Z</time>
      </trkpt>
      <trkpt lat="40.70641" lon="-74.00957">
        <ele>45</ele>
        <time>2012-04-09T15:01:14Z</time>
      </trkpt>
      <trkpt lat="40.7064" lon="-74.00956">
        <ele>45</ele>
        <time>2012-04-09T15:01:15Z</time>
      </trkpt>
      <trkpt lat="40.70639" lon="-74.00955">
        <ele>44</ele>
        <time>2012-04-09T15:01:16Z</time>
      </trkpt>
      <trkpt lat="40.70637" lon="-74.00954">
        <ele>43</ele>
        <time>2012-04-09T15:01:17Z</time>
      </trkpt>
      <trkpt lat="40.70636" lon="-74.00954">
        <ele>42</ele>
        <time>2012-04-09T15:01:19Z</time>
      </trkpt>
      <trkpt lat="40.70635" lon="-74.00952">
        <ele>41</ele>
        <time>2012-04-09T15:01:19Z</time>
      </trkpt>
      <trkpt lat="40.70633" lon="-74.00951">
        <ele>39</ele>
        <time>2012-04-09T15:01:21Z</time>
      </trkpt>
      <trkpt lat="40.70633" lon="-74.00949">
        <ele>39</ele>
        <time>2012-04-09T15:01:24Z</time>
      </trkpt>
      <trkpt lat="40.70633" lon="-74.00948">
        <ele>39</ele>
        <time>2012-04-09T15:01:26Z</time>
      </trkpt>
      <trkpt lat="40.70631" lon="-74.00947">
        <ele>39</ele>
        <time>2012-04-09T15:01:30Z</time>
      </trkpt>
      <trkpt lat="40.7063" lon="-74.00946">
        <ele>39</ele>
        <time>2012-04-09T15:01:31Z</time>
      </trkpt>
      <trkpt lat="40.70627" lon="-74.00945">
        <ele>38</ele>
        <time>2012-04-09T15:01:33Z</time>
      </trkpt>
      <trkpt lat="40.70626" lon="-74.00945">
        <ele>37</ele>
        <time>2012-04-09T15:01:35Z</time>
      </trkpt>
      <trkpt lat="40.70624" lon="-74.00943">
        <ele>35</ele>
        <time>2012-04-09T15:01:36Z</time>
      </trkpt>
      <trkpt lat="40.70622" lon="-74.00941">
        <ele>33</ele>
        <time>2012-04-09T15:01:38Z</time>
      </trkpt>
      <trkpt lat="40.7062" lon="-74.0094">
        <ele>31</ele>
        <time>2012-04-09T15:01:41Z</time>
      </trkpt>
      <trkpt lat="40.70619" lon="-74.00938">
        <ele>30</ele>
        <time>2012-04-09T15:01:42Z</time>
      </trkpt>
      <trkpt lat="40.70616" lon="-74.00936">
        <ele>30</ele>
        <time>2012-04-09T15:01:44Z</time>
      </trkpt>
      <trkpt lat="40.70614" lon="-74.00935">
        <ele>30</ele>
        <time>2012-04-09T15:01:46Z</time>
      </trkpt>
      <trkpt lat="40.70613" lon="-74.00934">
        <ele>29</ele>
        <time>2012-04-09T15:01:46Z</time>
      </trkpt>
      <trkpt lat="40.70612" lon="-74.00933">
        <ele>29</ele>
        <time>2012-04-09T15:01:47Z</time>
      </trkpt>
      <trkpt lat="40.7061" lon="-74.00932">
        <ele>28</ele>
        <time>2012-04-09T15:01:49Z</time>
      </trkpt>
      <trkpt lat="40.70608" lon="-74.0093">
        <ele>28</ele>
        <time>2012-04-09T15:01:52Z</time>
      </trkpt>
      <trkpt lat="40.70606" lon="-74.00929">
        <ele>28</ele>
        <time>2012-04-09T15:01:52Z</time>
      </trkpt>
      <trkpt lat="40.70605" lon="-74.00928">
        <ele>28</ele>
        <time>2012-04-09T15:01:53Z</time>
      </trkpt>
      <trkpt lat="40.70604" lon="-74.00927">
        <ele>28</ele>
        <time>2012-04-09T15:01:54Z</time>
      </trkpt>
      <trkpt lat="40.70601" lon="-74.00925">
        <ele>28</ele>
        <time>2012-04-09T15:01:57Z</time>
      </trkpt>
      <trkpt lat="40.706" lon="-74.00925">
        <ele>28</ele>
        <time>2012-04-09T15:01:57Z</time>
      </trkpt>
      <trkpt lat="40.70598" lon="-74.00924">
        <ele>29</ele>
        <time>2012-04-09T15:01:58Z</time>
      </trkpt>
      <trkpt lat="40.70596" lon="-74.00923">
        <ele>29</ele>
        <time>2012-04-09T15:01:59Z</time>
      </trkpt>
      <trkpt lat="40.70595" lon="-74.00922">
        <ele>30</ele>
        <time>2012-04-09T15:02:01Z</time>
      </trkpt>
      <trkpt lat="40.70596" lon="-74.00919">
        <ele>30</ele>
        <time>2012-04-09T15:02:03Z</time>
      </trkpt>
      <trkpt lat="40.70596" lon="-74.00917">
        <ele>30</ele>
        <time>2012-04-09T15:02:05Z</time>
      </trkpt>
      <trkpt lat="40.70597" lon="-74.00915">
        <ele>30</ele>
        <time>2012-04-09T15:02:09Z</time>
      </trkpt>
      <trkpt lat="40.70597" lon="-74.00912">
        <ele>31</ele>
        <time>2012-04-09T15:02:10Z</time>
      </trkpt>
      <trkpt lat="40.70597" lon="-74.00909">
        <ele>31</ele>
        <time>2012-04-09T15:02:11Z</time>
      </trkpt>
      <trkpt lat="40.70597" lon="-74.00906">
        <ele>31</ele>
        <time>2012-04-09T15:02:12Z</time>
      </trkpt>
      <trkpt lat="40.70595" lon="-74.00907">
        <ele>31</ele>
        <time>2012-04-09T15:02:14Z</time>
      </trkpt>
      <trkpt lat="40.70594" lon="-74.00908">
        <ele>31</ele>
        <time>2012-04-09T15:02:16Z</time>
      </trkpt>
      <trkpt lat="40.70594" lon="-74.00906">
        <ele>33</ele>
        <time>2012-04-09T15:02:18Z</time>
      </trkpt>
      <trkpt lat="40.70596" lon="-74.00906">
        <ele>33</ele>
        <time>2012-04-09T15:02:20Z</time>
      </trkpt>
      <trkpt lat="40.70596" lon="-74.00904">
        <ele>33</ele>
        <time>2012-04-09T15:02:21Z</time>
      </trkpt>
      <trkpt lat="40.70595" lon="-74.00904">
        <ele>33</ele>
        <time>2012-04-09T15:02:22Z</time>
      </trkpt>
      <trkpt lat="40.70594" lon="-74.00904">
        <ele>33</ele>
        <time>2012-04-09T15:02:23Z</time>
      </trkpt>
      <trkpt lat="40.70592" lon="-74.00903">
        <ele>34</ele>
        <time>2012-04-09T15:02:24Z</time>
      </trkpt>
      <trkpt lat="40.70591" lon="-74.00903">
        <ele>34</ele>
        <time>2012-04-09T15:02:25Z</time>
      </trkpt>
      <trkpt lat="40.70591" lon="-74.009">
        <ele>34</ele>
        <time>2012-04-09T15:02:26Z</time>
      </trkpt>
      <trkpt lat="40.7059" lon="-74.00899">
        <ele>34</ele>
        <time>2012-04-09T15:02:27Z</time>
      </trkpt>
      <trkpt lat="40.70589" lon="-74.00897">
        <ele>34</ele>
        <time>2012-04-09T15:02:28Z</time>
      </trkpt>
      <trkpt lat="40.70589" lon="-74.00896">
        <ele>34</ele>
        <time>2012-04-09T15:02:29Z</time>
      </trkpt>
      <trkpt lat="40.70589" lon="-74.00893">
        <ele>34</ele>
        <time>2012-04-09T15:02:30Z</time>
      </trkpt>
      <trkpt lat="40.70589" lon="-74.00893">
        <ele>34</ele>
        <time>2012-04-09T15:02:31Z</time>
      </trkpt>
      <trkpt lat="40.70588" lon="-74.00892">
        <ele>34</ele>
        <time>2012-04-09T15:02:32Z</time>
      </trkpt>
      <trkpt lat="40.70587" lon="-74.00894">
        <ele>34</ele>
        <time>2012-04-09T15:02:33Z</time>
      </trkpt>
      <trkpt lat="40.70586" lon="-74.00896">
        <ele>34</ele>
        <time>2012-04-09T15:02:34Z</time>
      </trkpt>
      <trkpt lat="40.70587" lon="-74.00899">
        <ele>34</ele>
        <time>2012-04-09T15:02:35Z</time>
      </trkpt>
      <trkpt lat="40.70587" lon="-74.009">
        <ele>34</ele>
        <time>2012-04-09T15:02:36Z</time>
      </trkpt>
      <trkpt lat="40.70588" lon="-74.00903">
        <ele>34</ele>
        <time>2012-04-09T15:02:37Z</time>
      </trkpt>
      <trkpt lat="40.70589" lon="-74.00904">
        <ele>34</ele>
        <time>2012-04-09T15:02:38Z</time>
      </trkpt>
      <trkpt lat="40.70591" lon="-74.00906">
        <ele>33</ele>
        <time>2012-04-09T15:02:40Z</time>
      </trkpt>
      <trkpt lat="40.70596" lon="-74.00912">
        <ele>26</ele>
        <time>2012-04-09T15:02:51Z</time>
      </trkpt>
      <trkpt lat="40.70594" lon="-74.00909">
        <ele>26</ele>
        <time>2012-04-09T15:02:52Z</time>
      </trkpt>
      <trkpt lat="40.70591" lon="-74.00905">
        <ele>26</ele>
        <time>2012-04-09T15:02:53Z</time>
      </trkpt>
      <trkpt lat="40.70592" lon="-74.009">
        <ele>26</ele>
        <time>2012-04-09T15:02:54Z</time>
      </trkpt>
      <trkpt lat="40.70591" lon="-74.00899">
        <ele>26</ele>
        <time>2012-04-09T15:02:55Z</time>
      </trkpt>
      <trkpt lat="40.70589" lon="-74.00896">
        <ele>26</ele>
        <time>2012-04-09T15:02:56Z</time>
      </trkpt>
      <trkpt lat="40.70588" lon="-74.00897">
        <ele>26</ele>
        <time>2012-04-09T15:02:57Z</time>
      </trkpt>
      <trkpt lat="40.70587" lon="-74.00896">
        <ele>26</ele>
        <time>2012-04-09T15:02:58Z</time>
      </trkpt>
      <trkpt lat="40.70585" lon="-74.00894">
        <ele>26</ele>
        <time>2012-04-09T15:02:59Z</time>
      </trkpt>
      <trkpt lat="40.70585" lon="-74.00891">
        <ele>26</ele>
        <time>2012-04-09T15:03:00Z</time>
      </trkpt>
      <trkpt lat="40.70584" lon="-74.0089">
        <ele>26</ele>
        <time>2012-04-09T15:03:01Z</time>
      </trkpt>
      <trkpt lat="40.70584" lon="-74.00887">
        <ele>26</ele>
        <time>2012-04-09T15:03:02Z</time>
      </trkpt>
      <trkpt lat="40.70583" lon="-74.00884">
        <ele>26</ele>
        <time>2012-04-09T15:03:03Z</time>
      </trkpt>
      <trkpt lat="40.70581" lon="-74.00884">
        <ele>26</ele>
        <time>2012-04-09T15:03:05Z</time>
      </trkpt>
      <trkpt lat="40.70581" lon="-74.0088">
        <ele>26</ele>
        <time>2012-04-09T15:03:06Z</time>
      </trkpt>
      <trkpt lat="40.70581" lon="-74.00877">
        <ele>26</ele>
        <time>2012-04-09T15:03:08Z</time>
      </trkpt>
      <trkpt lat="40.7058" lon="-74.00877">
        <ele>26</ele>
        <time>2012-04-09T15:03:10Z</time>
      </trkpt>
      <trkpt lat="40.7058" lon="-74.0088">
        <ele>26</ele>
        <time>2012-04-09T15:03:11Z</time>
      </trkpt>
      <trkpt lat="40.70579" lon="-74.00882">
        <ele>26</ele>
        <time>2012-04-09T15:03:13Z</time>
      </trkpt>
      <trkpt lat="40.70579" lon="-74.00884">
        <ele>26</ele>
        <time>2012-04-09T15:03:14Z</time>
      </trkpt>
      <trkpt lat="40.70607" lon="-74.00873">
        <ele>19</ele>
        <time>2012-04-09T15:04:28Z</time>
      </trkpt>
      <trkpt lat="40.70602" lon="-74.00872">
        <ele>19</ele>
        <time>2012-04-09T15:04:29Z</time>
      </trkpt>
      <trkpt lat="40.70599" lon="-74.00871">
        <ele>19</ele>
        <time>2012-04-09T15:04:30Z</time>
      </trkpt>
      <trkpt lat="40.70594" lon="-74.00873">
        <ele>19</ele>
        <time>2012-04-09T15:04:33Z</time>
      </trkpt>
      <trkpt lat="40.70589" lon="-74.00871">
        <ele>19</ele>
        <time>2012-04-09T15:04:34Z</time>
      </trkpt>
      <trkpt lat="40.70585" lon="-74.00874">
        <ele>19</ele>
        <time>2012-04-09T15:04:35Z</time>
      </trkpt>
      <trkpt lat="40.70583" lon="-74.00876">
        <ele>20</ele>
        <time>2012-04-09T15:04:36Z</time>
      </trkpt>
      <trkpt lat="40.70581" lon="-74.00877">
        <ele>21</ele>
        <time>2012-04-09T15:04:37Z</time>
      </trkpt>
      <trkpt lat="40.70582" lon="-74.00877">
        <ele>22</ele>
        <time>2012-04-09T15:04:38Z</time>
      </trkpt>
      <trkpt lat="40.70583" lon="-74.00877">
        <ele>23</ele>
        <time>2012-04-09T15:04:39Z</time>
      </trkpt>
      <trkpt lat="40.70585" lon="-74.00876">
        <ele>25</ele>
        <time>2012-04-09T15:04:41Z</time>
      </trkpt>
      <trkpt lat="40.70587" lon="-74.00876">
        <ele>26</ele>
        <time>2012-04-09T15:04:42Z</time>
      </trkpt>
      <trkpt lat="40.70588" lon="-74.00878">
        <ele>28</ele>
        <time>2012-04-09T15:04:44Z</time>
      </trkpt>
      <trkpt lat="40.7059" lon="-74.00879">
        <ele>30</ele>
        <time>2012-04-09T15:04:45Z</time>
      </trkpt>
      <trkpt lat="40.7059" lon="-74.0088">
        <ele>32</ele>
        <time>2012-04-09T15:04:46Z</time>
      </trkpt>
      <trkpt lat="40.70589" lon="-74.00883">
        <ele>33</ele>
        <time>2012-04-09T15:04:47Z</time>
      </trkpt>
      <trkpt lat="40.70588" lon="-74.00887">
        <ele>34</ele>
        <time>2012-04-09T15:04:48Z</time>
      </trkpt>
      <trkpt lat="40.70586" lon="-74.0089">
        <ele>35</ele>
        <time>2012-04-09T15:04:49Z</time>
      </trkpt>
      <trkpt lat="40.70587" lon="-74.00893">
        <ele>36</ele>
        <time>2012-04-09T15:04:50Z</time>
      </trkpt>
      <trkpt lat="40.70586" lon="-74.00895">
        <ele>37</ele>
        <time>2012-04-09T15:04:51Z</time>
      </trkpt>
      <trkpt lat="40.70586" lon="-74.00899">
        <ele>38</ele>
        <time>2012-04-09T15:04:52Z</time>
      </trkpt>
      <trkpt lat="40.70586" lon="-74.00901">
        <ele>39</ele>
        <time>2012-04-09T15:04:53Z</time>
      </trkpt>
      <trkpt lat="40.70585" lon="-74.00905">
        <ele>40</ele>
        <time>2012-04-09T15:04:54Z</time>
      </trkpt>
      <trkpt lat="40.70585" lon="-74.00907">
        <ele>41</ele>
        <time>2012-04-09T15:04:55Z</time>
      </trkpt>
      <trkpt lat="40.70585" lon="-74.00909">
        <ele>42</ele>
        <time>2012-04-09T15:04:56Z</time>
      </trkpt>
      <trkpt lat="40.70585" lon="-74.00911">
        <ele>43</ele>
        <time>2012-04-09T15:04:57Z</time>
      </trkpt>
      <trkpt lat="40.70586" lon="-74.00912">
        <ele>44</ele>
        <time>2012-04-09T15:04:58Z</time>
      </trkpt>
      <trkpt lat="40.70586" lon="-74.00914">
        <ele>45</ele>
        <time>2012-04-09T15:04:59Z</time>
      </trkpt>
      <trkpt lat="40.70589" lon="-74.00916">
        <ele>45</ele>
        <time>2012-04-09T15:05:01Z</time>
      </trkpt>
      <trkpt lat="40.7059" lon="-74.00917">
        <ele>45</ele>
        <time>2012-04-09T15:05:02Z</time>
      </trkpt>
      <trkpt lat="40.70591" lon="-74.00919">
        <ele>45</ele>
        <time>2012-04-09T15:05:04Z</time>
      </trkpt>
      <trkpt lat="40.70591" lon="-74.00921">
        <ele>47</ele>
        <time>2012-04-09T15:05:06Z</time>
      </trkpt>
      <trkpt lat="40.7059" lon="-74.00925">
        <ele>49</ele>
        <time>2012-04-09T15:05:08Z</time>
      </trkpt>
      <trkpt lat="40.7059" lon="-74.00927">
        <ele>50</ele>
        <time>2012-04-09T15:05:09Z</time>
      </trkpt>
      <trkpt lat="40.70591" lon="-74.00928">
        <ele>51</ele>
        <time>2012-04-09T15:05:10Z</time>
      </trkpt>
      <trkpt lat="40.70592" lon="-74.0093">
        <ele>52</ele>
        <time>2012-04-09T15:05:11Z</time>
      </trkpt>
      <trkpt lat="40.70592" lon="-74.00932">
        <ele>54</ele>
        <time>2012-04-09T15:05:12Z</time>
      </trkpt>
      <trkpt lat="40.70593" lon="-74.00935">
        <ele>56</ele>
        <time>2012-04-09T15:05:13Z</time>
      </trkpt>
      <trkpt lat="40.70594" lon="-74.00935">
        <ele>58</ele>
        <time>2012-04-09T15:05:14Z</time>
      </trkpt>
      <trkpt lat="40.70595" lon="-74.00938">
        <ele>60</ele>
        <time>2012-04-09T15:05:15Z</time>
      </trkpt>
      <trkpt lat="40.70595" lon="-74.00939">
        <ele>62</ele>
        <time>2012-04-09T15:05:16Z</time>
      </trkpt>
      <trkpt lat="40.70599" lon="-74.00941">
        <ele>64</ele>
        <time>2012-04-09T15:05:17Z</time>
      </trkpt>
      <trkpt lat="40.70601" lon="-74.00943">
        <ele>65</ele>
        <time>2012-04-09T15:05:18Z</time>
      </trkpt>
      <trkpt lat="40.70605" lon="-74.00945">
        <ele>66</ele>
        <time>2012-04-09T15:05:19Z</time>
      </trkpt>
      <trkpt lat="40.70608" lon="-74.00947">
        <ele>67</ele>
        <time>2012-04-09T15:05:20Z</time>
      </trkpt>
      <trkpt lat="40.7061" lon="-74.00948">
        <ele>68</ele>
        <time>2012-04-09T15:05:21Z</time>
      </trkpt>
      <trkpt lat="40.70612" lon="-74.00949">
        <ele>69</ele>
        <time>2012-04-09T15:05:22Z</time>
      </trkpt>
      <trkpt lat="40.70613" lon="-74.00951">
        <ele>70</ele>
        <time>2012-04-09T15:05:23Z</time>
      </trkpt>
      <trkpt lat="40.70615" lon="-74.00952">
        <ele>70</ele>
        <time>2012-04-09T15:05:24Z</time>
      </trkpt>
      <trkpt lat="40.70617" lon="-74.00953">
        <ele>70</ele>
        <time>2012-04-09T15:05:25Z</time>
      </trkpt>
      <trkpt lat="40.70617" lon="-74.00954">
        <ele>72</ele>
        <time>2012-04-09T15:05:27Z</time>
      </trkpt>
      <trkpt lat="40.70619" lon="-74.00954">
        <ele>73</ele>
        <time>2012-04-09T15:05:28Z</time>
      </trkpt>
      <trkpt lat="40.70619" lon="-74.00956">
        <ele>74</ele>
        <time>2012-04-09T15:05:30Z</time>
      </trkpt>
      <trkpt lat="40.70621" lon="-74.00957">
        <ele>74</ele>
        <time>2012-04-09T15:05:32Z</time>
      </trkpt>
      <trkpt lat="40.70621" lon="-74.00958">
        <ele>75</ele>
        <time>2012-04-09T15:05:33Z</time>
      </trkpt>
      <trkpt lat="40.70622" lon="-74.00959">
        <ele>76</ele>
        <time>2012-04-09T15:05:35Z</time>
      </trkpt>
      <trkpt lat="40.70624" lon="-74.00957">
        <ele>77</ele>
        <time>2012-04-09T15:05:36Z</time>
      </trkpt>
      <trkpt lat="40.70625" lon="-74.00957">
        <ele>78</ele>
        <time>2012-04-09T15:05:38Z</time>
      </trkpt>
      <trkpt lat="40.70625" lon="-74.00958">
        <ele>80</ele>
        <time>2012-04-09T15:05:40Z</time>
      </trkpt>
      <trkpt lat="40.70625" lon="-74.0096">
        <ele>81</ele>
        <time>2012-04-09T15:05:41Z</time>
      </trkpt>
      <trkpt lat="40.70626" lon="-74.00962">
        <ele>83</ele>
        <time>2012-04-09T15:05:43Z</time>
      </trkpt>
      <trkpt lat="40.70627" lon="-74.00966">
        <ele>86</ele>
        <time>2012-04-09T15:05:45Z</time>
      </trkpt>
      <trkpt lat="40.70627" lon="-74.00968">
        <ele>88</ele>
        <time>2012-04-09T15:05:46Z</time>
      </trkpt>
      <trkpt lat="40.70627" lon="-74.0097">
        <ele>90</ele>
        <time>2012-04-09T15:05:47Z</time>
      </trkpt>
      <trkpt lat="40.70627" lon="-74.00972">
        <ele>92</ele>
        <time>2012-04-09T15:05:48Z</time>
      </trkpt>
      <trkpt lat="40.70627" lon="-74.00974">
        <ele>94</ele>
        <time>2012-04-09T15:05:49Z</time>
      </trkpt>
      <trkpt lat="40.70626" lon="-74.00975">
        <ele>96</ele>
        <time>2012-04-09T15:05:50Z</time>
      </trkpt>
      <trkpt lat="40.70626" lon="-74.00977">
        <ele>97</ele>
        <time>2012-04-09T15:05:51Z</time>
      </trkpt>
      <trkpt lat="40.70627" lon="-74.0098">
        <ele>98</ele>
        <time>2012-04-09T15:05:52Z</time>
      </trkpt>
      <trkpt lat="40.70627" lon="-74.00983">
        <ele>102</ele>
        <time>2012-04-09T15:05:56Z</time>
      </trkpt>
      <trkpt lat="40.70628" lon="-74.00984">
        <ele>106</ele>
        <time>2012-04-09T15:06:00Z</time>
      </trkpt>
      <trkpt lat="40.70627" lon="-74.00982">
        <ele>109</ele>
        <time>2012-04-09T15:06:03Z</time>
      </trkpt>
      <trkpt lat="40.70629" lon="-74.00983">
        <ele>111</ele>
        <time>2012-04-09T15:06:05Z</time>
      </trkpt>
      <trkpt lat="40.70631" lon="-74.00983">
        <ele>112</ele>
        <time>2012-04-09T15:06:06Z</time>
      </trkpt>
      <trkpt lat="40.70633" lon="-74.00986">
        <ele>114</ele>
        <time>2012-04-09T15:06:08Z</time>
      </trkpt>
      <trkpt lat="40.70633" lon="-74.00988">
        <ele>115</ele>
        <time>2012-04-09T15:06:09Z</time>
      </trkpt>
      <trkpt lat="40.70633" lon="-74.0099">
        <ele>116</ele>
        <time>2012-04-09T15:06:10Z</time>
      </trkpt>
      <trkpt lat="40.70633" lon="-74.00993">
        <ele>117</ele>
        <time>2012-04-09T15:06:11Z</time>
      </trkpt>
      <trkpt lat="40.70634" lon="-74.00996">
        <ele>118</ele>
        <time>2012-04-09T15:06:12Z</time>
      </trkpt>
      <trkpt lat="40.70634" lon="-74.00998">
        <ele>119</ele>
        <time>2012-04-09T15:06:14Z</time>
      </trkpt>
      <trkpt lat="40.70633" lon="-74.01">
        <ele>120</ele>
        <time>2012-04-09T15:06:14Z</time>
      </trkpt>
      <trkpt lat="40.70633" lon="-74.01003">
        <ele>121</ele>
        <time>2012-04-09T15:06:15Z</time>
      </trkpt>
      <trkpt lat="40.70633" lon="-74.01005">
        <ele>121</ele>
        <time>2012-04-09T15:06:16Z</time>
      </trkpt>
      <trkpt lat="40.70633" lon="-74.01006">
        <ele>121</ele>
        <time>2012-04-09T15:06:17Z</time>
      </trkpt>
      <trkpt lat="40.70632" lon="-74.01009">
        <ele>121</ele>
        <time>2012-04-09T15:06:19Z</time>
      </trkpt>
      <trkpt lat="40.70631" lon="-74.01011">
        <ele>121</ele>
        <time>2012-04-09T15:06:21Z</time>
      </trkpt>
      <trkpt lat="40.7063" lon="-74.01014">
        <ele>123</ele>
        <time>2012-04-09T15:06:23Z</time>
      </trkpt>
      <trkpt lat="40.70628" lon="-74.01015">
        <ele>124</ele>
        <time>2012-04-09T15:06:24Z</time>
      </trkpt>
      <trkpt lat="40.70627" lon="-74.01017">
        <ele>125</ele>
        <time>2012-04-09T15:06:25Z</time>
      </trkpt>
      <trkpt lat="40.70626" lon="-74.01019">
        <ele>126</ele>
        <time>2012-04-09T15:06:26Z</time>
      </trkpt>
      <trkpt lat="40.70625" lon="-74.01021">
        <ele>128</ele>
        <time>2012-04-09T15:06:28Z</time>
      </trkpt>
      <trkpt lat="40.70624" lon="-74.01022">
        <ele>130</ele>
        <time>2012-04-09T15:06:30Z</time>
      </trkpt>
      <trkpt lat="40.70625" lon="-74.01022">
        <ele>133</ele>
        <time>2012-04-09T15:06:33Z</time>
      </trkpt>
      <trkpt lat="40.70627" lon="-74.01022">
        <ele>133</ele>
        <time>2012-04-09T15:06:36Z</time>
      </trkpt>
      <trkpt lat="40.70628" lon="-74.01025">
        <ele>133</ele>
        <time>2012-04-09T15:06:39Z</time>
      </trkpt>
      <trkpt lat="40.7063" lon="-74.01027">
        <ele>133</ele>
        <time>2012-04-09T15:06:41Z</time>
      </trkpt>
      <trkpt lat="40.70633" lon="-74.0103">
        <ele>133</ele>
        <time>2012-04-09T15:06:44Z</time>
      </trkpt>
      <trkpt lat="40.70635" lon="-74.01031">
        <ele>133</ele>
        <time>2012-04-09T15:06:46Z</time>
      </trkpt>
      <trkpt lat="40.70637" lon="-74.01031">
        <ele>133</ele>
        <time>2012-04-09T15:06:47Z</time>
      </trkpt>
      <trkpt lat="40.70639" lon="-74.0103">
        <ele>133</ele>
        <time>2012-04-09T15:06:48Z</time>
      </trkpt>
      <trkpt lat="40.7064" lon="-74.01031">
        <ele>133</ele>
        <time>2012-04-09T15:06:49Z</time>
      </trkpt>
      <trkpt lat="40.70641" lon="-74.0103">
        <ele>133</ele>
        <time>2012-04-09T15:06:50Z</time>
      </trkpt>
      <trkpt lat="40.70643" lon="-74.01031">
        <ele>134</ele>
        <time>2012-04-09T15:06:52Z</time>
      </trkpt>
      <trkpt lat="40.70644" lon="-74.01031">
        <ele>134</ele>
        <time>2012-04-09T15:06:54Z</time>
      </trkpt>
      <trkpt lat="40.70644" lon="-74.01033">
        <ele>134</ele>
        <time>2012-04-09T15:06:55Z</time>
      </trkpt>
      <trkpt lat="40.70646" lon="-74.01035">
        <ele>134</ele>
        <time>2012-04-09T15:06:57Z</time>
      </trkpt>
      <trkpt lat="40.70647" lon="-74.01035">
        <ele>134</ele>
        <time>2012-04-09T15:06:58Z</time>
      </trkpt>
      <trkpt lat="40.70648" lon="-74.01035">
        <ele>134</ele>
        <time>2012-04-09T15:06:59Z</time>
      </trkpt>
      <trkpt lat="40.70649" lon="-74.01037">
        <ele>134</ele>
        <time>2012-04-09T15:07:01Z</time>
      </trkpt>
      <trkpt lat="40.70652" lon="-74.01038">
        <ele>135</ele>
        <time>2012-04-09T15:07:03Z</time>
      </trkpt>
      <trkpt lat="40.70652" lon="-74.01041">
        <ele>137</ele>
        <time>2012-04-09T15:07:05Z</time>
      </trkpt>
      <trkpt lat="40.70652" lon="-74.01043">
        <ele>138</ele>
        <time>2012-04-09T15:07:06Z</time>
      </trkpt>
      <trkpt lat="40.70653" lon="-74.01043">
        <ele>139</ele>
        <time>2012-04-09T15:07:07Z</time>
      </trkpt>
      <trkpt lat="40.70652" lon="-74.01045">
        <ele>140</ele>
        <time>2012-04-09T15:07:08Z</time>
      </trkpt>
      <trkpt lat="40.70654" lon="-74.01047">
        <ele>142</ele>
        <time>2012-04-09T15:07:10Z</time>
      </trkpt>
      <trkpt lat="40.70655" lon="-74.01048">
        <ele>143</ele>
        <time>2012-04-09T15:07:11Z</time>
      </trkpt>
      <trkpt lat="40.70657" lon="-74.01047">
        <ele>144</ele>
        <time>2012-04-09T15:07:12Z</time>
      </trkpt>
      <trkpt lat="40.70659" lon="-74.01046">
        <ele>144</ele>
        <time>2012-04-09T15:07:13Z</time>
      </trkpt>
      <trkpt lat="40.70662" lon="-74.01044">
        <ele>144</ele>
        <time>2012-04-09T15:07:14Z</time>
      </trkpt>
      <trkpt lat="40.70665" lon="-74.01044">
        <ele>144</ele>
        <time>2012-04-09T15:07:15Z</time>
      </trkpt>
      <trkpt lat="40.70667" lon="-74.01043">
        <ele>144</ele>
        <time>2012-04-09T15:07:16Z</time>
      </trkpt>
      <trkpt lat="40.70668" lon="-74.01043">
        <ele>144</ele>
        <time>2012-04-09T15:07:17Z</time>
      </trkpt>
      <trkpt lat="40.7067" lon="-74.01044">
        <ele>145</ele>
        <time>2012-04-09T15:07:18Z</time>
      </trkpt>
      <trkpt lat="40.70671" lon="-74.01045">
        <ele>145</ele>
        <time>2012-04-09T15:07:19Z</time>
      </trkpt>
      <trkpt lat="40.70673" lon="-74.01045">
        <ele>145</ele>
        <time>2012-04-09T15:07:20Z</time>
      </trkpt>
      <trkpt lat="40.70675" lon="-74.01044">
        <ele>145</ele>
        <time>2012-04-09T15:07:21Z</time>
      </trkpt>
      <trkpt lat="40.70676" lon="-74.01043">
        <ele>145</ele>
        <time>2012-04-09T15:07:22Z</time>
      </trkpt>
      <trkpt lat="40.70678" lon="-74.01041">
        <ele>144</ele>
        <time>2012-04-09T15:07:23Z</time>
      </trkpt>
      <trkpt lat="40.70679" lon="-74.0104">
        <ele>143</ele>
        <time>2012-04-09T15:07:24Z</time>
      </trkpt>
      <trkpt lat="40.70681" lon="-74.01039">
        <ele>141</ele>
        <time>2012-04-09T15:07:26Z</time>
      </trkpt>
      <trkpt lat="40.70681" lon="-74.01041">
        <ele>139</ele>
        <time>2012-04-09T15:07:28Z</time>
      </trkpt>
      <trkpt lat="40.70679" lon="-74.01043">
        <ele>137</ele>
        <time>2012-04-09T15:07:29Z</time>
      </trkpt>
      <trkpt lat="40.70678" lon="-74.01044">
        <ele>134</ele>
        <time>2012-04-09T15:07:31Z</time>
      </trkpt>
      <trkpt lat="40.70676" lon="-74.01046">
        <ele>133</ele>
        <time>2012-04-09T15:07:32Z</time>
      </trkpt>
      <trkpt lat="40.70674" lon="-74.01048">
        <ele>132</ele>
        <time>2012-04-09T15:07:33Z</time>
      </trkpt>
      <trkpt lat="40.70671" lon="-74.01048">
        <ele>131</ele>
        <time>2012-04-09T15:07:34Z</time>
      </trkpt>
      <trkpt lat="40.7067" lon="-74.01049">
        <ele>130</ele>
        <time>2012-04-09T15:07:35Z</time>
      </trkpt>
      <trkpt lat="40.70667" lon="-74.0105">
        <ele>128</ele>
        <time>2012-04-09T15:07:37Z</time>
      </trkpt>
      <trkpt lat="40.70665" lon="-74.01049">
        <ele>127</ele>
        <time>2012-04-09T15:07:38Z</time>
      </trkpt>
      <trkpt lat="40.70663" lon="-74.0105">
        <ele>126</ele>
        <time>2012-04-09T15:07:39Z</time>
      </trkpt>
      <trkpt lat="40.70662" lon="-74.0105">
        <ele>125</ele>
        <time>2012-04-09T15:07:40Z</time>
      </trkpt>
      <trkpt lat="40.7066" lon="-74.0105">
        <ele>124</ele>
        <time>2012-04-09T15:07:41Z</time>
      </trkpt>
      <trkpt lat="40.70658" lon="-74.01051">
        <ele>123</ele>
        <time>2012-04-09T15:07:42Z</time>
      </trkpt>
      <trkpt lat="40.70657" lon="-74.01051">
        <ele>122</ele>
        <time>2012-04-09T15:07:43Z</time>
      </trkpt>
      <trkpt lat="40.70655" lon="-74.01051">
        <ele>121</ele>
        <time>2012-04-09T15:07:44Z</time>
      </trkpt>
      <trkpt lat="40.70653" lon="-74.01051">
        <ele>120</ele>
        <time>2012-04-09T15:07:45Z</time>
      </trkpt>
      <trkpt lat="40.70651" lon="-74.01051">
        <ele>118</ele>
        <time>2012-04-09T15:07:47Z</time>
      </trkpt>
      <trkpt lat="40.70652" lon="-74.0105">
        <ele>115</ele>
        <time>2012-04-09T15:07:50Z</time>
      </trkpt>
      <trkpt lat="40.70653" lon="-74.01049">
        <ele>110</ele>
        <time>2012-04-09T15:07:53Z</time>
      </trkpt>
      <trkpt lat="40.70654" lon="-74.01049">
        <ele>108</ele>
        <time>2012-04-09T15:07:54Z</time>
      </trkpt>
      <trkpt lat="40.70655" lon="-74.01049">
        <ele>106</ele>
        <time>2012-04-09T15:07:55Z</time>
      </trkpt>
      <trkpt lat="40.70657" lon="-74.0105">
        <ele>104</ele>
        <time>2012-04-09T15:07:56Z</time>
      </trkpt>
      <trkpt lat="40.70658" lon="-74.01051">
        <ele>103</ele>
        <time>2012-04-09T15:07:57Z</time>
      </trkpt>
      <trkpt lat="40.7066" lon="-74.01052">
        <ele>102</ele>
        <time>2012-04-09T15:07:58Z</time>
      </trkpt>
      <trkpt lat="40.70662" lon="-74.01052">
        <ele>101</ele>
        <time>2012-04-09T15:07:59Z</time>
      </trkpt>
      <trkpt lat="40.70664" lon="-74.01052">
        <ele>100</ele>
        <time>2012-04-09T15:08:00Z</time>
      </trkpt>
      <trkpt lat="40.70665" lon="-74.01053">
        <ele>99</ele>
        <time>2012-04-09T15:08:01Z</time>
      </trkpt>
      <trkpt lat="40.70666" lon="-74.01054">
        <ele>99</ele>
        <time>2012-04-09T15:08:02Z</time>
      </trkpt>
      <trkpt lat="40.70668" lon="-74.01054">
        <ele>99</ele>
        <time>2012-04-09T15:08:03Z</time>
      </trkpt>
      <trkpt lat="40.70669" lon="-74.01055">
        <ele>98</ele>
        <time>2012-04-09T15:08:04Z</time>
      </trkpt>
      <trkpt lat="40.7067" lon="-74.01056">
        <ele>98</ele>
        <time>2012-04-09T15:08:05Z</time>
      </trkpt>
      <trkpt lat="40.70672" lon="-74.01057">
        <ele>96</ele>
        <time>2012-04-09T15:08:07Z</time>
      </trkpt>
      <trkpt lat="40.70674" lon="-74.01058">
        <ele>94</ele>
        <time>2012-04-09T15:08:09Z</time>
      </trkpt>
      <trkpt lat="40.70676" lon="-74.01059">
        <ele>92</ele>
        <time>2012-04-09T15:08:11Z</time>
      </trkpt>
      <trkpt lat="40.70677" lon="-74.0106">
        <ele>90</ele>
        <time>2012-04-09T15:08:13Z</time>
      </trkpt>
      <trkpt lat="40.70678" lon="-74.0106">
        <ele>88</ele>
        <time>2012-04-09T15:08:15Z</time>
      </trkpt>
      <trkpt lat="40.7068" lon="-74.01063">
        <ele>86</ele>
        <time>2012-04-09T15:08:17Z</time>
      </trkpt>
      <trkpt lat="40.70682" lon="-74.01065">
        <ele>84</ele>
        <time>2012-04-09T15:08:19Z</time>
      </trkpt>
      <trkpt lat="40.70684" lon="-74.01067">
        <ele>82</ele>
        <time>2012-04-09T15:08:21Z</time>
      </trkpt>
      <trkpt lat="40.70685" lon="-74.01067">
        <ele>80</ele>
        <time>2012-04-09T15:08:23Z</time>
      </trkpt>
      <trkpt lat="40.70686" lon="-74.01067">
        <ele>78</ele>
        <time>2012-04-09T15:08:26Z</time>
      </trkpt>
      <trkpt lat="40.70688" lon="-74.01067">
        <ele>75</ele>
        <time>2012-04-09T15:08:29Z</time>
      </trkpt>
      <trkpt lat="40.70689" lon="-74.01067">
        <ele>73</ele>
        <time>2012-04-09T15:08:32Z</time>
      </trkpt>
      <trkpt lat="40.70688" lon="-74.01068">
        <ele>71</ele>
        <time>2012-04-09T15:08:36Z</time>
      </trkpt>
      <trkpt lat="40.70688" lon="-74.0107">
        <ele>69</ele>
        <time>2012-04-09T15:08:38Z</time>
      </trkpt>
      <trkpt lat="40.70689" lon="-74.01072">
        <ele>67</ele>
        <time>2012-04-09T15:08:40Z</time>
      </trkpt>
      <trkpt lat="40.7069" lon="-74.01074">
        <ele>65</ele>
        <time>2012-04-09T15:08:42Z</time>
      </trkpt>
      <trkpt lat="40.70692" lon="-74.01077">
        <ele>61</ele>
        <time>2012-04-09T15:08:44Z</time>
      </trkpt>
      <trkpt lat="40.70692" lon="-74.01079">
        <ele>57</ele>
        <time>2012-04-09T15:08:46Z</time>
      </trkpt>
      <trkpt lat="40.70692" lon="-74.0108">
        <ele>53</ele>
        <time>2012-04-09T15:08:48Z</time>
      </trkpt>
      <trkpt lat="40.70692" lon="-74.01082">
        <ele>51</ele>
        <time>2012-04-09T15:08:49Z</time>
      </trkpt>
      <trkpt lat="40.70692" lon="-74.01085">
        <ele>47</ele>
        <time>2012-04-09T15:08:51Z</time>
      </trkpt>
      <trkpt lat="40.70692" lon="-74.01086">
        <ele>41</ele>
        <time>2012-04-09T15:08:54Z</time>
      </trkpt>
      <trkpt lat="40.70692" lon="-74.01088">
        <ele>37</ele>
        <time>2012-04-09T15:08:56Z</time>
      </trkpt>
      <trkpt lat="40.70693" lon="-74.0109">
        <ele>35</ele>
        <time>2012-04-09T15:08:58Z</time>
      </trkpt>
      <trkpt lat="40.70695" lon="-74.01093">
        <ele>29</ele>
        <time>2012-04-09T15:09:04Z</time>
      </trkpt>
      <trkpt lat="40.70694" lon="-74.01094">
        <ele>25</ele>
        <time>2012-04-09T15:09:06Z</time>
      </trkpt>
      <trkpt lat="40.70694" lon="-74.01096">
        <ele>24</ele>
        <time>2012-04-09T15:09:07Z</time>
      </trkpt>
      <trkpt lat="40.70695" lon="-74.01096">
        <ele>21</ele>
        <time>2012-04-09T15:09:09Z</time>
      </trkpt>
      <trkpt lat="40.70697" lon="-74.01096">
        <ele>19</ele>
        <time>2012-04-09T15:09:11Z</time>
      </trkpt>
      <trkpt lat="40.70699" lon="-74.01098">
        <ele>17</ele>
        <time>2012-04-09T15:09:13Z</time>
      </trkpt>
      <trkpt lat="40.707" lon="-74.01098">
        <ele>16</ele>
        <time>2012-04-09T15:09:14Z</time>
      </trkpt>
      <trkpt lat="40.70702" lon="-74.011">
        <ele>13</ele>
        <time>2012-04-09T15:09:17Z</time>
      </trkpt>
      <trkpt lat="40.70703" lon="-74.01102">
        <ele>11</ele>
        <time>2012-04-09T15:09:19Z</time>
      </trkpt>
      <trkpt lat="40.70704" lon="-74.01102">
        <ele>10</ele>
        <time>2012-04-09T15:09:21Z</time>
      </trkpt>
      <trkpt lat="40.70705" lon="-74.011">
        <ele>10</ele>
        <time>2012-04-09T15:09:23Z</time>
      </trkpt>
      <trkpt lat="40.70704" lon="-74.01099">
        <ele>11</ele>
        <time>2012-04-09T15:09:25Z</time>
      </trkpt>
      <trkpt lat="40.70705" lon="-74.01096">
        <ele>13</ele>
        <time>2012-04-09T15:09:27Z</time>
      </trkpt>
      <trkpt lat="40.70705" lon="-74.01095">
        <ele>14</ele>
        <time>2012-04-09T15:09:28Z</time>
      </trkpt>
      <trkpt lat="40.70705" lon="-74.01093">
        <ele>16</ele>
        <time>2012-04-09T15:09:30Z</time>
      </trkpt>
      <trkpt lat="40.70704" lon="-74.0109">
        <ele>18</ele>
        <time>2012-04-09T15:09:32Z</time>
      </trkpt>
      <trkpt lat="40.70703" lon="-74.01089">
        <ele>19</ele>
        <time>2012-04-09T15:09:33Z</time>
      </trkpt>
      <trkpt lat="40.70702" lon="-74.01088">
        <ele>20</ele>
        <time>2012-04-09T15:09:34Z</time>
      </trkpt>
      <trkpt lat="40.70701" lon="-74.01086">
        <ele>22</ele>
        <time>2012-04-09T15:09:35Z</time>
      </trkpt>
      <trkpt lat="40.70698" lon="-74.01084">
        <ele>26</ele>
        <time>2012-04-09T15:09:38Z</time>
      </trkpt>
      <trkpt lat="40.70696" lon="-74.01083">
        <ele>28</ele>
        <time>2012-04-09T15:09:38Z</time>
      </trkpt>
      <trkpt lat="40.70694" lon="-74.01081">
        <ele>30</ele>
        <time>2012-04-09T15:09:39Z</time>
      </trkpt>
      <trkpt lat="40.70691" lon="-74.0108">
        <ele>32</ele>
        <time>2012-04-09T15:09:40Z</time>
      </trkpt>
      <trkpt lat="40.70689" lon="-74.01078">
        <ele>34</ele>
        <time>2012-04-09T15:09:41Z</time>
      </trkpt>
      <trkpt lat="40.70688" lon="-74.01077">
        <ele>36</ele>
        <time>2012-04-09T15:09:42Z</time>
      </trkpt>
      <trkpt lat="40.70687" lon="-74.01077">
        <ele>37</ele>
        <time>2012-04-09T15:09:43Z</time>
      </trkpt>
      <trkpt lat="40.70686" lon="-74.01076">
        <ele>39</ele>
        <time>2012-04-09T15:09:44Z</time>
      </trkpt>
      <trkpt lat="40.70684" lon="-74.01075">
        <ele>40</ele>
        <time>2012-04-09T15:09:45Z</time>
      </trkpt>
      <trkpt lat="40.70682" lon="-74.01073">
        <ele>43</ele>
        <time>2012-04-09T15:09:47Z</time>
      </trkpt>
      <trkpt lat="40.70681" lon="-74.01072">
        <ele>45</ele>
        <time>2012-04-09T15:09:49Z</time>
      </trkpt>
      <trkpt lat="40.70679" lon="-74.01071">
        <ele>46</ele>
        <time>2012-04-09T15:09:50Z</time>
      </trkpt>
      <trkpt lat="40.70676" lon="-74.01069">
        <ele>48</ele>
        <time>2012-04-09T15:09:52Z</time>
      </trkpt>
      <trkpt lat="40.70674" lon="-74.01068">
        <ele>50</ele>
        <time>2012-04-09T15:09:53Z</time>
      </trkpt>
      <trkpt lat="40.70673" lon="-74.01066">
        <ele>51</ele>
        <time>2012-04-09T15:09:54Z</time>
      </trkpt>
      <trkpt lat="40.70672" lon="-74.01065">
        <ele>53</ele>
        <time>2012-04-09T15:09:55Z</time>
      </trkpt>
      <trkpt lat="40.7067" lon="-74.01063">
        <ele>57</ele>
        <time>2012-04-09T15:09:57Z</time>
      </trkpt>
      <trkpt lat="40.70668" lon="-74.01063">
        <ele>59</ele>
        <time>2012-04-09T15:09:58Z</time>
      </trkpt>
      <trkpt lat="40.70667" lon="-74.01063">
        <ele>61</ele>
        <time>2012-04-09T15:09:59Z</time>
      </trkpt>
      <trkpt lat="40.70665" lon="-74.01063">
        <ele>62</ele>
        <time>2012-04-09T15:10:00Z</time>
      </trkpt>
      <trkpt lat="40.70664" lon="-74.01064">
        <ele>63</ele>
        <time>2012-04-09T15:10:01Z</time>
      </trkpt>
      <trkpt lat="40.70663" lon="-74.01064">
        <ele>65</ele>
        <time>2012-04-09T15:10:03Z</time>
      </trkpt>
      <trkpt lat="40.70661" lon="-74.01063">
        <ele>67</ele>
        <time>2012-04-09T15:10:05Z</time>
      </trkpt>
      <trkpt lat="40.70662" lon="-74.01063">
        <ele>75</ele>
        <time>2012-04-09T15:10:12Z</time>
      </trkpt>
      <trkpt lat="40.70663" lon="-74.01063">
        <ele>76</ele>
        <time>2012-04-09T15:10:13Z</time>
      </trkpt>
      <trkpt lat="40.70665" lon="-74.01063">
        <ele>77</ele>
        <time>2012-04-09T15:10:14Z</time>
      </trkpt>
      <trkpt lat="40.70666" lon="-74.01063">
        <ele>78</ele>
        <time>2012-04-09T15:10:15Z</time>
      </trkpt>
      <trkpt lat="40.70669" lon="-74.01064">
        <ele>80</ele>
        <time>2012-04-09T15:10:18Z</time>
      </trkpt>
      <trkpt lat="40.70671" lon="-74.01064">
        <ele>81</ele>
        <time>2012-04-09T15:10:19Z</time>
      </trkpt>
      <trkpt lat="40.70673" lon="-74.01065">
        <ele>82</ele>
        <time>2012-04-09T15:10:20Z</time>
      </trkpt>
      <trkpt lat="40.70675" lon="-74.01065">
        <ele>82</ele>
        <time>2012-04-09T15:10:21Z</time>
      </trkpt>
      <trkpt lat="40.70676" lon="-74.01064">
        <ele>82</ele>
        <time>2012-04-09T15:10:23Z</time>
      </trkpt>
      <trkpt lat="40.70677" lon="-74.01064">
        <ele>81</ele>
        <time>2012-04-09T15:10:25Z</time>
      </trkpt>
      <trkpt lat="40.70679" lon="-74.01062">
        <ele>74</ele>
        <time>2012-04-09T15:10:29Z</time>
      </trkpt>
      <trkpt lat="40.70681" lon="-74.01061">
        <ele>63</ele>
        <time>2012-04-09T15:10:40Z</time>
      </trkpt>
      <trkpt lat="40.70682" lon="-74.01061">
        <ele>64</ele>
        <time>2012-04-09T15:10:43Z</time>
      </trkpt>
      <trkpt lat="40.70686" lon="-74.01062">
        <ele>67</ele>
        <time>2012-04-09T15:10:46Z</time>
      </trkpt>
      <trkpt lat="40.70687" lon="-74.01063">
        <ele>68</ele>
        <time>2012-04-09T15:10:47Z</time>
      </trkpt>
      <trkpt lat="40.70689" lon="-74.01063">
        <ele>68</ele>
        <time>2012-04-09T15:10:49Z</time>
      </trkpt>
      <trkpt lat="40.70691" lon="-74.01063">
        <ele>68</ele>
        <time>2012-04-09T15:10:50Z</time>
      </trkpt>
      <trkpt lat="40.70691" lon="-74.01061">
        <ele>66</ele>
        <time>2012-04-09T15:10:52Z</time>
      </trkpt>
      <trkpt lat="40.70692" lon="-74.01059">
        <ele>64</ele>
        <time>2012-04-09T15:10:54Z</time>
      </trkpt>
      <trkpt lat="40.70694" lon="-74.01059">
        <ele>60</ele>
        <time>2012-04-09T15:10:56Z</time>
      </trkpt>
      <trkpt lat="40.70695" lon="-74.0106">
        <ele>57</ele>
        <time>2012-04-09T15:10:58Z</time>
      </trkpt>
      <trkpt lat="40.70696" lon="-74.01057">
        <ele>53</ele>
        <time>2012-04-09T15:11:01Z</time>
      </trkpt>
      <trkpt lat="40.70696" lon="-74.01055">
        <ele>50</ele>
        <time>2012-04-09T15:11:04Z</time>
      </trkpt>
      <trkpt lat="40.70695" lon="-74.01053">
        <ele>46</ele>
        <time>2012-04-09T15:11:06Z</time>
      </trkpt>
      <trkpt lat="40.70695" lon="-74.01052">
        <ele>42</ele>
        <time>2012-04-09T15:11:08Z</time>
      </trkpt>
      <trkpt lat="40.70695" lon="-74.0105">
        <ele>31</ele>
        <time>2012-04-09T15:11:12Z</time>
      </trkpt>
      <trkpt lat="40.70694" lon="-74.01049">
        <ele>26</ele>
        <time>2012-04-09T15:11:14Z</time>
      </trkpt>
      <trkpt lat="40.70693" lon="-74.01048">
        <ele>21</ele>
        <time>2012-04-09T15:11:16Z</time>
      </trkpt>
      <trkpt lat="40.70694" lon="-74.01048">
        <ele>12</ele>
        <time>2012-04-09T15:11:20Z</time>
      </trkpt>
      <trkpt lat="40.70696" lon="-74.01048">
        <ele>8</ele>
        <time>2012-04-09T15:11:22Z</time>
      </trkpt>
      <trkpt lat="40.70695" lon="-74.0105">
        <ele>3</ele>
        <time>2012-04-09T15:11:29Z</time>
      </trkpt>
      <trkpt lat="40.70695" lon="-74.01053">
        <ele>3</ele>
        <time>2012-04-09T15:11:30Z</time>
      </trkpt>
      <trkpt lat="40.70694" lon="-74.01054">
        <ele>3</ele>
        <time>2012-04-09T15:11:31Z</time>
      </trkpt>
      <trkpt lat="40.70693" lon="-74.01057">
        <ele>3</ele>
        <time>2012-04-09T15:11:33Z</time>
      </trkpt>
      <trkpt lat="40.70693" lon="-74.01059">
        <ele>3</ele>
        <time>2012-04-09T15:11:34Z</time>
      </trkpt>
      <trkpt lat="40.70693" lon="-74.01061">
        <ele>3</ele>
        <time>2012-04-09T15:11:35Z</time>
      </trkpt>
      <trkpt lat="40.70693" lon="-74.01064">
        <ele>3</ele>
        <time>2012-04-09T15:11:36Z</time>
      </trkpt>
      <trkpt lat="40.70693" lon="-74.01067">
        <ele>3</ele>
        <time>2012-04-09T15:11:37Z</time>
      </trkpt>
      <trkpt lat="40.70694" lon="-74.01071">
        <ele>3</ele>
        <time>2012-04-09T15:11:38Z</time>
      </trkpt>
      <trkpt lat="40.70695" lon="-74.01075">
        <ele>3</ele>
        <time>2012-04-09T15:11:39Z</time>
      </trkpt>
      <trkpt lat="40.70696" lon="-74.01077">
        <ele>4</ele>
        <time>2012-04-09T15:11:40Z</time>
      </trkpt>
      <trkpt lat="40.70697" lon="-74.0108">
        <ele>6</ele>
        <time>2012-04-09T15:11:41Z</time>
      </trkpt>
      <trkpt lat="40.70698" lon="-74.01082">
        <ele>8</ele>
        <time>2012-04-09T15:11:42Z</time>
      </trkpt>
      <trkpt lat="40.70698" lon="-74.01083">
        <ele>12</ele>
        <time>2012-04-09T15:11:43Z</time>
      </trkpt>
      <trkpt lat="40.70698" lon="-74.01087">
        <ele>19</ele>
        <time>2012-04-09T15:11:45Z</time>
      </trkpt>
      <trkpt lat="40.70699" lon="-74.0109">
        <ele>25</ele>
        <time>2012-04-09T15:11:47Z</time>
      </trkpt>
      <trkpt lat="40.70698" lon="-74.01093">
        <ele>29</ele>
        <time>2012-04-09T15:11:48Z</time>
      </trkpt>
      <trkpt lat="40.707" lon="-74.01095">
        <ele>37</ele>
        <time>2012-04-09T15:11:50Z</time>
      </trkpt>
      <trkpt lat="40.70702" lon="-74.01097">
        <ele>41</ele>
        <time>2012-04-09T15:11:51Z</time>
      </trkpt>
      <trkpt lat="40.70702" lon="-74.01099">
        <ele>45</ele>
        <time>2012-04-09T15:11:52Z</time>
      </trkpt>
      <trkpt lat="40.70703" lon="-74.011">
        <ele>49</ele>
        <time>2012-04-09T15:11:53Z</time>
      </trkpt>
      <trkpt lat="40.70703" lon="-74.01102">
        <ele>56</ele>
        <time>2012-04-09T15:11:55Z</time>
      </trkpt>
      <trkpt lat="40.70702" lon="-74.01103">
        <ele>62</ele>
        <time>2012-04-09T15:11:57Z</time>
      </trkpt>
      <trkpt lat="40.70703" lon="-74.01101">
        <ele>74</ele>
        <time>2012-04-09T15:12:01Z</time>
      </trkpt>
      <trkpt lat="40.70693" lon="-74.01084">
        <ele>82</ele>
        <time>2012-04-09T15:12:13Z</time>
      </trkpt>
      <trkpt lat="40.70692" lon="-74.01085">
        <ele>83</ele>
        <time>2012-04-09T15:12:14Z</time>
      </trkpt>
      <trkpt lat="40.70692" lon="-74.01083">
        <ele>84</ele>
        <time>2012-04-09T15:12:15Z</time>
      </trkpt>
      <trkpt lat="40.70689" lon="-74.01083">
        <ele>84</ele>
        <time>2012-04-09T15:12:17Z</time>
      </trkpt>
      <trkpt lat="40.70687" lon="-74.01082">
        <ele>84</ele>
        <time>2012-04-09T15:12:18Z</time>
      </trkpt>
      <trkpt lat="40.70686" lon="-74.0108">
        <ele>84</ele>
        <time>2012-04-09T15:12:19Z</time>
      </trkpt>
      <trkpt lat="40.70681" lon="-74.01078">
        <ele>84</ele>
        <time>2012-04-09T15:12:21Z</time>
      </trkpt>
      <trkpt lat="40.70677" lon="-74.01077">
        <ele>84</ele>
        <time>2012-04-09T15:12:22Z</time>
      </trkpt>
      <trkpt lat="40.70673" lon="-74.01074">
        <ele>84</ele>
        <time>2012-04-09T15:12:24Z</time>
      </trkpt>
      <trkpt lat="40.70671" lon="-74.01073">
        <ele>83</ele>
        <time>2012-04-09T15:12:25Z</time>
      </trkpt>
      <trkpt lat="40.70668" lon="-74.0107">
        <ele>83</ele>
        <time>2012-04-09T15:12:26Z</time>
      </trkpt>
      <trkpt lat="40.70665" lon="-74.0107">
        <ele>82</ele>
        <time>2012-04-09T15:12:29Z</time>
      </trkpt>
      <trkpt lat="40.70662" lon="-74.01068">
        <ele>82</ele>
        <time>2012-04-09T15:12:30Z</time>
      </trkpt>
      <trkpt lat="40.7066" lon="-74.01067">
        <ele>82</ele>
        <time>2012-04-09T15:12:31Z</time>
      </trkpt>
      <trkpt lat="40.70658" lon="-74.01065">
        <ele>82</ele>
        <time>2012-04-09T15:12:32Z</time>
      </trkpt>
      <trkpt lat="40.70658" lon="-74.01062">
        <ele>81</ele>
        <time>2012-04-09T15:12:33Z</time>
      </trkpt>
      <trkpt lat="40.70656" lon="-74.0106">
        <ele>80</ele>
        <time>2012-04-09T15:12:34Z</time>
      </trkpt>
      <trkpt lat="40.70654" lon="-74.0106">
        <ele>79</ele>
        <time>2012-04-09T15:12:35Z</time>
      </trkpt>
      <trkpt lat="40.70652" lon="-74.01059">
        <ele>77</ele>
        <time>2012-04-09T15:12:37Z</time>
      </trkpt>
      <trkpt lat="40.70649" lon="-74.0106">
        <ele>76</ele>
        <time>2012-04-09T15:12:38Z</time>
      </trkpt>
      <trkpt lat="40.70647" lon="-74.01061">
        <ele>76</ele>
        <time>2012-04-09T15:12:39Z</time>
      </trkpt>
      <trkpt lat="40.70644" lon="-74.01062">
        <ele>76</ele>
        <time>2012-04-09T15:12:40Z</time>
      </trkpt>
      <trkpt lat="40.70643" lon="-74.01063">
        <ele>76</ele>
        <time>2012-04-09T15:12:41Z</time>
      </trkpt>
      <trkpt lat="40.70642" lon="-74.01062">
        <ele>76</ele>
        <time>2012-04-09T15:12:43Z</time>
      </trkpt>
      <trkpt lat="40.7064" lon="-74.01063">
        <ele>76</ele>
        <time>2012-04-09T15:12:44Z</time>
      </trkpt>
      <trkpt lat="40.70639" lon="-74.01064">
        <ele>76</ele>
        <time>2012-04-09T15:12:47Z</time>
      </trkpt>
      <trkpt lat="40.70638" lon="-74.01063">
        <ele>78</ele>
        <time>2012-04-09T15:12:50Z</time>
      </trkpt>
      <trkpt lat="40.7064" lon="-74.01064">
        <ele>79</ele>
        <time>2012-04-09T15:12:51Z</time>
      </trkpt>
      <trkpt lat="40.70642" lon="-74.01065">
        <ele>79</ele>
        <time>2012-04-09T15:12:52Z</time>
      </trkpt>
      <trkpt lat="40.70644" lon="-74.01065">
        <ele>80</ele>
        <time>2012-04-09T15:12:53Z</time>
      </trkpt>
      <trkpt lat="40.70646" lon="-74.01065">
        <ele>81</ele>
        <time>2012-04-09T15:12:54Z</time>
      </trkpt>
      <trkpt lat="40.70647" lon="-74.01062">
        <ele>82</ele>
        <time>2012-04-09T15:12:55Z</time>
      </trkpt>
      <trkpt lat="40.70651" lon="-74.01062">
        <ele>82</ele>
        <time>2012-04-09T15:12:57Z</time>
      </trkpt>
      <trkpt lat="40.70649" lon="-74.0106">
        <ele>82</ele>
        <time>2012-04-09T15:12:58Z</time>
      </trkpt>
      <trkpt lat="40.70648" lon="-74.01059">
        <ele>82</ele>
        <time>2012-04-09T15:13:00Z</time>
      </trkpt>
      <trkpt lat="40.70646" lon="-74.01055">
        <ele>82</ele>
        <time>2012-04-09T15:13:04Z</time>
      </trkpt>
      <trkpt lat="40.70641" lon="-74.01051">
        <ele>82</ele>
        <time>2012-04-09T15:13:05Z</time>
      </trkpt>
      <trkpt lat="40.70639" lon="-74.01049">
        <ele>82</ele>
        <time>2012-04-09T15:13:06Z</time>
      </trkpt>
      <trkpt lat="40.70641" lon="-74.0105">
        <ele>81</ele>
        <time>2012-04-09T15:13:07Z</time>
      </trkpt>
      <trkpt lat="40.70638" lon="-74.01051">
        <ele>80</ele>
        <time>2012-04-09T15:13:08Z</time>
      </trkpt>
      <trkpt lat="40.70638" lon="-74.01048">
        <ele>79</ele>
        <time>2012-04-09T15:13:09Z</time>
      </trkpt>
      <trkpt lat="40.70635" lon="-74.01045">
        <ele>78</ele>
        <time>2012-04-09T15:13:11Z</time>
      </trkpt>
      <trkpt lat="40.70634" lon="-74.01044">
        <ele>77</ele>
        <time>2012-04-09T15:13:12Z</time>
      </trkpt>
      <trkpt lat="40.70634" lon="-74.01041">
        <ele>76</ele>
        <time>2012-04-09T15:13:17Z</time>
      </trkpt>
      <trkpt lat="40.70636" lon="-74.01039">
        <ele>74</ele>
        <time>2012-04-09T15:13:19Z</time>
      </trkpt>
      <trkpt lat="40.70636" lon="-74.01037">
        <ele>73</ele>
        <time>2012-04-09T15:13:20Z</time>
      </trkpt>
      <trkpt lat="40.70636" lon="-74.01035">
        <ele>73</ele>
        <time>2012-04-09T15:13:22Z</time>
      </trkpt>
      <trkpt lat="40.70644" lon="-74.01028">
        <ele>73</ele>
        <time>2012-04-09T15:13:28Z</time>
      </trkpt>
      <trkpt lat="40.70652" lon="-74.01024">
        <ele>73</ele>
        <time>2012-04-09T15:13:30Z</time>
      </trkpt>
      <trkpt lat="40.70659" lon="-74.01015">
        <ele>73</ele>
        <time>2012-04-09T15:13:34Z</time>
      </trkpt>
      <trkpt lat="40.70665" lon="-74.01015">
        <ele>73</ele>
        <time>2012-04-09T15:13:35Z</time>
      </trkpt>
      <trkpt lat="40.70673" lon="-74.01018">
        <ele>74</ele>
        <time>2012-04-09T15:13:36Z</time>
      </trkpt>
      <trkpt lat="40.70674" lon="-74.01022">
        <ele>75</ele>
        <time>2012-04-09T15:13:37Z</time>
      </trkpt>
      <trkpt lat="40.70673" lon="-74.01021">
        <ele>77</ele>
        <time>2012-04-09T15:13:38Z</time>
      </trkpt>
      <trkpt lat="40.70672" lon="-74.01012">
        <ele>81</ele>
        <time>2012-04-09T15:13:40Z</time>
      </trkpt>
      <trkpt lat="40.70671" lon="-74.01011">
        <ele>83</ele>
        <time>2012-04-09T15:13:41Z</time>
      </trkpt>
      <trkpt lat="40.7067" lon="-74.01009">
        <ele>87</ele>
        <time>2012-04-09T15:13:43Z</time>
      </trkpt>
      <trkpt lat="40.7067" lon="-74.01006">
        <ele>88</ele>
        <time>2012-04-09T15:13:44Z</time>
      </trkpt>
      <trkpt lat="40.7067" lon="-74.01003">
        <ele>89</ele>
        <time>2012-04-09T15:13:45Z</time>
      </trkpt>
      <trkpt lat="40.70669" lon="-74.01">
        <ele>90</ele>
        <time>2012-04-09T15:13:46Z</time>
      </trkpt>
      <trkpt lat="40.70667" lon="-74.00999">
        <ele>90</ele>
        <time>2012-04-09T15:13:47Z</time>
      </trkpt>
      <trkpt lat="40.70664" lon="-74.00997">
        <ele>90</ele>
        <time>2012-04-09T15:13:48Z</time>
      </trkpt>
      <trkpt lat="40.70662" lon="-74.00996">
        <ele>90</ele>
        <time>2012-04-09T15:13:50Z</time>
      </trkpt>
      <trkpt lat="40.7066" lon="-74.00996">
        <ele>90</ele>
        <time>2012-04-09T15:13:51Z</time>
      </trkpt>
      <trkpt lat="40.70658" lon="-74.00995">
        <ele>90</ele>
        <time>2012-04-09T15:13:52Z</time>
      </trkpt>
      <trkpt lat="40.70654" lon="-74.00994">
        <ele>90</ele>
        <time>2012-04-09T15:13:53Z</time>
      </trkpt>
      <trkpt lat="40.70652" lon="-74.00993">
        <ele>90</ele>
        <time>2012-04-09T15:13:54Z</time>
      </trkpt>
      <trkpt lat="40.70653" lon="-74.00995">
        <ele>87</ele>
        <time>2012-04-09T15:13:57Z</time>
      </trkpt>
      <trkpt lat="40.70651" lon="-74.00992">
        <ele>85</ele>
        <time>2012-04-09T15:13:59Z</time>
      </trkpt>
      <trkpt lat="40.70648" lon="-74.00986">
        <ele>85</ele>
        <time>2012-04-09T15:14:04Z</time>
      </trkpt>
      <trkpt lat="40.70647" lon="-74.00985">
        <ele>85</ele>
        <time>2012-04-09T15:14:05Z</time>
      </trkpt>
      <trkpt lat="40.70646" lon="-74.00983">
        <ele>85</ele>
        <time>2012-04-09T15:14:06Z</time>
      </trkpt>
      <trkpt lat="40.70653" lon="-74.00977">
        <ele>92</ele>
        <time>2012-04-09T15:14:23Z</time>
      </trkpt>
      <trkpt lat="40.70654" lon="-74.00977">
        <ele>94</ele>
        <time>2012-04-09T15:14:26Z</time>
      </trkpt>
      <trkpt lat="40.70661" lon="-74.00979">
        <ele>99</ele>
        <time>2012-04-09T15:14:33Z</time>
      </trkpt>
      <trkpt lat="40.70662" lon="-74.00977">
        <ele>100</ele>
        <time>2012-04-09T15:14:34Z</time>
      </trkpt>
      <trkpt lat="40.7066" lon="-74.00974">
        <ele>105</ele>
        <time>2012-04-09T15:14:37Z</time>
      </trkpt>
      <trkpt lat="40.70663" lon="-74.00974">
        <ele>107</ele>
        <time>2012-04-09T15:14:38Z</time>
      </trkpt>
      <trkpt lat="40.70663" lon="-74.00972">
        <ele>109</ele>
        <time>2012-04-09T15:14:39Z</time>
      </trkpt>
      <trkpt lat="40.70665" lon="-74.00971">
        <ele>111</ele>
        <time>2012-04-09T15:14:40Z</time>
      </trkpt>
      <trkpt lat="40.70667" lon="-74.0097">
        <ele>113</ele>
        <time>2012-04-09T15:14:41Z</time>
      </trkpt>
      <trkpt lat="40.70666" lon="-74.00973">
        <ele>120</ele>
        <time>2012-04-09T15:14:48Z</time>
      </trkpt>
      <trkpt lat="40.70664" lon="-74.00976">
        <ele>125</ele>
        <time>2012-04-09T15:14:55Z</time>
      </trkpt>
      <trkpt lat="40.70663" lon="-74.00974">
        <ele>125</ele>
        <time>2012-04-09T15:14:56Z</time>
      </trkpt>
      <trkpt lat="40.70665" lon="-74.00976">
        <ele>125</ele>
        <time>2012-04-09T15:14:59Z</time>
      </trkpt>
      <trkpt lat="40.70666" lon="-74.00979">
        <ele>125</ele>
        <time>2012-04-09T15:15:00Z</time>
      </trkpt>
      <trkpt lat="40.70667" lon="-74.00983">
        <ele>125</ele>
        <time>2012-04-09T15:15:01Z</time>
      </trkpt>
      <trkpt lat="40.70666" lon="-74.00986">
        <ele>125</ele>
        <time>2012-04-09T15:15:02Z</time>
      </trkpt>
      <trkpt lat="40.70667" lon="-74.00989">
        <ele>125</ele>
        <time>2012-04-09T15:15:03Z</time>
      </trkpt>
      <trkpt lat="40.70665" lon="-74.00986">
        <ele>125</ele>
        <time>2012-04-09T15:15:04Z</time>
      </trkpt>
      <trkpt lat="40.70663" lon="-74.00984">
        <ele>125</ele>
        <time>2012-04-09T15:15:05Z</time>
      </trkpt>
      <trkpt lat="40.70661" lon="-74.00983">
        <ele>124</ele>
        <time>2012-04-09T15:15:06Z</time>
      </trkpt>
      <trkpt lat="40.70661" lon="-74.0098">
        <ele>122</ele>
        <time>2012-04-09T15:15:08Z</time>
      </trkpt>
      <trkpt lat="40.70658" lon="-74.0098">
        <ele>121</ele>
        <time>2012-04-09T15:15:09Z</time>
      </trkpt>
      <trkpt lat="40.70655" lon="-74.00979">
        <ele>119</ele>
        <time>2012-04-09T15:15:10Z</time>
      </trkpt>
      <trkpt lat="40.70654" lon="-74.00976">
        <ele>117</ele>
        <time>2012-04-09T15:15:11Z</time>
      </trkpt>
      <trkpt lat="40.7065" lon="-74.00974">
        <ele>115</ele>
        <time>2012-04-09T15:15:12Z</time>
      </trkpt>
      <trkpt lat="40.70647" lon="-74.00969">
        <ele>113</ele>
        <time>2012-04-09T15:15:13Z</time>
      </trkpt>
      <trkpt lat="40.70645" lon="-74.00969">
        <ele>111</ele>
        <time>2012-04-09T15:15:14Z</time>
      </trkpt>
      <trkpt lat="40.70643" lon="-74.00968">
        <ele>109</ele>
        <time>2012-04-09T15:15:15Z</time>
      </trkpt>
      <trkpt lat="40.70642" lon="-74.00969">
        <ele>107</ele>
        <time>2012-04-09T15:15:16Z</time>
      </trkpt>
      <trkpt lat="40.70642" lon="-74.0097">
        <ele>105</ele>
        <time>2012-04-09T15:15:17Z</time>
      </trkpt>
      <trkpt lat="40.70642" lon="-74.00972">
        <ele>102</ele>
        <time>2012-04-09T15:15:19Z</time>
      </trkpt>
      <trkpt lat="40.70642" lon="-74.00974">
        <ele>101</ele>
        <time>2012-04-09T15:15:20Z</time>
      </trkpt>
      <trkpt lat="40.70643" lon="-74.00971">
        <ele>95</ele>
        <time>2012-04-09T15:15:23Z</time>
      </trkpt>
      <trkpt lat="40.70643" lon="-74.0097">
        <ele>93</ele>
        <time>2012-04-09T15:15:24Z</time>
      </trkpt>
      <trkpt lat="40.70641" lon="-74.00968">
        <ele>89</ele>
        <time>2012-04-09T15:15:26Z</time>
      </trkpt>
      <trkpt lat="40.70641" lon="-74.0097">
        <ele>82</ele>
        <time>2012-04-09T15:15:34Z</time>
      </trkpt>
      <trkpt lat="40.70642" lon="-74.00973">
        <ele>82</ele>
        <time>2012-04-09T15:15:35Z</time>
      </trkpt>
      <trkpt lat="40.70642" lon="-74.00977">
        <ele>82</ele>
        <time>2012-04-09T15:15:37Z</time>
      </trkpt>
      <trkpt lat="40.70643" lon="-74.00978">
        <ele>83</ele>
        <time>2012-04-09T15:15:38Z</time>
      </trkpt>
      <trkpt lat="40.70644" lon="-74.00977">
        <ele>85</ele>
        <time>2012-04-09T15:15:43Z</time>
      </trkpt>
      <trkpt lat="40.70642" lon="-74.00972">
        <ele>86</ele>
        <time>2012-04-09T15:15:44Z</time>
      </trkpt>
      <trkpt lat="40.70642" lon="-74.0097">
        <ele>88</ele>
        <time>2012-04-09T15:15:46Z</time>
      </trkpt>
      <trkpt lat="40.70641" lon="-74.00967">
        <ele>89</ele>
        <time>2012-04-09T15:15:47Z</time>
      </trkpt>
      <trkpt lat="40.70642" lon="-74.00964">
        <ele>89</ele>
        <time>2012-04-09T15:15:48Z</time>
      </trkpt>
      <trkpt lat="40.70641" lon="-74.00961">
        <ele>89</ele>
        <time>2012-04-09T15:15:49Z</time>
      </trkpt>
      <trkpt lat="40.70642" lon="-74.0096">
        <ele>89</ele>
        <time>2012-04-09T15:15:51Z</time>
      </trkpt>
      <trkpt lat="40.70645" lon="-74.00961">
        <ele>89</ele>
        <time>2012-04-09T15:15:55Z</time>
      </trkpt>
      <trkpt lat="40.70646" lon="-74.00961">
        <ele>89</ele>
        <time>2012-04-09T15:15:56Z</time>
      </trkpt>
      <trkpt lat="40.70649" lon="-74.00957">
        <ele>93</ele>
        <time>2012-04-09T15:16:03Z</time>
      </trkpt>
      <trkpt lat="40.70648" lon="-74.00955">
        <ele>95</ele>
        <time>2012-04-09T15:16:04Z</time>
      </trkpt>
      <trkpt lat="40.70651" lon="-74.00956">
        <ele>101</ele>
        <time>2012-04-09T15:16:06Z</time>
      </trkpt>
      <trkpt lat="40.70655" lon="-74.00962">
        <ele>112</ele>
        <time>2012-04-09T15:16:11Z</time>
      </trkpt>
      <trkpt lat="40.70655" lon="-74.00966">
        <ele>120</ele>
        <time>2012-04-09T15:16:15Z</time>
      </trkpt>
      <trkpt lat="40.70654" lon="-74.00962">
        <ele>124</ele>
        <time>2012-04-09T15:16:16Z</time>
      </trkpt>
      <trkpt lat="40.70656" lon="-74.00961">
        <ele>128</ele>
        <time>2012-04-09T15:16:17Z</time>
      </trkpt>
      <trkpt lat="40.70656" lon="-74.00963">
        <ele>148</ele>
        <time>2012-04-09T15:16:25Z</time>
      </trkpt>
      <trkpt lat="40.70659" lon="-74.00961">
        <ele>152</ele>
        <time>2012-04-09T15:16:26Z</time>
      </trkpt>
      <trkpt lat="40.70659" lon="-74.00964">
        <ele>156</ele>
        <time>2012-04-09T15:16:27Z</time>
      </trkpt>
      <trkpt lat="40.70657" lon="-74.00965">
        <ele>161</ele>
        <time>2012-04-09T15:16:28Z</time>
      </trkpt>
      <trkpt lat="40.70658" lon="-74.00963">
        <ele>166</ele>
        <time>2012-04-09T15:16:29Z</time>
      </trkpt>
      <trkpt lat="40.70662" lon="-74.00966">
        <ele>174</ele>
        <time>2012-04-09T15:16:31Z</time>
      </trkpt>
      <trkpt lat="40.70663" lon="-74.00967">
        <ele>182</ele>
        <time>2012-04-09T15:16:33Z</time>
      </trkpt>
      <trkpt lat="40.70665" lon="-74.0097">
        <ele>194</ele>
        <time>2012-04-09T15:16:36Z</time>
      </trkpt>
      <trkpt lat="40.70666" lon="-74.00971">
        <ele>206</ele>
        <time>2012-04-09T15:16:39Z</time>
      </trkpt>
      <trkpt lat="40.70668" lon="-74.00971">
        <ele>210</ele>
        <time>2012-04-09T15:16:40Z</time>
      </trkpt>
      <trkpt lat="40.70671" lon="-74.00972">
        <ele>218</ele>
        <time>2012-04-09T15:16:42Z</time>
      </trkpt>
      <trkpt lat="40.70672" lon="-74.00974">
        <ele>233</ele>
        <time>2012-04-09T15:16:46Z</time>
      </trkpt>
      <trkpt lat="40.70675" lon="-74.00974">
        <ele>242</ele>
        <time>2012-04-09T15:16:48Z</time>
      </trkpt>
      <trkpt lat="40.70676" lon="-74.00976">
        <ele>247</ele>
        <time>2012-04-09T15:16:49Z</time>
      </trkpt>
      <trkpt lat="40.70678" lon="-74.00979">
        <ele>259</ele>
        <time>2012-04-09T15:16:51Z</time>
      </trkpt>
      <trkpt lat="40.70679" lon="-74.00981">
        <ele>265</ele>
        <time>2012-04-09T15:16:52Z</time>
      </trkpt>
      <trkpt lat="40.70681" lon="-74.00983">
        <ele>271</ele>
        <time>2012-04-09T15:16:53Z</time>
      </trkpt>
      <trkpt lat="40.70682" lon="-74.00984">
        <ele>277</ele>
        <time>2012-04-09T15:16:54Z</time>
      </trkpt>
      <trkpt lat="40.70683" lon="-74.00985">
        <ele>283</ele>
        <time>2012-04-09T15:16:55Z</time>
      </trkpt>
      <trkpt lat="40.70687" lon="-74.00983">
        <ele>290</ele>
        <time>2012-04-09T15:16:56Z</time>
      </trkpt>
      <trkpt lat="40.70689" lon="-74.00983">
        <ele>297</ele>
        <time>2012-04-09T15:16:57Z</time>
      </trkpt>
      <trkpt lat="40.70693" lon="-74.00983">
        <ele>304</ele>
        <time>2012-04-09T15:16:58Z</time>
      </trkpt>
      <trkpt lat="40.70694" lon="-74.00983">
        <ele>311</ele>
        <time>2012-04-09T15:16:59Z</time>
      </trkpt>
      <trkpt lat="40.70696" lon="-74.00983">
        <ele>318</ele>
        <time>2012-04-09T15:17:00Z</time>
      </trkpt>
      <trkpt lat="40.70697" lon="-74.00984">
        <ele>332</ele>
        <time>2012-04-09T15:17:02Z</time>
      </trkpt>
      <trkpt lat="40.70697" lon="-74.00986">
        <ele>339</ele>
        <time>2012-04-09T15:17:03Z</time>
      </trkpt>
      <trkpt lat="40.70697" lon="-74.00988">
        <ele>346</ele>
        <time>2012-04-09T15:17:04Z</time>
      </trkpt>
      <trkpt lat="40.70698" lon="-74.00992">
        <ele>353</ele>
        <time>2012-04-09T15:17:05Z</time>
      </trkpt>
      <trkpt lat="40.70698" lon="-74.00995">
        <ele>360</ele>
        <time>2012-04-09T15:17:06Z</time>
      </trkpt>
      <trkpt lat="40.70698" lon="-74.00997">
        <ele>366</ele>
        <time>2012-04-09T15:17:07Z</time>
      </trkpt>
      <trkpt lat="40.70697" lon="-74.00999">
        <ele>373</ele>
        <time>2012-04-09T15:17:08Z</time>
      </trkpt>
      <trkpt lat="40.70698" lon="-74.01001">
        <ele>379</ele>
        <time>2012-04-09T15:17:09Z</time>
      </trkpt>
      <trkpt lat="40.70698" lon="-74.01003">
        <ele>385</ele>
        <time>2012-04-09T15:17:10Z</time>
      </trkpt>
      <trkpt lat="40.70698" lon="-74.01004">
        <ele>391</ele>
        <time>2012-04-09T15:17:11Z</time>
      </trkpt>
      <trkpt lat="40.70691" lon="-74.01009">
        <ele>397</ele>
        <time>2012-04-09T15:17:12Z</time>
      </trkpt>
      <trkpt lat="40.70688" lon="-74.01011">
        <ele>404</ele>
        <time>2012-04-09T15:17:13Z</time>
      </trkpt>
      <trkpt lat="40.70685" lon="-74.01012">
        <ele>410</ele>
        <time>2012-04-09T15:17:14Z</time>
      </trkpt>
      <trkpt lat="40.70683" lon="-74.01012">
        <ele>416</ele>
        <time>2012-04-09T15:17:15Z</time>
      </trkpt>
      <trkpt lat="40.70682" lon="-74.01015">
        <ele>422</ele>
        <time>2012-04-09T15:17:16Z</time>
      </trkpt>
      <trkpt lat="40.7068" lon="-74.01017">
        <ele>428</ele>
        <time>2012-04-09T15:17:17Z</time>
      </trkpt>
      <trkpt lat="40.70678" lon="-74.01018">
        <ele>434</ele>
        <time>2012-04-09T15:17:18Z</time>
      </trkpt>
      <trkpt lat="40.70677" lon="-74.01019">
        <ele>440</ele>
        <time>2012-04-09T15:17:19Z</time>
      </trkpt>
      <trkpt lat="40.70677" lon="-74.01022">
        <ele>452</ele>
        <time>2012-04-09T15:17:21Z</time>
      </trkpt>
      <trkpt lat="40.70679" lon="-74.01023">
        <ele>459</ele>
        <time>2012-04-09T15:17:22Z</time>
      </trkpt>
      <trkpt lat="40.70681" lon="-74.01025">
        <ele>466</ele>
        <time>2012-04-09T15:17:23Z</time>
      </trkpt>
      <trkpt lat="40.70683" lon="-74.01027">
        <ele>473</ele>
        <time>2012-04-09T15:17:24Z</time>
      </trkpt>
      <trkpt lat="40.70685" lon="-74.01029">
        <ele>480</ele>
        <time>2012-04-09T15:17:25Z</time>
      </trkpt>
      <trkpt lat="40.70688" lon="-74.01031">
        <ele>487</ele>
        <time>2012-04-09T15:17:26Z</time>
      </trkpt>
      <trkpt lat="40.7069" lon="-74.01034">
        <ele>494</ele>
        <time>2012-04-09T15:17:27Z</time>
      </trkpt>
      <trkpt lat="40.70692" lon="-74.01036">
        <ele>501</ele>
        <time>2012-04-09T15:17:28Z</time>
      </trkpt>
      <trkpt lat="40.70694" lon="-74.01036">
        <ele>509</ele>
        <time>2012-04-09T15:17:29Z</time>
      </trkpt>
      <trkpt lat="40.70695" lon="-74.01037">
        <ele>517</ele>
        <time>2012-04-09T15:17:30Z</time>
      </trkpt>
      <trkpt lat="40.70697" lon="-74.01039">
        <ele>525</ele>
        <time>2012-04-09T15:17:31Z</time>
      </trkpt>
      <trkpt lat="40.70699" lon="-74.01041">
        <ele>533</ele>
        <time>2012-04-09T15:17:32Z</time>
      </trkpt>
      <trkpt lat="40.70702" lon="-74.01043">
        <ele>540</ele>
        <time>2012-04-09T15:17:33Z</time>
      </trkpt>
      <trkpt lat="40.70704" lon="-74.01046">
        <ele>547</ele>
        <time>2012-04-09T15:17:34Z</time>
      </trkpt>
      <trkpt lat="40.70707" lon="-74.01048">
        <ele>554</ele>
        <time>2012-04-09T15:17:35Z</time>
      </trkpt>
      <trkpt lat="40.70709" lon="-74.01051">
        <ele>561</ele>
        <time>2012-04-09T15:17:36Z</time>
      </trkpt>
      <trkpt lat="40.70714" lon="-74.01057">
        <ele>568</ele>
        <time>2012-04-09T15:17:37Z</time>
      </trkpt>
      <trkpt lat="40.70718" lon="-74.01063">
        <ele>575</ele>
        <time>2012-04-09T15:17:38Z</time>
      </trkpt>
      <trkpt lat="40.70723" lon="-74.01068">
        <ele>582</ele>
        <time>2012-04-09T15:17:39Z</time>
      </trkpt>
      <trkpt lat="40.70726" lon="-74.01073">
        <ele>589</ele>
        <time>2012-04-09T15:17:40Z</time>
      </trkpt>
      <trkpt lat="40.7073" lon="-74.01078">
        <ele>596</ele>
        <time>2012-04-09T15:17:41Z</time>
      </trkpt>
      <trkpt lat="40.70733" lon="-74.01083">
        <ele>603</ele>
        <time>2012-04-09T15:17:42Z</time>
      </trkpt>
      <trkpt lat="40.70737" lon="-74.01086">
        <ele>610</ele>
        <time>2012-04-09T15:17:43Z</time>
      </trkpt>
      <trkpt lat="40.7074" lon="-74.01089">
        <ele>617</ele>
        <time>2012-04-09T15:17:44Z</time>
      </trkpt>
      <trkpt lat="40.70744" lon="-74.01093">
        <ele>624</ele>
        <time>2012-04-09T15:17:45Z</time>
      </trkpt>
      <trkpt lat="40.70745" lon="-74.01093">
        <ele>630</ele>
        <time>2012-04-09T15:17:46Z</time>
      </trkpt>
      <trkpt lat="40.70749" lon="-74.01096">
        <ele>636</ele>
        <time>2012-04-09T15:17:47Z</time>
      </trkpt>
      <trkpt lat="40.70755" lon="-74.01099">
        <ele>642</ele>
        <time>2012-04-09T15:17:48Z</time>
      </trkpt>
      <trkpt lat="40.7076" lon="-74.01102">
        <ele>648</ele>
        <time>2012-04-09T15:17:49Z</time>
      </trkpt>
      <trkpt lat="40.70764" lon="-74.01105">
        <ele>653</ele>
        <time>2012-04-09T15:17:50Z</time>
      </trkpt>
      <trkpt lat="40.70767" lon="-74.01109">
        <ele>657</ele>
        <time>2012-04-09T15:17:51Z</time>
      </trkpt>
      <trkpt lat="40.70771" lon="-74.01112">
        <ele>661</ele>
        <time>2012-04-09T15:17:52Z</time>
      </trkpt>
      <trkpt lat="40.70771" lon="-74.0111">
        <ele>665</ele>
        <time>2012-04-09T15:17:53Z</time>
      </trkpt>
      <trkpt lat="40.70773" lon="-74.01112">
        <ele>671</ele>
        <time>2012-04-09T15:17:55Z</time>
      </trkpt>
      <trkpt lat="40.70773" lon="-74.01113">
        <ele>674</ele>
        <time>2012-04-09T15:17:56Z</time>
      </trkpt>
      <trkpt lat="40.70771" lon="-74.01112">
        <ele>677</ele>
        <time>2012-04-09T15:17:57Z</time>
      </trkpt>
      <trkpt lat="40.70768" lon="-74.0111">
        <ele>680</ele>
        <time>2012-04-09T15:17:58Z</time>
      </trkpt>
      <trkpt lat="40.70767" lon="-74.01109">
        <ele>684</ele>
        <time>2012-04-09T15:18:00Z</time>
      </trkpt>
      <trkpt lat="40.70763" lon="-74.01104">
        <ele>685</ele>
        <time>2012-04-09T15:18:01Z</time>
      </trkpt>
      <trkpt lat="40.70761" lon="-74.01105">
        <ele>686</ele>
        <time>2012-04-09T15:18:04Z</time>
      </trkpt>
      <trkpt lat="40.70758" lon="-74.011">
        <ele>687</ele>
        <time>2012-04-09T15:18:05Z</time>
      </trkpt>
      <trkpt lat="40.70755" lon="-74.01096">
        <ele>687</ele>
        <time>2012-04-09T15:18:06Z</time>
      </trkpt>
      <trkpt lat="40.70752" lon="-74.01093">
        <ele>687</ele>
        <time>2012-04-09T15:18:07Z</time>
      </trkpt>
      <trkpt lat="40.70749" lon="-74.01093">
        <ele>687</ele>
        <time>2012-04-09T15:18:08Z</time>
      </trkpt>
      <trkpt lat="40.7075" lon="-74.01096">
        <ele>685</ele>
        <time>2012-04-09T15:18:10Z</time>
      </trkpt>
      <trkpt lat="40.70752" lon="-74.01097">
        <ele>684</ele>
        <time>2012-04-09T15:18:11Z</time>
      </trkpt>
      <trkpt lat="40.70751" lon="-74.01098">
        <ele>681</ele>
        <time>2012-04-09T15:18:14Z</time>
      </trkpt>
      <trkpt lat="40.70749" lon="-74.01098">
        <ele>681</ele>
        <time>2012-04-09T15:18:15Z</time>
      </trkpt>
      <trkpt lat="40.70749" lon="-74.011">
        <ele>681</ele>
        <time>2012-04-09T15:18:16Z</time>
      </trkpt>
      <trkpt lat="40.70748" lon="-74.01102">
        <ele>681</ele>
        <time>2012-04-09T15:18:17Z</time>
      </trkpt>
      <trkpt lat="40.70747" lon="-74.01105">
        <ele>681</ele>
        <time>2012-04-09T15:18:18Z</time>
      </trkpt>
      <trkpt lat="40.70745" lon="-74.01107">
        <ele>680</ele>
        <time>2012-04-09T15:18:19Z</time>
      </trkpt>
      <trkpt lat="40.70744" lon="-74.01109">
        <ele>679</ele>
        <time>2012-04-09T15:18:20Z</time>
      </trkpt>
      <trkpt lat="40.70736" lon="-74.01118">
        <ele>678</ele>
        <time>2012-04-09T15:18:24Z</time>
      </trkpt>
      <trkpt lat="40.70732" lon="-74.01116">
        <ele>677</ele>
        <time>2012-04-09T15:18:26Z</time>
      </trkpt>
      <trkpt lat="40.70729" lon="-74.01115">
        <ele>676</ele>
        <time>2012-04-09T15:18:27Z</time>
      </trkpt>
      <trkpt lat="40.70727" lon="-74.01114">
        <ele>675</ele>
        <time>2012-04-09T15:18:28Z</time>
      </trkpt>
      <trkpt lat="40.70724" lon="-74.01115">
        <ele>674</ele>
        <time>2012-04-09T15:18:29Z</time>
      </trkpt>
      <trkpt lat="40.70721" lon="-74.01113">
        <ele>672</ele>
        <time>2012-04-09T15:18:31Z</time>
      </trkpt>
      <trkpt lat="40.7072" lon="-74.01113">
        <ele>671</ele>
        <time>2012-04-09T15:18:32Z</time>
      </trkpt>
      <trkpt lat="40.70718" lon="-74.01112">
        <ele>670</ele>
        <time>2012-04-09T15:18:34Z</time>
      </trkpt>
      <trkpt lat="40.70708" lon="-74.01102">
        <ele>669</ele>
        <time>2012-04-09T15:18:35Z</time>
      </trkpt>
      <trkpt lat="40.70705" lon="-74.01099">
        <ele>667</ele>
        <time>2012-04-09T15:18:36Z</time>
      </trkpt>
      <trkpt lat="40.70699" lon="-74.01093">
        <ele>664</ele>
        <time>2012-04-09T15:18:37Z</time>
      </trkpt>
      <trkpt lat="40.70695" lon="-74.0109">
        <ele>661</ele>
        <time>2012-04-09T15:18:38Z</time>
      </trkpt>
      <trkpt lat="40.70692" lon="-74.01089">
        <ele>657</ele>
        <time>2012-04-09T15:18:39Z</time>
      </trkpt>
      <trkpt lat="40.70689" lon="-74.01088">
        <ele>653</ele>
        <time>2012-04-09T15:18:40Z</time>
      </trkpt>
      <trkpt lat="40.70687" lon="-74.01086">
        <ele>649</ele>
        <time>2012-04-09T15:18:41Z</time>
      </trkpt>
      <trkpt lat="40.70685" lon="-74.01084">
        <ele>645</ele>
        <time>2012-04-09T15:18:42Z</time>
      </trkpt>
      <trkpt lat="40.70683" lon="-74.01081">
        <ele>641</ele>
        <time>2012-04-09T15:18:43Z</time>
      </trkpt>
      <trkpt lat="40.70681" lon="-74.01078">
        <ele>638</ele>
        <time>2012-04-09T15:18:44Z</time>
      </trkpt>
      <trkpt lat="40.70679" lon="-74.01074">
        <ele>635</ele>
        <time>2012-04-09T15:18:45Z</time>
      </trkpt>
      <trkpt lat="40.70677" lon="-74.01072">
        <ele>632</ele>
        <time>2012-04-09T15:18:46Z</time>
      </trkpt>
      <trkpt lat="40.70676" lon="-74.01069">
        <ele>629</ele>
        <time>2012-04-09T15:18:47Z</time>
      </trkpt>
      <trkpt lat="40.70674" lon="-74.0107">
        <ele>625</ele>
        <time>2012-04-09T15:18:49Z</time>
      </trkpt>
      <trkpt lat="40.70674" lon="-74.01071">
        <ele>623</ele>
        <time>2012-04-09T15:18:50Z</time>
      </trkpt>
      <trkpt lat="40.70673" lon="-74.01073">
        <ele>619</ele>
        <time>2012-04-09T15:18:52Z</time>
      </trkpt>
      <trkpt lat="40.70673" lon="-74.01076">
        <ele>617</ele>
        <time>2012-04-09T15:18:53Z</time>
      </trkpt>
      <trkpt lat="40.70673" lon="-74.01078">
        <ele>615</ele>
        <time>2012-04-09T15:18:54Z</time>
      </trkpt>
      <trkpt lat="40.70672" lon="-74.0108">
        <ele>611</ele>
        <time>2012-04-09T15:18:56Z</time>
      </trkpt>
      <trkpt lat="40.70671" lon="-74.01081">
        <ele>608</ele>
        <time>2012-04-09T15:18:57Z</time>
      </trkpt>
      <trkpt lat="40.70671" lon="-74.01083">
        <ele>606</ele>
        <time>2012-04-09T15:18:58Z</time>
      </trkpt>
      <trkpt lat="40.70675" lon="-74.01094">
        <ele>604</ele>
        <time>2012-04-09T15:19:03Z</time>
      </trkpt>
      <trkpt lat="40.70675" lon="-74.01096">
        <ele>602</ele>
        <time>2012-04-09T15:19:04Z</time>
      </trkpt>
      <trkpt lat="40.70679" lon="-74.01101">
        <ele>600</ele>
        <time>2012-04-09T15:19:11Z</time>
      </trkpt>
      <trkpt lat="40.7068" lon="-74.01101">
        <ele>599</ele>
        <time>2012-04-09T15:19:12Z</time>
      </trkpt>
      <trkpt lat="40.70682" lon="-74.01104">
        <ele>599</ele>
        <time>2012-04-09T15:19:15Z</time>
      </trkpt>
      <trkpt lat="40.70688" lon="-74.01102">
        <ele>599</ele>
        <time>2012-04-09T15:19:17Z</time>
      </trkpt>
      <trkpt lat="40.70703" lon="-74.01115">
        <ele>599</ele>
        <time>2012-04-09T15:19:22Z</time>
      </trkpt>
      <trkpt lat="40.70746" lon="-74.01168">
        <ele>593</ele>
        <time>2012-04-09T15:19:23Z</time>
      </trkpt>
      <trkpt lat="40.70747" lon="-74.01167">
        <ele>582</ele>
        <time>2012-04-09T15:19:24Z</time>
      </trkpt>
      <trkpt lat="40.7075" lon="-74.01166">
        <ele>566</ele>
        <time>2012-04-09T15:19:25Z</time>
      </trkpt>
      <trkpt lat="40.70753" lon="-74.01168">
        <ele>481</ele>
        <time>2012-04-09T15:19:29Z</time>
      </trkpt>
      <trkpt lat="40.70755" lon="-74.0117">
        <ele>464</ele>
        <time>2012-04-09T15:19:30Z</time>
      </trkpt>
      <trkpt lat="40.70756" lon="-74.01172">
        <ele>450</ele>
        <time>2012-04-09T15:19:31Z</time>
      </trkpt>
      <trkpt lat="40.70757" lon="-74.01173">
        <ele>437</ele>
        <time>2012-04-09T15:19:32Z</time>
      </trkpt>
      <trkpt lat="40.70758" lon="-74.01175">
        <ele>426</ele>
        <time>2012-04-09T15:19:33Z</time>
      </trkpt>
      <trkpt lat="40.70756" lon="-74.01175">
        <ele>409</ele>
        <time>2012-04-09T15:19:35Z</time>
      </trkpt>
      <trkpt lat="40.70753" lon="-74.01173">
        <ele>396</ele>
        <time>2012-04-09T15:19:37Z</time>
      </trkpt>
      <trkpt lat="40.7075" lon="-74.01173">
        <ele>391</ele>
        <time>2012-04-09T15:19:38Z</time>
      </trkpt>
      <trkpt lat="40.70747" lon="-74.01173">
        <ele>386</ele>
        <time>2012-04-09T15:19:39Z</time>
      </trkpt>
      <trkpt lat="40.70746" lon="-74.01173">
        <ele>381</ele>
        <time>2012-04-09T15:19:40Z</time>
      </trkpt>
      <trkpt lat="40.70745" lon="-74.01173">
        <ele>376</ele>
        <time>2012-04-09T15:19:41Z</time>
      </trkpt>
      <trkpt lat="40.70744" lon="-74.01171">
        <ele>371</ele>
        <time>2012-04-09T15:19:42Z</time>
      </trkpt>
      <trkpt lat="40.70742" lon="-74.0117">
        <ele>366</ele>
        <time>2012-04-09T15:19:43Z</time>
      </trkpt>
      <trkpt lat="40.70741" lon="-74.01167">
        <ele>361</ele>
        <time>2012-04-09T15:19:44Z</time>
      </trkpt>
      <trkpt lat="40.7074" lon="-74.01167">
        <ele>356</ele>
        <time>2012-04-09T15:19:45Z</time>
      </trkpt>
      <trkpt lat="40.70738" lon="-74.01165">
        <ele>352</ele>
        <time>2012-04-09T15:19:46Z</time>
      </trkpt>
      <trkpt lat="40.70737" lon="-74.01163">
        <ele>348</ele>
        <time>2012-04-09T15:19:47Z</time>
      </trkpt>
      <trkpt lat="40.70736" lon="-74.0116">
        <ele>344</ele>
        <time>2012-04-09T15:19:48Z</time>
      </trkpt>
      <trkpt lat="40.70736" lon="-74.01159">
        <ele>341</ele>
        <time>2012-04-09T15:19:49Z</time>
      </trkpt>
      <trkpt lat="40.70734" lon="-74.01158">
        <ele>338</ele>
        <time>2012-04-09T15:19:50Z</time>
      </trkpt>
      <trkpt lat="40.70732" lon="-74.01158">
        <ele>335</ele>
        <time>2012-04-09T15:19:51Z</time>
      </trkpt>
      <trkpt lat="40.7073" lon="-74.01158">
        <ele>324</ele>
        <time>2012-04-09T15:19:54Z</time>
      </trkpt>
      <trkpt lat="40.70729" lon="-74.01157">
        <ele>313</ele>
        <time>2012-04-09T15:19:58Z</time>
      </trkpt>
      <trkpt lat="40.70729" lon="-74.01155">
        <ele>310</ele>
        <time>2012-04-09T15:19:59Z</time>
      </trkpt>
      <trkpt lat="40.7073" lon="-74.01154">
        <ele>307</ele>
        <time>2012-04-09T15:20:00Z</time>
      </trkpt>
      <trkpt lat="40.7073" lon="-74.01157">
        <ele>302</ele>
        <time>2012-04-09T15:20:02Z</time>
      </trkpt>
      <trkpt lat="40.7073" lon="-74.01155">
        <ele>295</ele>
        <time>2012-04-09T15:20:05Z</time>
      </trkpt>
      <trkpt lat="40.70728" lon="-74.01154">
        <ele>289</ele>
        <time>2012-04-09T15:20:07Z</time>
      </trkpt>
      <trkpt lat="40.70727" lon="-74.01153">
        <ele>283</ele>
        <time>2012-04-09T15:20:10Z</time>
      </trkpt>
      <trkpt lat="40.70732" lon="-74.01158">
        <ele>273</ele>
        <time>2012-04-09T15:20:15Z</time>
      </trkpt>
      <trkpt lat="40.70732" lon="-74.01156">
        <ele>267</ele>
        <time>2012-04-09T15:20:17Z</time>
      </trkpt>
      <trkpt lat="40.70733" lon="-74.01159">
        <ele>247</ele>
        <time>2012-04-09T15:20:24Z</time>
      </trkpt>
      <trkpt lat="40.70732" lon="-74.01162">
        <ele>244</ele>
        <time>2012-04-09T15:20:25Z</time>
      </trkpt>
      <trkpt lat="40.70732" lon="-74.01164">
        <ele>241</ele>
        <time>2012-04-09T15:20:26Z</time>
      </trkpt>
      <trkpt lat="40.70733" lon="-74.01167">
        <ele>239</ele>
        <time>2012-04-09T15:20:27Z</time>
      </trkpt>
      <trkpt lat="40.70734" lon="-74.01168">
        <ele>237</ele>
        <time>2012-04-09T15:20:28Z</time>
      </trkpt>
      <trkpt lat="40.70734" lon="-74.0117">
        <ele>235</ele>
        <time>2012-04-09T15:20:29Z</time>
      </trkpt>
      <trkpt lat="40.70734" lon="-74.01171">
        <ele>233</ele>
        <time>2012-04-09T15:20:30Z</time>
      </trkpt>
      <trkpt lat="40.70734" lon="-74.01173">
        <ele>232</ele>
        <time>2012-04-09T15:20:31Z</time>
      </trkpt>
      <trkpt lat="40.70735" lon="-74.01176">
        <ele>230</ele>
        <time>2012-04-09T15:20:33Z</time>
      </trkpt>
      <trkpt lat="40.70736" lon="-74.01177">
        <ele>229</ele>
        <time>2012-04-09T15:20:34Z</time>
      </trkpt>
      <trkpt lat="40.70735" lon="-74.0118">
        <ele>221</ele>
        <time>2012-04-09T15:20:38Z</time>
      </trkpt>
      <trkpt lat="40.70734" lon="-74.01181">
        <ele>217</ele>
        <time>2012-04-09T15:20:43Z</time>
      </trkpt>
      <trkpt lat="40.70736" lon="-74.01183">
        <ele>217</ele>
        <time>2012-04-09T15:20:46Z</time>
      </trkpt>
      <trkpt lat="40.70737" lon="-74.01185">
        <ele>217</ele>
        <time>2012-04-09T15:20:49Z</time>
      </trkpt>
      <trkpt lat="40.70738" lon="-74.01187">
        <ele>217</ele>
        <time>2012-04-09T15:20:50Z</time>
      </trkpt>
      <trkpt lat="40.70739" lon="-74.01189">
        <ele>217</ele>
        <time>2012-04-09T15:20:52Z</time>
      </trkpt>
      <trkpt lat="40.70739" lon="-74.01186">
        <ele>216</ele>
        <time>2012-04-09T15:20:54Z</time>
      </trkpt>
      <trkpt lat="40.70741" lon="-74.01187">
        <ele>214</ele>
        <time>2012-04-09T15:20:57Z</time>
      </trkpt>
      <trkpt lat="40.70742" lon="-74.01186">
        <ele>213</ele>
        <time>2012-04-09T15:20:58Z</time>
      </trkpt>
      <trkpt lat="40.70744" lon="-74.01186">
        <ele>211</ele>
        <time>2012-04-09T15:21:00Z</time>
      </trkpt>
      <trkpt lat="40.70745" lon="-74.01186">
        <ele>209</ele>
        <time>2012-04-09T15:21:02Z</time>
      </trkpt>
      <trkpt lat="40.70747" lon="-74.01187">
        <ele>207</ele>
        <time>2012-04-09T15:21:04Z</time>
      </trkpt>
      <trkpt lat="40.70748" lon="-74.01187">
        <ele>205</ele>
        <time>2012-04-09T15:21:06Z</time>
      </trkpt>
      <trkpt lat="40.7075" lon="-74.01189">
        <ele>204</ele>
        <time>2012-04-09T15:21:07Z</time>
      </trkpt>
      <trkpt lat="40.70751" lon="-74.01196">
        <ele>202</ele>
        <time>2012-04-09T15:21:08Z</time>
      </trkpt>
      <trkpt lat="40.70752" lon="-74.01196">
        <ele>196</ele>
        <time>2012-04-09T15:21:11Z</time>
      </trkpt>
      <trkpt lat="40.70753" lon="-74.01197">
        <ele>193</ele>
        <time>2012-04-09T15:21:12Z</time>
      </trkpt>
      <trkpt lat="40.70755" lon="-74.01196">
        <ele>184</ele>
        <time>2012-04-09T15:21:15Z</time>
      </trkpt>
      <trkpt lat="40.70756" lon="-74.01196">
        <ele>163</ele>
        <time>2012-04-09T15:21:25Z</time>
      </trkpt>
      <trkpt lat="40.70757" lon="-74.01195">
        <ele>144</ele>
        <time>2012-04-09T15:21:33Z</time>
      </trkpt>
      <trkpt lat="40.70755" lon="-74.01194">
        <ele>140</ele>
        <time>2012-04-09T15:21:37Z</time>
      </trkpt>
      <trkpt lat="40.70754" lon="-74.01193">
        <ele>140</ele>
        <time>2012-04-09T15:21:42Z</time>
      </trkpt>
      <trkpt lat="40.70755" lon="-74.01192">
        <ele>135</ele>
        <time>2012-04-09T15:21:50Z</time>
      </trkpt>
      <trkpt lat="40.70757" lon="-74.01191">
        <ele>133</ele>
        <time>2012-04-09T15:21:52Z</time>
      </trkpt>
      <trkpt lat="40.70756" lon="-74.01192">
        <ele>127</ele>
        <time>2012-04-09T15:21:59Z</time>
      </trkpt>
      <trkpt lat="40.70755" lon="-74.01191">
        <ele>124</ele>
        <time>2012-04-09T15:22:18Z</time>
      </trkpt>
      <trkpt lat="40.70754" lon="-74.0119">
        <ele>121</ele>
        <time>2012-04-09T15:22:23Z</time>
      </trkpt>
      <trkpt lat="40.70753" lon="-74.01189">
        <ele>119</ele>
        <time>2012-04-09T15:22:25Z</time>
      </trkpt>
      <trkpt lat="40.70753" lon="-74.01186">
        <ele>118</ele>
        <time>2012-04-09T15:22:27Z</time>
      </trkpt>
      <trkpt lat="40.70755" lon="-74.01186">
        <ele>116</ele>
        <time>2012-04-09T15:22:29Z</time>
      </trkpt>
      <trkpt lat="40.70757" lon="-74.01187">
        <ele>113</ele>
        <time>2012-04-09T15:22:31Z</time>
      </trkpt>
      <trkpt lat="40.70758" lon="-74.01187">
        <ele>111</ele>
        <time>2012-04-09T15:22:32Z</time>
      </trkpt>
      <trkpt lat="40.7076" lon="-74.01187">
        <ele>105</ele>
        <time>2012-04-09T15:22:34Z</time>
      </trkpt>
      <trkpt lat="40.7076" lon="-74.01186">
        <ele>98</ele>
        <time>2012-04-09T15:22:36Z</time>
      </trkpt>
      <trkpt lat="40.7076" lon="-74.01183">
        <ele>90</ele>
        <time>2012-04-09T15:22:38Z</time>
      </trkpt>
      <trkpt lat="40.70758" lon="-74.01184">
        <ele>81</ele>
        <time>2012-04-09T15:22:41Z</time>
      </trkpt>
      <trkpt lat="40.70757" lon="-74.01185">
        <ele>73</ele>
        <time>2012-04-09T15:22:44Z</time>
      </trkpt>
      <trkpt lat="40.70757" lon="-74.01186">
        <ele>69</ele>
        <time>2012-04-09T15:22:46Z</time>
      </trkpt>
      <trkpt lat="40.70756" lon="-74.01188">
        <ele>67</ele>
        <time>2012-04-09T15:22:47Z</time>
      </trkpt>
      <trkpt lat="40.70755" lon="-74.01188">
        <ele>65</ele>
        <time>2012-04-09T15:22:49Z</time>
      </trkpt>
      <trkpt lat="40.70755" lon="-74.0119">
        <ele>64</ele>
        <time>2012-04-09T15:22:52Z</time>
      </trkpt>
      <trkpt lat="40.70755" lon="-74.01192">
        <ele>66</ele>
        <time>2012-04-09T15:22:56Z</time>
      </trkpt>
      <trkpt lat="40.70754" lon="-74.01194">
        <ele>67</ele>
        <time>2012-04-09T15:23:00Z</time>
      </trkpt>
      <trkpt lat="40.70754" lon="-74.01196">
        <ele>69</ele>
        <time>2012-04-09T15:23:02Z</time>
      </trkpt>
      <trkpt lat="40.70754" lon="-74.01199">
        <ele>71</ele>
        <time>2012-04-09T15:23:04Z</time>
      </trkpt>
      <trkpt lat="40.70755" lon="-74.01201">
        <ele>72</ele>
        <time>2012-04-09T15:23:05Z</time>
      </trkpt>
      <trkpt lat="40.70756" lon="-74.01202">
        <ele>78</ele>
        <time>2012-04-09T15:23:09Z</time>
      </trkpt>
      <trkpt lat="40.70758" lon="-74.01203">
        <ele>80</ele>
        <time>2012-04-09T15:23:11Z</time>
      </trkpt>
      <trkpt lat="40.70761" lon="-74.01204">
        <ele>81</ele>
        <time>2012-04-09T15:23:12Z</time>
      </trkpt>
      <trkpt lat="40.70763" lon="-74.01205">
        <ele>82</ele>
        <time>2012-04-09T15:23:13Z</time>
      </trkpt>
      <trkpt lat="40.70765" lon="-74.01206">
        <ele>83</ele>
        <time>2012-04-09T15:23:14Z</time>
      </trkpt>
      <trkpt lat="40.70766" lon="-74.01208">
        <ele>84</ele>
        <time>2012-04-09T15:23:15Z</time>
      </trkpt>
      <trkpt lat="40.70766" lon="-74.0121">
        <ele>85</ele>
        <time>2012-04-09T15:23:16Z</time>
      </trkpt>
      <trkpt lat="40.70768" lon="-74.01212">
        <ele>87</ele>
        <time>2012-04-09T15:23:18Z</time>
      </trkpt>
      <trkpt lat="40.70771" lon="-74.01213">
        <ele>88</ele>
        <time>2012-04-09T15:23:19Z</time>
      </trkpt>
      <trkpt lat="40.70773" lon="-74.01215">
        <ele>90</ele>
        <time>2012-04-09T15:23:20Z</time>
      </trkpt>
      <trkpt lat="40.70773" lon="-74.01217">
        <ele>92</ele>
        <time>2012-04-09T15:23:21Z</time>
      </trkpt>
      <trkpt lat="40.70773" lon="-74.01218">
        <ele>94</ele>
        <time>2012-04-09T15:23:22Z</time>
      </trkpt>
      <trkpt lat="40.70771" lon="-74.01221">
        <ele>99</ele>
        <time>2012-04-09T15:23:24Z</time>
      </trkpt>
      <trkpt lat="40.7077" lon="-74.01223">
        <ele>102</ele>
        <time>2012-04-09T15:23:25Z</time>
      </trkpt>
      <trkpt lat="40.70768" lon="-74.01225">
        <ele>104</ele>
        <time>2012-04-09T15:23:26Z</time>
      </trkpt>
      <trkpt lat="40.70766" lon="-74.01227">
        <ele>107</ele>
        <time>2012-04-09T15:23:27Z</time>
      </trkpt>
      <trkpt lat="40.70764" lon="-74.01229">
        <ele>109</ele>
        <time>2012-04-09T15:23:28Z</time>
      </trkpt>
      <trkpt lat="40.70762" lon="-74.01231">
        <ele>113</ele>
        <time>2012-04-09T15:23:30Z</time>
      </trkpt>
      <trkpt lat="40.70761" lon="-74.01233">
        <ele>115</ele>
        <time>2012-04-09T15:23:31Z</time>
      </trkpt>
      <trkpt lat="40.7076" lon="-74.01235">
        <ele>117</ele>
        <time>2012-04-09T15:23:32Z</time>
      </trkpt>
      <trkpt lat="40.70759" lon="-74.01238">
        <ele>119</ele>
        <time>2012-04-09T15:23:33Z</time>
      </trkpt>
      <trkpt lat="40.70757" lon="-74.0124">
        <ele>121</ele>
        <time>2012-04-09T15:23:34Z</time>
      </trkpt>
      <trkpt lat="40.70756" lon="-74.01241">
        <ele>123</ele>
        <time>2012-04-09T15:23:35Z</time>
      </trkpt>
      <trkpt lat="40.70754" lon="-74.01243">
        <ele>127</ele>
        <time>2012-04-09T15:23:37Z</time>
      </trkpt>
      <trkpt lat="40.70755" lon="-74.01245">
        <ele>130</ele>
        <time>2012-04-09T15:23:39Z</time>
      </trkpt>
      <trkpt lat="40.70757" lon="-74.01244">
        <ele>132</ele>
        <time>2012-04-09T15:23:41Z</time>
      </trkpt>
      <trkpt lat="40.70758" lon="-74.01243">
        <ele>134</ele>
        <time>2012-04-09T15:23:44Z</time>
      </trkpt>
      <trkpt lat="40.70757" lon="-74.01244">
        <ele>134</ele>
        <time>2012-04-09T15:23:47Z</time>
      </trkpt>
      <trkpt lat="40.70755" lon="-74.01245">
        <ele>135</ele>
        <time>2012-04-09T15:23:48Z</time>
      </trkpt>
      <trkpt lat="40.70753" lon="-74.01245">
        <ele>135</ele>
        <time>2012-04-09T15:23:49Z</time>
      </trkpt>
      <trkpt lat="40.7075" lon="-74.01246">
        <ele>136</ele>
        <time>2012-04-09T15:23:50Z</time>
      </trkpt>
      <trkpt lat="40.70747" lon="-74.01247">
        <ele>137</ele>
        <time>2012-04-09T15:23:51Z</time>
      </trkpt>
      <trkpt lat="40.70745" lon="-74.01247">
        <ele>137</ele>
        <time>2012-04-09T15:23:52Z</time>
      </trkpt>
      <trkpt lat="40.70744" lon="-74.01247">
        <ele>138</ele>
        <time>2012-04-09T15:23:53Z</time>
      </trkpt>
      <trkpt lat="40.70741" lon="-74.01248">
        <ele>139</ele>
        <time>2012-04-09T15:23:54Z</time>
      </trkpt>
      <trkpt lat="40.70739" lon="-74.01249">
        <ele>140</ele>
        <time>2012-04-09T15:23:55Z</time>
      </trkpt>
      <trkpt lat="40.70738" lon="-74.0125">
        <ele>141</ele>
        <time>2012-04-09T15:23:56Z</time>
      </trkpt>
      <trkpt lat="40.70737" lon="-74.01253">
        <ele>147</ele>
        <time>2012-04-09T15:24:02Z</time>
      </trkpt>
      <trkpt lat="40.70737" lon="-74.01255">
        <ele>148</ele>
        <time>2012-04-09T15:24:03Z</time>
      </trkpt>
      <trkpt lat="40.70739" lon="-74.01256">
        <ele>149</ele>
        <time>2012-04-09T15:24:04Z</time>
      </trkpt>
      <trkpt lat="40.70741" lon="-74.01257">
        <ele>150</ele>
        <time>2012-04-09T15:24:05Z</time>
      </trkpt>
      <trkpt lat="40.70742" lon="-74.01259">
        <ele>151</ele>
        <time>2012-04-09T15:24:06Z</time>
      </trkpt>
      <trkpt lat="40.70743" lon="-74.0126">
        <ele>154</ele>
        <time>2012-04-09T15:24:10Z</time>
      </trkpt>
      <trkpt lat="40.70745" lon="-74.01261">
        <ele>157</ele>
        <time>2012-04-09T15:24:13Z</time>
      </trkpt>
      <trkpt lat="40.70747" lon="-74.01261">
        <ele>158</ele>
        <time>2012-04-09T15:24:14Z</time>
      </trkpt>
      <trkpt lat="40.70749" lon="-74.01261">
        <ele>159</ele>
        <time>2012-04-09T15:24:15Z</time>
      </trkpt>
      <trkpt lat="40.7075" lon="-74.01262">
        <ele>160</ele>
        <time>2012-04-09T15:24:16Z</time>
      </trkpt>
      <trkpt lat="40.70752" lon="-74.01262">
        <ele>162</ele>
        <time>2012-04-09T15:24:18Z</time>
      </trkpt>
      <trkpt lat="40.70752" lon="-74.0126">
        <ele>164</ele>
        <time>2012-04-09T15:24:20Z</time>
      </trkpt>
      <trkpt lat="40.70751" lon="-74.01257">
        <ele>166</ele>
        <time>2012-04-09T15:24:23Z</time>
      </trkpt>
      <trkpt lat="40.70752" lon="-74.01254">
        <ele>166</ele>
        <time>2012-04-09T15:24:25Z</time>
      </trkpt>
      <trkpt lat="40.70748" lon="-74.0125">
        <ele>166</ele>
        <time>2012-04-09T15:29:12Z</time>
      </trkpt>
    </trkseg>
  </trk>
</gpx>